     2              OBSERVATION DATA    G (GPS)             RINEX VERSION / TYPE
ASRINEXO V2.9.7 UX USGS/MENLO_PARK 23-JUL-01 17:21          PGM / RUN BY / DATE
                                                            COMMENT
National Earthquake Hazard Reduction Program                COMMENT
Crustal Strain Project                                      COMMENT
345 Middlefield Road, MS/977                                COMMENT
U.S. Geological Survey, Menlo Park, California 94025        COMMENT
Contact: kwendt@usgs.gov (Ph: 650-329-4866)                 COMMENT
HI's are vertical to base of antenna                        COMMENT
BIT 2 OF LLI (+4) FLAGS DATA COLLECTED UNDER "AS" CONDITION COMMENT
hp19 HPGN_01-09_1991_Cal_Trans                              MARKER NAME
JMS                                                         OBSERVER / AGENCY
801 ASHTECH Z-XII3 CD00                                     REC # / TYPE / VERS
CR619992805 ASH701945.02B NONE                              ANT # / TYPE
 -2704844.0000 -3992428.0000  4160335.0000                  APPROX POSITION XYZ
        1.6890        0.0000        0.0000                  ANTENNA: DELTA H/E/N
     1     1                                                WAVELENGTH FACT L1/2
     5    C1    L1    L2    P1    P2                        # / TYPES OF OBSERV
    30                                                      INTERVAL
  2001     7    12    17     6    0.000000                  TIME OF FIRST OBS
                                                            END OF HEADER
 01  7 12 17  6  0.0000000  0  9 22 23 06 03 17 18 15 21 26
  23036763.739      100379.303 8     74249.07346  23036761.781    23036769.4404
  20843743.733       -2045.728 9     -1493.30548  20843743.057    20843749.6254
  21431428.326      298633.814 9    208304.46047  21431428.211    21431435.2214
  24770568.032     -313836.347 7   -231633.44045  24770565.774    24770575.2094
  20665192.499       38508.268 9     28581.70548  20665191.805    20665198.4564
  21235016.893      -21275.77547                  21235015.884    21235021.4524
  20903416.545      -74549.908 9    -55161.75147  20903415.556    20903422.5294
  24142077.228     -243155.549 8   -179250.78145  24142075.429    24142085.2494
  22335432.167        7594.300 8      5668.96646  22335432.282    22335439.5004
 01  7 12 17  6 30.0000000  0  9 22 23 06 03 17 18 15 21 26
  22809401.797    -1094413.146 8   -856758.07146  22809400.360    22809408.0334
  20611040.079    -1224912.035 9   -954376.14048  20611039.315    20611045.9074
  21214316.711     -842295.311 9   -680731.27147  21214316.624    21214323.6294
  24521512.251    -1622628.390 7  -1251471.36345  24521511.481    24521520.5684
  20434386.685    -1174384.521 9   -916529.56848  20434386.009    20434392.6644
  20993797.316    -1441326.13619  -1009028.85047  20993796.407    20993802.1054
  20667062.125    -1316599.945 9  -1022992.95348  20667061.301    20667068.2864
  23895108.256    -1540991.485 8  -1190551.41545  23895105.473    23895115.2904
  22103282.621    -1212361.630 8   -944946.05146  22103282.536    22103289.6084
 01  7 12 17  7  0.0000000  0  9 22 23 06 03 17 18 15 21 26
  22811622.951    -1082740.168 8   -847662.27046  22811621.682    22811629.3264
  20607904.904    -1241386.962 9   -967213.74248  20607904.245    20607910.8474
  21226761.780     -776896.707 9   -629771.37047  21226761.589    21226768.6384
  24501950.629    -1725421.093 7  -1331569.53245  24501950.313    24501959.7324
  20433108.607    -1181101.086 9   -921763.26048  20433107.904    20433114.6004
  20982140.644    -1502581.390 9  -1056760.18547  20982139.877    20982145.6674
  20660237.911    -1352461.529 9  -1050937.05348  20660237.085    20660244.0894
  23877649.949    -1632728.644 8  -1262034.82045  23877648.388    23877658.2454
  22100729.451    -1225777.753 8   -955400.19346  22100729.494    22100736.6044
 01  7 12 17  7 30.0000000  0  9 22 23 06 03 17 18 15 21 26
  22813948.556    -1070518.517 8   -838138.93246  22813947.413    22813955.0834
  20604860.192    -1257387.008 9   -979681.30948  20604859.552    20604866.1634
  21239285.351     -711085.250 9   -578489.77347  21239285.149    21239292.1844
  24482405.573    -1828130.704 7  -1411602.95445  24482405.215    24482414.6354
  20431880.023    -1187557.312 9   -926794.09648  20431879.334    20431886.0414
  20970568.812    -1563391.320 9  -1104144.51647  20970568.118    20970573.9484
  20653465.514    -1388051.067 9  -1078669.16748  20653464.684    20653471.6384
  23860227.322    -1724283.254 8  -1333375.99245  23860226.150    23860235.9574
  22098295.430    -1238569.215 8   -965367.57646  22098295.448    22098302.4844
 01  7 12 17  8  0.0000000  0  9 22 23 06 03 17 18 15 21 26
  22816378.194    -1057750.397 8   -828189.78546  22816377.091    22816384.7954
  20601905.615    -1272913.707 9   -991780.03248  20601904.958    20601911.5504
  21251887.141     -644863.146 9   -526888.18247  21251886.875    21251893.8884
  24462876.519    -1930756.698 7  -1491571.19745  24462875.783    24462885.6104
  20430700.802    -1193754.360 9   -931622.96648  20430700.131    20430706.8024
  20959081.755    -1623756.121 9  -1151182.00347  20959081.100    20959086.9194
  20646744.656    -1423369.377 9  -1106189.92748  20646743.827    20646750.7814
  23842839.511    -1815655.191 8  -1404574.81245  23842838.567    23842848.4454
  22095980.171    -1250736.150 8   -974848.31646  22095980.191    22095987.2474
 01  7 12 17  8 30.0000000  0  9 22 23 06 03 17 18 15 21 26
  22818912.027    -1044435.038 8   -817814.20146  22818910.937    22818918.6724
  20599041.256    -1287966.009 9  -1003509.09448  20599040.631    20599047.2124
  21264567.096     -578229.978 9   -474966.29047  21264566.836    21264573.8344
  24443363.758    -2033295.558 7  -1571471.58645  24443363.291    24443373.1534
  20429571.174    -1199690.744 9   -936248.72348  20429570.493    20429577.1284
  20947679.816    -1683673.540 9  -1197870.88147  20947679.193    20947685.0214
  20640075.664    -1458414.900 9  -1133498.13048  20640074.864    20640081.8154
  23825487.123    -1906841.927 8  -1475629.33645  23825486.329    23825496.1574
  22093784.309    -1262276.206 8   -983840.56646  22093784.212    22093791.3274
 01  7 12 17  9  0.0000000  0  9 22 23 06 03 17 18 15 21 26
  22821549.705    -1030573.814 8   -807013.28746  22821548.661    22821556.4424
  20596267.043    -1302544.965 9  -1014869.31748  20596266.391    20596272.9434
  21277325.017     -511187.438 9   -422725.40247  21277324.714    21277331.6904
  24423868.324    -2135745.930 7  -1651302.97445  24423867.868    24423877.5084
  20428491.061    -1205366.968 9   -940671.76448  20428490.360    20428497.0094
  20936363.154    -1743143.138 9  -1244210.80447  20936362.498    20936368.3554
  20633458.524    -1493188.133 9  -1160594.15848  20633457.754    20633464.7484
  23808170.259    -1997842.610 8  -1546538.86445  23808169.327    23808179.2604
  22091707.654    -1273188.986 8   -992344.04046  22091707.579    22091714.8744
 01  7 12 17  9 30.0000000  0  9 22 23 06 03 17 18 15 21 26
  22824290.967    -1016168.159 8   -795788.12846  22824289.973    22824297.7624
  20593582.765    -1316650.961 9  -1025860.99548  20593582.090    20593588.6624
  21290160.523     -443736.584 9   -370166.35147  21290160.229    21290167.1934
  24404390.254    -2238105.476 7  -1731063.61445  24404389.652    24404399.3484
  20427460.392    -1210782.992 9   -944892.05048  20427459.704    20427466.4404
  20925131.787    -1802163.775 9  -1290200.88347  20925131.263    20925137.1204
  20626893.344    -1527688.771 9  -1187477.76248  20626892.559    20626899.5804
  23790889.037    -2088655.700 8  -1617302.20245  23790888.141    23790898.0984
  22089750.735    -1283473.526 8  -1000357.97546  22089750.584    22089757.8854
 01  7 12 17 10  0.0000000  0  9 22 23 06 03 17 18 15 21 26
  22827135.741    -1001219.182 8   -784139.61446  22827134.694    22827142.5084
  20590988.436    -1330284.241 9  -1036484.32848  20590987.796    20590994.3524
  21303073.704     -375878.143 9   -317289.69847  21303073.369    21303080.3184
  24384929.599    -2340371.760 7  -1810751.56345  24384929.225    24384938.7744
  20426479.342    -1215938.364 9   -948909.23448  20426478.673    20426485.4294
  20913986.180    -1860734.285 9  -1335840.22147  20913985.629    20913991.5294
  20620380.162    -1561916.174 9  -1214148.46448  20620379.328    20620386.3724
  23773643.564    -2179280.322 8  -1687918.70145  23773642.739    23773652.8064
  22087913.453    -1293128.800 8  -1007881.57646  22087913.316    22087920.6244
 01  7 12 17 10 30.0000000  0  9 22 23 06 03 17 18 15 21 26
  22830083.739     -985727.806 8   -772068.43946  22830082.663    22830090.4604
  20588483.968    -1343445.381 9  -1046739.75248  20588483.320    20588489.9274
  21316064.119     -307613.220 9   -264096.30247  21316063.796    21316070.7554
  24365487.306    -2442543.108 7  -1890365.56945  24365486.754    24365496.3144
  20425547.876    -1220833.205 9   -952723.40048  20425547.228    20425553.9764
  20902926.453    -1918853.803 9  -1381128.14348  20902925.886    20902931.7384
  20613918.857    -1595870.245 9  -1240606.18448  20613918.081    20613925.1144
  23756434.404    -2269714.860 8  -1758387.09445  23756433.603    23756443.6184
  22086196.163    -1302153.800 8  -1014914.05146  22086195.965    22086203.2084
 01  7 12 17 11  0.0000000  0  9 22 23 06 03 17 18 15 21 26
  22833134.747     -969694.486 8   -759574.98646  22833133.800    22833141.5754
  20586069.308    -1356134.600 9  -1056627.46148  20586068.671    20586075.2864
  21329131.694     -238942.634 9   -210586.80347  21329131.439    21329138.3834
  24346063.392    -2544616.831 7  -1969903.47945  24346062.901    24346072.2684
  20424666.042    -1225467.141 9   -956334.25748  20424665.418    20424672.1824
  20891952.744    -1976520.954 9  -1426063.57248  20891952.212    20891958.0564
  20607509.680    -1629550.444 9  -1266850.48748  20607508.919    20607515.9904
  23739261.660    -2359957.599 8  -1828706.06245  23739260.972    23739270.8604
  22084598.881    -1310547.515 8  -1021454.58946  22084598.711    22084605.9094
 01  7 12 17 11 30.0000000  0  9 22 23 06 03 17 18 15 21 26
  22836288.850     -953120.297 8   -746660.06146  22836287.857    22836295.6104
  20583744.337    -1368352.546 9  -1066147.92748  20583743.681    20583750.3164
  21342276.320     -169867.446 9   -156762.04547  21342276.030    21342282.9824
  24326658.453    -2646591.001 7  -2049363.82645  24326657.995    24326667.1434
  20423833.948    -1229840.168 9   -959741.82448  20423833.344    20423840.0674
  20881065.389    -2033734.552 9  -1470645.58148  20881064.870    20881070.6534
  20601152.813    -1662956.353 9  -1292881.08048  20601152.029    20601159.0674
  23722125.635    -2450007.766 8  -1898874.91445  23722124.945    23722134.8214
  22083121.691    -1318309.191 8  -1027502.69946  22083121.603    22083128.9434
 01  7 12 17 12  0.0000000  0  9 22 23 06 03 17 18 15 21 26
  22839545.403     -936007.135 8   -733325.17646  22839544.353    22839552.1614
  20581508.903    -1380099.833 9  -1075301.65548  20581508.258    20581514.8984
  21355497.755     -100388.833 9   -102622.90647  21355497.437    21355504.4264
  24307272.855    -2748463.396 8  -2128744.89445  24307272.385    24307281.5124
  20423051.504    -1233952.161 9   -962945.98448  20423050.866    20423057.6244
  20870264.451    -2090494.086 9  -1514873.78048  20870263.927    20870269.6874
  20594848.145    -1696087.825 9  -1318697.82048  20594847.374    20594854.4074
  23705026.506    -2539863.957 8  -1968892.67845  23705025.932    23705035.6534
  22081765.106    -1325438.136 8  -1033057.75946  22081765.002    22081772.4354
 01  7 12 17 12 30.0000000  0  9 22 23 06 03 17 18 15 21 26
  22842904.188     -918356.351 8   -719571.34046  22842903.227    22842911.0624
  20579362.990    -1391377.012 9  -1084089.06348  20579362.304    20579368.9484
  21368795.684      -30508.089 9    -48170.44647  21368795.351    21368802.3694
  24287907.111    -2850232.141 8  -2208045.16345  24287906.542    24287915.4994
  20422318.720    -1237803.103 9   -965946.72248  20422318.093    20422324.8734
  20859550.062    -2146798.643 9  -1558747.44148  20859549.534    20859555.2654
  20588595.666    -1728944.844 9  -1344300.68448  20588594.882    20588601.9574
  23687964.580    -2629524.988 8  -2038758.35246  23687963.984    23687973.7094
  22080529.113    -1331933.650 8  -1038119.16546  22080529.028    22080536.4084
 01  7 12 17 13  0.0000000  0  9 22 23 06 03 17 18 15 21 26
  22846365.095     -900168.831 8   -705399.30446  22846364.211    22846372.1404
  20577306.314    -1402184.815 9  -1092510.72048  20577305.648    20577312.2834
  21382169.792       39773.485 9      6594.35947  21382169.502    21382176.5134
  24268561.039    -2951895.465 7  -2287263.31145  24268560.565    24268569.5664
  20421635.525    -1241393.211 9   -968744.22648  20421634.926    20421641.7094
  20848922.348    -2202647.566 9  -1602266.06448  20848921.842    20848927.5314
  20582395.409    -1761527.349 9  -1369689.65348  20582394.645    20582401.7274
  23670940.097    -2718989.544 8  -2108470.93046  23670939.480    23670949.1654
  22079413.742    -1337795.147 8  -1042686.58946  22079413.640    22079421.0334
 01  7 12 17 13 30.0000000  0  9 22 23 06 03 17 18 15 21 26
  22849928.137     -881445.198 8   -690809.49546  22849927.264    22849935.1984
  20575338.955    -1412523.522 9  -1100566.85048  20575338.300    20575344.9044
  21395620.142      110455.227 9     61670.97847  21395619.861    21395626.8774
  24249235.687    -3053450.717 7  -2366397.22345  24249235.264    24249244.1554
  20421002.065    -1244722.085 9   -971338.16748  20421001.475    20421008.2784
  20838381.673    -2258039.357 9  -1645428.47848  20838381.139    20838386.8624
  20576247.638    -1793834.444 9  -1394864.01348  20576246.871    20576253.9274
  23653953.101    -2808255.900 8  -2178029.07846  23653952.579    23653962.2024
  22078419.202    -1343021.606 8  -1046759.16646  22078419.088    22078426.4994
 01  7 12 17 14  0.0000000  0  9 22 23 06 03 17 18 15 21 26
  22853592.886     -862187.179 8   -675803.28746  22853591.987    22853599.9054
  20573460.750    -1422393.774 9  -1108257.95048  20573460.060    20573466.6844
  21409146.403      181535.888 9    117058.45147  21409146.086    21409153.1404
  24229931.066    -3154895.877 7  -2445445.34545  24229930.898    24229939.7944
  20420418.342    -1247789.617 9   -973728.46848  20420417.729    20420424.5564
  20827928.025    -2312973.268 9  -1688234.10148  20827927.546    20827933.2394
  20570152.277    -1825866.150 9  -1419823.78548  20570151.470    20570158.5064
  23637004.122    -2897323.455 8  -2247432.29146  23637003.583    23637013.1784
  22077545.511    -1347612.569 8  -1050336.54946  22077545.483    22077552.8504
 01  7 12 17 14 30.0000000  0  9 22 23 06 03 17 18 15 21 26
  22857359.013     -842396.556 8   -660382.06946  22857358.060    22857365.9814
  20571671.513    -1431796.276 9  -1115584.57248  20571670.849    20571677.5004
  21422748.248      253014.160 9    172755.74747  21422747.980    21422755.0304
  24210647.949    -3256228.884 7  -2524406.07545  24210647.917    24210656.7514
  20419884.347    -1250595.903 9   -975915.20048  20419883.729    20419890.5634
  20817561.753    -2367448.647 9  -1730682.42848  20817561.252    20817566.9124
  20564109.247    -1857622.264 9  -1444568.80948  20564108.464    20564115.5304
  23620093.126    -2986190.556 8  -2316679.33746  23620092.680    23620102.2824
  22076792.955    -1351567.532 8  -1053418.36446  22076792.924    22076800.3174
 01  7 12 17 15  0.0000000  0  9 22 23 06 03 17 18 15 21 26
  22861226.162     -822074.718 8   -644546.91246  22861225.233    22861233.1824
  20569971.093    -1440731.826 9  -1122547.33548  20569970.456    20569977.1074
  21436425.547      324888.463 9    228761.64147  21436425.282    21436432.2934
  24191386.651    -3357448.007 7  -2603278.06445  24191386.502    24191395.5074
  20419400.015    -1253141.213 9   -977898.57348  20419399.414    20419406.2244
  20807282.767    -2421465.163 9  -1772773.19848  20807282.238    20807287.9194
  20558118.634    -1889102.951 9  -1469099.21248  20558117.881    20558124.9964
  23603220.448    -3074856.746 8  -2385769.78346  23603220.021    23603229.6784
  22076161.618    -1354886.161 8  -1056004.32046  22076161.531    22076168.8404
 01  7 12 17 15 30.0000000  0  9 22 23 06 03 17 18 15 21 26
  22865194.325     -801222.534 8   -628298.49546  22865193.336    22865201.3104
  20568359.327    -1449201.492 9  -1129147.06948  20568358.722    20568365.3774
  21450178.009      397157.635 9    285075.23047  21450177.691    21450184.7494
  24172147.464    -3458551.132 7  -2682059.66145  24172147.150    24172156.1684
  20418965.389    -1255425.315 9   -979678.40448  20418964.775    20418971.5914
  20797091.228    -2475021.732 9  -1814505.56748  20797090.694    20797096.4284
  20552180.653    -1920307.738 9  -1493414.63848  20552179.862    20552186.9204
  23586386.328    -3163321.135 8  -2454702.99746  23586385.775    23586395.4474
  22075651.378    -1357567.915 8  -1058093.99947  22075651.294    22075658.5474
 01  7 12 17 16  0.0000000  0  9 22 23 06 03 17 18 15 21 26
  22869263.144     -779841.138 8   -611637.72146  22869262.140    22869270.1244
  20566836.204    -1457205.644 9  -1135384.07248  20566835.576    20566842.2504
  21464005.394      469820.683 9    341695.73047  21464005.088    21464012.1984
  24152930.782    -3559535.867 7  -2760749.00245  24152930.355    24152939.2744
  20418580.504    -1257448.098 9   -981254.61748  20418579.861    20418586.7134
  20786987.439    -2528117.326 9  -1855878.73748  20786986.918    20786992.6794
  20546295.143    -1951236.333 9  -1517514.83948  20546294.366    20546301.3984
  23569590.799    -3251581.829 8  -2523477.50546  23569590.292    23569599.8804
  22075262.356    -1359612.029 8  -1059686.82647  22075262.254    22075269.6524
 01  7 12 17 16 30.0000000  0  9 22 23 06 03 17 18 15 21 26
  22873432.306     -757931.823 8   -594565.56846  22873431.353    22873439.3564
  20565401.691    -1464744.260 9  -1141258.31748  20565401.069    20565407.7244
  21477907.545      542877.010 9    398622.68147  21477907.254    21477914.4694
  24133737.298    -3660399.441 7  -2839343.93345  24133736.542    24133745.4704
  20418245.461    -1259208.887 9   -982626.67948  20418244.813    20418251.7034
  20776971.649    -2580750.737 9  -1896891.76548  20776971.132    20776976.8814
  20540462.342    -1981887.912 9  -1541399.18448  20540461.554    20540468.6104
  23552834.456    -3339637.053 8  -2592091.90746  23552833.952    23552843.4554
  22074994.780    -1361017.460 8  -1060781.98447  22074994.779    22075002.2944
 01  7 12 17 17  0.0000000  0  9 22 23 06 03 17 18 15 21 26
  22877701.615     -735497.061 8   -577083.98046  22877700.627    22877708.6224
  20564055.449    -1471818.733 9  -1146770.89448  20564054.831    20564061.5024
  21491884.212      616324.535 9    455854.46047  21491883.898    21491891.1564
  24114566.858    -3761140.309 7  -2917843.26645  24114566.144    24114575.0904
  20417960.175    -1260708.211 9   -983795.00148  20417959.531    20417966.4224
  20767043.758    -2632921.986 9  -1937544.66548  20767043.245    20767049.0024
  20534682.149    -2012262.939 9  -1565068.03848  20534681.396    20534688.4204
  23536117.291    -3427486.440 8  -2660545.89746  23536116.725    23536126.2524
  22074848.892    -1361784.546 8  -1061379.72147  22074848.810    22074856.3434
 01  7 12 17 17 30.0000000  0  9 22 23 06 03 17 18 15 21 26
  22882070.661     -712536.983 8   -559193.05946  22882069.802    22882077.8564
  20562797.549    -1478429.078 9  -1151921.81448  20562796.902    20562803.6074
  21505935.195      690162.584 9    513390.55247  21505934.871    21505942.1844
  24095420.179    -3861755.804 7  -2996244.89545  24095419.438    24095428.4414
  20417724.823    -1261945.339 9   -984759.01548  20417724.164    20417731.0224
  20757204.115    -2684629.601 9  -1977836.29848  20757203.627    20757209.4014
  20528954.864    -2042360.425 9  -1588520.63148  20528954.081    20528961.0904
  23519439.618    -3515128.007 8  -2728837.96746  23519439.121    23519448.5474
  22074824.678    -1361912.187 8  -1061479.19047  22074824.597    22074832.1134
 01  7 12 17 18  0.0000000  0  9 22 23 06 03 17 18 15 21 26
  22886539.451     -689053.226 8   -540894.06446  22886538.599    22886546.7024
  20561627.723    -1484576.526 9  -1156712.03548  20561627.112    20561633.8184
  21520060.075      764389.359 9    571229.54247  21520059.803    21520067.1444
  24076297.881    -3962244.052 7  -3074547.35945  24076297.126    24076306.1194
  20417539.209    -1262920.872 9   -985519.18948  20417538.552    20417545.3994
  20747452.787    -2735873.249 9  -2017766.39848  20747452.298    20747458.0284
  20523280.277    -2072180.546 9  -1611757.09048  20523279.489    20523286.5134
  23502801.632    -3602561.178 8  -2796967.63746  23502801.099    23502810.4724
  22074922.147    -1361400.462 8  -1061080.45247  22074922.029    22074929.4554
 01  7 12 17 18 30.0000000  0  9 22 23 06 03 17 18 15 21 26
  22891107.715     -665046.998 8   -522187.95846  22891106.926    22891114.9314
  20560546.032    -1490261.059 9  -1161141.54248  20560545.381    20560552.0914
  21534258.907      839004.338 9    629371.03047  21534258.653    21534266.0044
  24057200.216    -4062602.312 7  -3152748.54345  24057199.667    24057208.5024
  20417403.509    -1263633.940 9   -986074.84648  20417402.876    20417409.6964
  20737789.977    -2786651.812 9  -2057334.09048  20737789.477    20737795.1724
  20517658.635    -2101722.340 9  -1634776.67748  20517657.851    20517664.8674
  23486203.406    -3689784.175 8  -2864933.54946  23486203.010    23486212.2984
  22075141.419    -1360248.228 8  -1060182.61547  22075141.368    22075148.7834
 01  7 12 17 19  0.0000000  0  9 22 23 06 03 17 18 15 21 26
  22895775.051     -640520.793 8   -503076.68346  22895774.125    22895782.1384
  20559552.148    -1495484.153 9  -1165211.49148  20559551.499    20559558.1644
  21548531.171      914005.456 8    687813.40047  21548530.902    21548538.3174
  24038127.667    -4162829.144 7  -3230847.33245  24038127.021    24038136.0044
  20417317.675    -1264085.049 9   -986426.38648  20417317.046    20417323.8674
  20728215.686    -2836965.015 9  -2096539.17448  20728215.195    20728220.8464
  20512089.889    -2130986.344 9  -1657579.81248  20512089.116    20512096.1094
  23469645.471    -3776796.549 8  -2932735.33846  23469645.053    23469654.3084
  22075482.515    -1358455.777 8  -1058785.91647  22075482.501    22075489.9054
 01  7 12 17 19 30.0000000  0  9 22 23 06 03 17 18 15 21 26
  22900540.903     -615476.323 8   -483561.56846  22900540.006    22900547.8844
  20558645.855    -1500247.049 9  -1168922.84648  20558645.206    20558651.8164
  21562876.584      989391.218 8    746555.49247  21562876.381    21562883.7734
  24019080.437    -4262922.656 8  -3308842.23245  24019079.787    24019088.9094
  20417281.644    -1264274.464 9   -986574.00548  20417281.030    20417287.8694
  20718730.022    -2886812.538 9  -2135381.39348  20718729.562    20718735.1814
  20506574.070    -2159972.519 9  -1680166.44748  20506573.285    20506580.2514
  23453127.856    -3863597.499 8  -3000372.38446  23453127.358    23453136.4974
  22075945.487    -1356023.298 8  -1056890.48147  22075945.451    22075952.7294
 01  7 12 17 20  0.0000000  0  9 22 23 06 03 17 18 15 21 26
  22905405.294     -589913.906 8   -463642.86346  22905404.428    22905412.2864
  20557827.044    -1504549.827 9  -1172275.66448  20557826.413    20557832.9814
  21577295.222     1065160.931 8    805596.76947  21577294.989    21577302.3194
  24000059.008    -4362879.943 8  -3386730.98245  24000058.485    24000067.5664
  20417295.485    -1264201.562 9   -986517.21948  20417294.901    20417301.7704
  20709333.300    -2936192.828 9  -2173859.52548  20709332.797    20709338.3944
  20501111.267    -2188679.995 9  -1702535.91448  20501110.466    20501117.3834
  23436650.762    -3950185.243 8  -3067843.29746  23436650.215    23436659.3444
  22076530.341    -1352949.777 8  -1054495.53847  22076530.336    22076537.6234
 01  7 12 17 20 30.0000000  0  9 22 23 06 03 17 18 15 21 26
  22910367.904     -563835.189 8   -443321.84046  22910367.063    22910374.9364
  20557095.683    -1508393.336 9  -1175270.61348  20557095.029    20557101.6184
  21591786.600     1141312.975 9    864935.96947  21591786.327    21591793.5874
  23981063.876    -4462699.025 7  -3464512.06045  23981063.505    23981072.4784
  20417359.351    -1263866.127 9   -986255.87048  20417358.777    20417365.6394
  20700025.529    -2985105.482 9  -2211973.27148  20700025.021    20700030.6134
  20495701.505    -2217108.532 9  -1724688.03148  20495700.692    20495707.6124
  23420214.396    -4036558.668 8  -3135147.20946  23420213.843    23420222.9674
  22077237.270    -1349234.996 8  -1051600.90447  22077237.257    22077244.5294
 01  7 12 17 21  0.0000000  0  9 22 23 06 03 17 18 15 21 26
  22915428.493     -537241.837 8   -422599.79746  22915427.659    22915435.5394
  20556451.582    -1511778.005 9  -1177908.02548  20556450.955    20556457.5144
  21606350.584     1217846.619 9    924572.52547  21606350.255    21606357.4714
  23962095.777    -4562377.212 8  -3542183.34245  23962095.357    23962104.2334
  20417473.265    -1263267.723 9   -985789.60448  20417472.688    20417479.5714
  20690806.925    -3033549.590 9  -2249721.91448  20690806.443    20690812.0244
  20490344.928    -2245257.374 9  -1746622.20148  20490344.140    20490351.0994
  23403819.146    -4122715.968 8  -3202282.71146  23403818.624    23403827.7294
  22078066.321    -1344878.432 8  -1048206.18447  22078066.313    22078073.5934
 01  7 12 17 21 30.0000000  0  9 22 23 06 03 17 18 15 21 26
  22920586.549     -510136.601 8   -401478.88146  22920585.668    22920593.5224
  20555894.535    -1514705.577 9  -1180189.25648  20555893.871    20555900.4674
  21620986.672     1294759.620 9    984504.67947  21620986.372    21620993.6054
  23943154.740    -4661912.916 8  -3619743.59345  23943154.349    23943163.1054
  20417637.029    -1262407.228 9   -985119.11548  20417636.464    20417643.3324
  20681677.417    -3081525.432 9  -2287105.67748  20681676.923    20681682.5094
  20485041.474    -2273127.420 9  -1768339.12948  20485040.701    20485047.6264
  23387465.013    -4208657.520 8  -3269250.10346  23387464.485    23387473.5704
  22079017.393    -1339880.698 8  -1044311.84147  22079017.384    22079024.6664
 01  7 12 17 22  0.0000000  0  9 22 23 06 03 17 18 15 21 26
  22925841.954     -482519.782 8   -379959.34446  22925841.060    22925848.8714
  20555424.369    -1517176.388 9  -1182114.57348  20555423.726    20555430.2884
  21635694.828     1372051.131 9   1044731.77547  21635694.530    21635701.7464
  23924241.441    -4761303.529 8  -3697190.78045  23924240.903    23924249.6854
  20417850.873    -1261283.764 9   -984243.71148  20417850.306    20417857.1714
  20672637.282    -3129031.769 9  -2324123.59248  20672636.771    20672642.4014
  20479791.286    -2300717.611 9  -1789837.98148  20479790.476    20479797.4144
  23371152.176    -4294381.327 8  -3336047.82246  23371151.769    23371160.8164
  22080090.537    -1334240.970 8  -1039917.25247  22080090.551    22080097.8834
 01  7 12 17 22 30.0000000  0  9 22 23 06 03 17 18 15 21 26
  22931194.287     -454392.982 8   -358042.42346  22931193.465    22931201.3394
  20555040.928    -1519191.384 9  -1183684.70548  20555040.302    20555046.8684
  21650474.742     1449719.749 9   1105252.71847  21650474.418    21650481.6704
  23905355.988    -4860547.128 8  -3774523.39145  23905355.427    23905364.2704
  20418114.737    -1259897.377 9   -983163.43648  20418114.174    20418121.0344
  20663686.567    -3176067.896 9  -2360775.11248  20663686.078    20663691.7194
  20474594.341    -2328027.726 9  -1811118.58948  20474593.574    20474600.5114
  23354880.957    -4379886.581 8  -3402675.24746  23354880.603    23354889.6224
  22081285.895    -1327959.363 8  -1035022.50547  22081285.914    22081293.2524
 01  7 12 17 23  0.0000000  0  9 22 23 06 03 17 18 15 21 26
  22936643.430     -425758.018 8   -335729.50946  22936642.623    22936650.4224
  20554744.072    -1520751.460 9  -1184900.35648  20554743.447    20554749.9894
  21665326.060     1527764.038 9   1166066.39047  21665325.797    21665333.0834
  23886498.767    -4959641.266 7  -3851739.56445  23886498.312    23886507.2104
  20418428.692    -1258248.001 9   -981878.23048  20418428.096    20418434.9164
  20654825.513    -3222633.377 9  -2397059.90448  20654824.992    20654830.6204
  20469450.769    -2355057.485 9  -1832180.74948  20469450.005    20469456.8994
  23338651.740    -4465171.985 8  -3469131.37446  23338651.298    23338660.2424
  22082603.434    -1321035.670 8  -1029627.41947  22082603.481    22082610.7444
 01  7 12 17 23 30.0000000  0  9 22 23 06 03 17 18 15 21 26
  22942188.812     -396617.071 8   -313022.34146  22942188.023    22942195.8524
  20554533.584    -1521857.553 9  -1185762.25248  20554532.963    20554539.4894
  21680248.712     1606182.494 9   1227171.61947  21680248.386    21680255.6904
  23867670.529    -5058583.670 7  -3928837.50745  23867670.256    23867679.1024
  20418792.636    -1256335.719 9   -980388.16648  20418792.054    20418798.8374
  20646054.037    -3268727.587 9  -2432977.46248  20646053.525    20646059.1664
  20464360.545    -2381806.678 9  -1853024.27348  20464359.788    20464366.7004
  23322464.536    -4550236.127 8  -3535415.05646  23322464.084    23322473.0524
  22084043.222    -1313469.946 8  -1023732.06147  22084043.205    22084050.4174
 01  7 12 17 24  0.0000000  0  9 22 23 06 03 17 18 15 21 26
  22947830.057     -366972.131 8   -289922.43746  22947829.249    22947837.1324
  20554409.326    -1522510.620 9  -1186271.14548  20554408.729    20554415.2194
  21695242.264     1684973.465 8   1288567.12447  21695241.916    21695249.1934
  23848871.722    -5157372.440 7  -4005815.73445  23848871.400    23848880.1954
  20419206.648    -1254160.448 9   -978693.16948  20419206.068    20419212.8144
  20637372.248    -3314350.477 9  -2468527.76048  20637371.785    20637377.4464
  20459323.788    -2408275.257 9  -1873649.14348  20459323.025    20459329.9274
  23306319.413    -4635078.952 8  -3601526.29446  23306318.951    23306327.9294
  22085605.081    -1305262.305 8  -1017336.50547  22085605.064    22085612.2604
 01  7 12 17 24 30.0000000  0  9 22 23 06 03 17 18 15 21 26
  22953567.211     -336823.602 8   -266430.13146  22953566.447    22953574.3284
  20554371.261    -1522710.948 9  -1186427.25248  20554370.655    20554377.1074
  21710306.486     1764136.292 8   1350252.39747  21710306.138    21710313.3724
  23830102.724    -5256004.631 7  -4082671.95245  23830102.333    23830111.0584
  20419670.803    -1251721.316 9   -976792.56648  20419670.216    20419676.9924
  20628780.489    -3359500.592 9  -2503709.65848  20628780.023    20628785.6674
  20454340.580    -2434462.267 9  -1894054.60948  20454339.805    20454346.7094
  23290216.886    -4719698.145 8  -3667463.27946  23290216.429    23290225.3504
  22087289.175    -1296412.091 8  -1010440.23347  22087289.138    22087296.3954
 01  7 12 17 25  0.0000000  0  9 22 23 06 03 17 18 15 21 26
  22959399.646     -306173.974 8   -242547.36246  22959398.869    22959406.8474
  20554418.969    -1522460.459 9  -1186232.07348  20554418.342    20554424.8094
  21725441.018     1843668.553 9   1412225.53547  21725440.690    21725447.8754
  23811363.654    -5354478.892 7  -4159405.09445  23811363.287    23811372.0914
  20420184.984    -1249019.308 9   -974687.12648  20420184.410    20420191.2204
  20620278.608    -3404178.396 9  -2538523.52648  20620278.119    20620283.7474
  20449410.822    -2460368.365 9  -1914241.17748  20449410.068    20449416.9654
  23274157.026    -4804093.557 8  -3733225.89346  23274156.487    23274165.3284
  22089095.379    -1286920.161 8  -1003043.93847  22089095.397    22089102.6884
 01  7 12 17 25 30.0000000  0  9 22 23 06 03 17 18 15 21 26
  22965327.313     -275024.463 8   -218275.08246  22965326.485    22965334.5004
  20554552.425    -1521759.130 9  -1185685.59348  20554551.810    20554558.2784
  21740645.732     1923569.694 8   1474486.11247  21740645.375    21740652.5924
  23792655.047    -5452791.986 7  -4236012.66345  23792654.927    23792663.7384
  20420749.406    -1246053.221 9   -972375.90948  20420748.830    20420755.6944
  20611866.817    -3448382.559 9  -2572968.32048  20611866.332    20611871.9554
  20444534.791    -2485992.307 9  -1934207.88348  20444534.014    20444540.9154
  23258139.971    -4888263.214 8  -3798812.58646  23258139.495    23258148.3234
  22091023.992    -1276785.670 8   -995146.93847  22091023.992    22091031.2304
 01  7 12 17 26  0.0000000  0  9 22 23 06 03 17 18 15 21 26
  22971349.526     -243377.707 8   -193615.32146  22971348.696    22971356.7594
  20554771.371    -1520608.410 9  -1184788.93748  20554770.788    20554777.2794
  21755920.178     2003837.827 8   1537032.65047  21755919.900    21755927.1794
  23773977.843    -5550942.021 8  -4312493.17845  23773977.578    23773986.4354
  20421364.053    -1242823.377 9   -969859.16948  20421363.494    20421370.3744
  20603545.248    -3492112.964 9  -2607043.95348  20603544.763    20603550.3504
  20439712.353    -2511334.179 9  -1953954.79648  20439711.602    20439718.4744
  23242165.972    -4972206.731 8  -3864223.05646  23242165.504    23242174.4534
  22093074.706    -1266009.223 8   -986749.71647  22093074.682    22093081.9504
 01  7 12 17 26 30.0000000  0  9 22 23 06 03 17 18 15 21 26
  22977465.981     -211235.330 8   -168569.35846  22977465.222    22977473.3424
  20555075.652    -1519009.369 9  -1183542.94448  20555075.048    20555081.5654
  21771264.145     2084471.288 8   1599863.87047  21771263.957    21771271.3154
  23755332.145    -5648927.152 8  -4388845.18645  23755331.717    23755340.3804
  20422028.851    -1239330.006 9   -967137.08148  20422028.264    20422035.1894
  20595313.819    -3535369.442 9  -2640750.29648  20595313.351    20595318.8814
  20434943.669    -2536393.907 9  -1973481.85648  20434942.923    20434949.7674
  23226235.177    -5055923.367 8  -3929456.74346  23226234.732    23226243.6564
  22095247.610    -1254591.049 8   -977852.44647  22095247.608    22095254.8044
 01  7 12 17 27  0.0000000  0  9 22 23 06 03 17 18 15 21 26
  22983676.690     -178598.183 8   -143137.87146  22983675.902    22983684.0194
  20555465.190    -1516962.512 9  -1181948.00248  20555464.598    20555471.1184
  21786677.672     2165469.093 8   1662978.98347  21786677.397    21786684.7814
  23736718.081    -5746744.535 8  -4465066.50145  23736717.593    23736726.2964
  20422743.921    -1235572.425 9   -964209.11348  20422743.329    20422750.2684
  20587172.809    -3578151.058 9  -2674086.61248  20587172.277    20587177.7974
  20430228.803    -2561170.796 9  -1992788.51948  20430228.048    20430234.9274
  23210347.902    -5139411.671 8  -3994512.53146  23210347.421    23210356.2954
  22097542.588    -1242530.931 8   -968454.96647  22097542.639    22097549.8214
 01  7 12 17 27 30.0000000  0  9 22 23 06 03 17 18 15 21 26
  22989981.039     -145468.805 8   -117322.83046  22989980.267    22989988.4004
  20555939.616    -1514469.499 9  -1180005.40748  20555939.009    20555945.5124
  21802160.047     2246829.275 8   1726376.47447  21802159.809    21802167.2534
  23718136.255    -5844392.162 8  -4541155.51745  23718135.826    23718144.5924
  20423509.180    -1231551.011 9   -961075.56448  20423508.569    20423515.5394
  20579122.160    -3620457.817 9  -2707052.91348  20579121.640    20579127.1174
  20425567.711    -2585664.917 9  -2011874.84548  20425566.954    20425573.8404
  23194504.179    -5222671.094 8  -4059389.93046  23194503.619    23194512.5084
  22099959.660    -1229829.282 8   -958557.59847  22099959.637    22099966.8774
 01  7 12 17 28  0.0000000  0  9 22 23 06 03 17 18 15 21 26
  22996378.796     -111848.843 8    -91125.51846  22996377.999    22996386.0964
  20556498.898    -1511530.548 9  -1177715.32248  20556498.302    20556504.7584
  21817711.256     2328550.990 8   1790055.67147  21817710.993    21817718.4454
  23699587.365    -5941866.932 8  -4617109.84145  23699586.987    23699595.7734
  20424324.807    -1227264.995 9   -957735.82548  20424324.204    20424331.1594
  20571161.988    -3662288.692 9  -2739648.39048  20571161.501    20571166.9284
  20420960.634    -2609875.305 9  -2030740.08148  20420959.874    20420966.7624
  23178704.407    -5305699.641 8  -4124087.44846  23178703.867    23178712.7254
  22102498.715    -1216485.812 8   -948160.10046  22102498.719    22102505.9824
 01  7 12 17 28 30.0000000  0  9 22 23 06 03 17 18 15 21 26
  23002869.566      -77740.538 8    -64547.67746  23002868.616    23002876.7024
  20557142.838    -1508147.040 9  -1175078.83548  20557142.226    20557148.6764
  21833330.859     2410632.112 8   1854014.93147  21833330.590    21833338.0214
  23681071.898    -6039167.128 8  -4692928.15245  23681071.355    23681080.0814
  20425190.756    -1222714.583 9   -954190.06148  20425190.175    20425197.0764
  20563292.395    -3703643.586 9  -2771872.97848  20563291.939    20563297.3674
  20416407.536    -2633802.249 9  -2049384.44448  20416406.766    20416413.6404
  23162948.609    -5388496.785 8  -4188604.63846  23162948.045    23162956.9764
  22105159.940    -1202501.068 8   -937262.91947  22105159.917    22105167.2624
 01  7 12 17 29  0.0000000  0  9 22 23 06 03 17 18 15 21 26
  23009452.804      -43145.513 8    -37590.56546  23009451.897    23009459.9074
  20557871.043    -1504320.309 9  -1172096.97848  20557870.442    20557876.8864
  21849018.543     2493070.995 8   1918252.95347  21849018.259    21849025.6714
  23662589.886    -6136290.955 8  -4768609.02145  23662589.330    23662597.9404
  20426106.977    -1217899.925 9   -950438.39548  20426106.401    20426113.3044
  20555513.432    -3744522.360 9  -2803726.56148  20555512.994    20555518.4074
  20411908.288    -2657445.845 9  -2067808.02548  20411907.520    20411914.3874
  23147236.995    -5471061.840 8  -4252940.98646  23147236.501    23147245.3244
  22107943.066    -1187875.633 8   -925866.48646  22107943.039    22107950.3214
 01  7 12 17 29 30.0000000  0  9 22 23 06 03 17 18 15 21 26
  23016128.480       -8064.907 8    -10255.08846  23016127.596    23016135.6184
  20558683.538    -1500050.699 9  -1168770.01648  20558682.940    20558689.3904
  21864774.086     2575866.712 8   1982769.04047  21864773.842    21864781.2144
  23644141.876    -6233235.468 8  -4844150.15245  23644141.422    23644149.9814
  20427073.666    -1212820.295 9   -946480.25448  20427073.062    20427079.9414
  20547825.245    -3784924.053 9  -2835208.39348  20547824.807    20547830.2144
  20407463.143    -2680805.089 9  -2086010.03148  20407462.408    20407469.2994
  23131569.819    -5553393.378 8  -4317095.37246  23131569.398    23131578.1554
  22110848.212    -1172609.122 8   -913970.51746  22110848.169    22110855.3954
 01  7 12 17 30  0.0000000  0  9 22 23 06 03 17 18 15 21 26
  23022895.928       27498.593 8     17456.68446  23022895.112    23022903.1454
  20559580.022    -1495339.678 9  -1165099.09948  20559579.429    20559585.8894
  21880597.179     2659017.368 8   2047561.69747  21880596.998    21880604.3324
  23625728.570    -6329998.340 8  -4919549.75345  23625728.068    23625736.6284
  20428090.619    -1207475.910 9   -942315.81648  20428090.028    20428096.9494
  20540227.821    -3824848.901 9  -2866318.66548  20540227.367    20540232.7754
  20403072.155    -2703879.942 9  -2103990.43248  20403071.428    20403078.3144
  23115947.252    -5635490.730 8  -4381067.28846  23115946.783    23115955.5234
  22113875.144    -1156702.300 8   -901575.60046  22113875.143    22113882.4274
 01  7 12 17 30 30.0000000  0  9 22 23 06 03 17 18 15 21 26
  23029755.044       63542.785 8     45543.00546  23029754.152    23029762.1534
  20560560.352    -1490188.167 9  -1161084.94848  20560559.741    20560566.2214
  21896487.644     2742521.458 8   2112629.75247  21896487.387    21896494.7104
  23607350.225    -6426577.412 8  -4994806.12145  23607349.762    23607358.2074
  20429158.015    -1201866.639 9   -937944.97148  20429157.469    20429164.3984
  20532721.182    -3864296.422 9  -2897056.99348  20532720.743    20532726.1734
  20398735.360    -2726670.157 9  -2121749.03948  20398734.610    20398741.5394
  23100369.486    -5717352.797 8  -4444855.85546  23100368.957    23100377.6504
  22117023.887    -1140155.343 8   -888681.88146  22117023.923    22117031.2284
 01  7 12 17 31  0.0000000  0  9 22 23 06 03 17 18 15 21 26
  23036705.287      100065.837 8     74002.46146  23036704.391    23036712.3184
  20561624.225    -1484597.627 9  -1156728.69548  20561623.614    20561630.0754
  21912444.929     2826377.121 8   2177971.76847  21912444.640    21912452.0004
  23589007.319    -6522970.630 8  -5069917.68345  23589006.780    23589015.1544
  20430275.847    -1195992.385 9   -933367.64548  20430275.305    20430282.2194
  20525305.429    -3903266.405 9  -2927423.21248  20525304.967    20525310.4194
  20394452.701    -2749175.467 9  -2139285.64348  20394451.955    20394458.9124
  23084836.570    -5798978.741 8  -4508460.42946  23084836.060    23084844.7504
  22120294.358    -1122968.892 8   -875289.85946  22120294.389    22120301.7234
 01  7 12 17 31 30.0000000  0  9 22 23 06 03 17 18 15 21 26
  23043746.369      137066.700 8    102834.24946  23043745.517    23043753.3904
  20562771.525    -1478568.586 9  -1152030.74948  20562770.930    20562777.4004
  21928468.832     2910583.425 8   2243587.01047  21928468.587    21928475.9894
  23570700.026    -6619174.861 8  -5144881.96846  23570699.744    23570708.0494
  20431444.287    -1189852.472 9   -928583.30948  20431443.746    20431450.5864
  20517980.727    -3941758.010 9  -2957416.66448  20517980.268    20517985.7294
  20390224.492    -2771394.911 9  -2156599.48948  20390223.742    20390230.6724
  23069348.956    -5880367.105 8  -4571879.88046  23069348.343    23069357.0704
  22123686.663    -1105142.719 8   -861399.34347  22123686.710    22123693.9904
 01  7 12 17 32  0.0000000  0  9 22 23 06 03 17 18 15 21 26
  23050877.986      174543.235 8    132036.68846  23050877.100    23050885.0904
  20564002.041    -1472102.229 9  -1146992.04648  20564001.438    20564007.8944
  21944559.009     2995138.487 8   2309473.99647  21944558.848    21944566.2944
  23552429.340    -6715187.947 8  -5219697.32446  23552429.023    23552437.3694
  20432663.285    -1183446.984 9   -923592.02748  20432662.732    20432669.5484
  20510747.039    -3979771.207 9  -2987037.33748  20510746.576    20510752.0484
  20386050.636    -2793328.623 9  -2173690.69448  20386049.911    20386056.7784
  23053906.555    -5961517.362 8  -4635113.80046  23053905.913    23053914.6184
  22127200.539    -1086677.415 8   -847010.80947  22127200.548    22127207.9194
 01  7 12 17 32 30.0000000  0  9 22 23 06 03 17 18 15 21 26
  23058099.633      212492.777 8    161607.69146  23058098.740    23058106.6864
  20565315.521    -1465199.792 9  -1141613.53948  20565314.919    20565321.4054
  21960715.383     3080040.544 8   2375631.37347  21960715.203    21960722.6554
  23534195.371    -6811007.984 8  -5294362.24446  23534195.116    23534203.3364
  20433932.809    -1176775.837 9   -918393.74548  20433932.263    20433939.0344
  20503604.429    -4017305.761 9  -3016285.04448  20503603.990    20503609.4584
  20381931.239    -2814976.381 9  -2190559.07448  20381930.523    20381937.3954
  23038509.545    -6042428.442 8  -4698161.34746  23038508.973    23038517.6924
  22130835.891    -1067573.640 8   -832124.77247  22130835.891    22130843.2984
 01  7 12 17 33  0.0000000  0  9 22 23 06 03 17 18 15 21 26
  23065410.849      250913.132 8    191545.56346  23065409.879    23065417.8994
  20566711.765    -1457862.518 9  -1135896.19648  20566711.172    20566717.6754
  21976937.496     3165287.961 8   2442057.86847  21976937.293    21976944.7714
  23515998.780    -6906632.314 8  -5368874.65846  23515998.443    23516006.6054
  20435252.931    -1169838.903 9   -912988.35648  20435252.349    20435259.1324
  20496552.919    -4054361.538 9  -3045159.67848  20496552.512    20496557.9894
  20377866.292    -2836337.856 9  -2207204.37648  20377865.547    20377872.4334
  23023158.393    -6123099.298 8  -4761021.71146  23023157.720    23023166.4984
  22134592.664    -1047831.804 8   -816741.52747  22134592.670    22134600.0224
 01  7 12 17 33 30.0000000  0  9 22 23 06 03 17 18 15 21 26
  23072811.334      289802.465 8    221848.87746  23072810.405    23072818.4304
  20568190.473    -1450091.911 9  -1129841.19148  20568189.878    20568196.4144
  21993225.014     3250878.743 8   2508751.91847  21993224.777    21993232.1904
  23497839.699    -7002059.079 8  -5443233.13946  23497839.344    23497847.4954
  20436623.530    -1162636.445 9   -907376.06448  20436622.960    20436629.7614
  20489592.549    -4090938.678 9  -3073661.34748  20489592.101    20489597.5954
  20373855.769    -2857413.089 9  -2223626.63548  20373855.064    20373861.9404
  23007852.925    -6203529.776 8  -4823694.76946  23007852.275    23007861.0144
  22138470.671    -1027452.809 8   -800861.80147  22138470.676    22138478.0224
 01  7 12 17 34  0.0000000  0  9 22 23 06 03 17 18 15 21 26
  23080300.823      329159.715 8    252516.81046  23080299.931    23080307.9084
  20569751.591    -1441888.181 9  -1123448.68948  20569751.018    20569757.5754
  22009577.690     3336812.073 8   2575712.88447  22009577.426    22009584.8344
  23479718.648    -7097285.122 8  -5517435.21346  23479718.389    23479726.5884
  20438044.850    -1155167.474 9   -901556.10348  20438044.266    20438051.0464
  20482723.458    -4127035.973 9  -3101789.11348  20482723.056    20482728.5444
  20369900.040    -2878200.729 9  -2239824.79648  20369899.312    20369906.1634
  22992593.457    -6283717.901 8  -4886178.98146  22992592.869    22992601.7104
  22142469.975    -1006436.505 8   -784485.47947  22142470.027    22142477.3094
 01  7 12 17 34 30.0000000  0  9 22 23 06 03 17 18 15 21 26
  23087878.801      368982.405 8    283547.41746  23087877.935    23087885.9984
  20571394.851    -1433252.707 9  -1116719.76148  20571394.290    20571400.8654
  22025995.107     3423086.104 8   2642939.33447  22025994.861    22026002.2724
  23461636.329    -7192308.272 8  -5591479.17646  23461636.037    23461644.2894
  20439516.847    -1147431.960 9   -895528.44448  20439516.277    20439523.0994
  20475945.659    -4162653.543 9  -3129543.05848  20475945.238    20475950.7274
  20365998.967    -2898700.974 9  -2255799.01048  20365998.263    20366005.1014
  22977380.287    -6363662.845 8  -4948473.68946  22977379.751    22977388.6334
  22146590.450     -984783.560 8   -767613.06147  22146590.455    22146597.7384
 01  7 12 17 35  0.0000000  0  9 22 23 06 03 17 18 15 21 26
  23095544.876      409268.084 8    314938.78446  23095544.067    23095552.1254
  20573120.107    -1424186.559 9  -1109655.24548  20573119.536    20573126.1274
  22042477.000     3509699.347 8   2710430.10447  22042476.831    22042484.2544
  23443592.867    -7287126.230 8  -5665363.25746  23443592.629    23443600.9914
  20441039.660    -1139429.674 9   -889292.91648  20441039.073    20441045.9254
  20469259.213    -4197791.026 9  -3156922.91748  20469258.797    20469264.2794
  20362152.705    -2918913.365 9  -2271548.93148  20362151.985    20362158.8144
  22962213.576    -6443363.872 8  -5010578.35546  22962213.041    22962221.9354
  22150831.894     -962494.336 8   -750244.85047  22150831.938    22150839.2644
 01  7 12 17 35 30.0000000  0  9 22 23 06 03 17 18 15 21 26
  23103298.826      450014.699 8    346689.32946  23103297.979    23103306.0744
  20574927.023    -1414691.124 9  -1102256.22148  20574926.465    20574933.0594
  22059023.231     3596649.889 8   2778183.69847  22059022.976    22059030.4374
  23425589.045    -7381736.634 8  -5739085.60346  23425588.763    23425597.1174
  20442613.191    -1131160.698 9   -882849.57848  20442612.624    20442619.4824
  20462664.152    -4232448.557 9  -3183928.78348  20462663.743    20462669.1704
  20358361.112    -2938838.060 9  -2287074.66748  20358360.420    20358367.2534
  22947093.419    -6522820.353 8  -5072492.45146  22947092.928    22947101.8414
  22155194.349     -939569.955 8   -732381.69347  22155194.328    22155201.6564
 01  7 12 17 36  0.0000000  0  9 22 23 06 03 17 18 15 21 26
  23111140.037      491220.519 8    378797.71346  23111139.192    23111147.3814
  20576815.406    -1404767.614 9  -1094523.63048  20576814.857    20576821.4354
  22075633.264     3683936.081 8   2846198.83846  22075633.017    22075640.4974
  23407625.202    -7476137.061 8  -5812644.35546  23407624.998    23407633.1944
  20444237.537    -1122624.851 9   -876198.28548  20444236.969    20444243.8204
  20456160.412    -4266625.975 9  -3210560.53448  20456159.985    20456165.4444
  20354624.498    -2958474.353 9  -2302375.68048  20354623.777    20354630.5984
  22932020.087    -6602030.973 8  -5134214.96546  22932019.633    22932028.4794
  22159677.422     -916010.824 8   -714023.94847  22159677.455    22159684.8044
 01  7 12 17 36 30.0000000  0  9 22 23 06 03 17 18 15 21 26
  23119068.181      532882.986 8    411261.91046  23119067.333    23119075.5634
  20578784.924    -1394417.795 9  -1086458.84748  20578784.374    20578790.9524
  22092306.761     3771555.612 8   2914473.72346  22092306.425    22092314.0104
  23389701.932    -7570325.720 8  -5886038.05446  23389701.517    23389709.6494
  20445912.626    -1113822.417 9   -869339.26148  20445912.030    20445918.8994
  20449748.000    -4300323.386 9  -3236818.25548  20449747.584    20449753.0224
  20350942.719    -2977822.270 9  -2317451.98248  20350941.996    20350948.8264
  22916993.425    -6680995.511 8  -5195745.72046  22916993.086    22917001.9504
  22164281.219     -891818.324 8   -695172.65347  22164281.217    22164288.4754
 01  7 12 17 37  0.0000000  0  9 22 23 06 03 17 18 15 21 26
  23127082.883      575000.055 8    444080.34846  23127082.025    23127090.2754
  20580835.517    -1383642.243 9  -1078062.32348  20580834.934    20580841.4714
  22109043.320     3859507.658 8   2983007.70846  22109043.088    22109050.8474
  23371819.197    -7664299.589 8  -5959264.41746  23371818.847    23371827.0824
  20447638.569    -1104752.583 9   -862271.87548  20447638.025    20447644.8394
  20443427.041    -4333540.366 9  -3262701.61348  20443426.620    20443432.0654
  20347315.988    -2996881.022 9  -2332302.96748  20347315.267    20347322.0714
  22902014.096    -6759712.455 8  -5257083.54846  22902013.716    22902022.5274
  22169005.412     -866992.250 8   -675827.68747  22169005.447    22169012.8384
 01  7 12 17 37 30.0000000  0  9 22 23 06 03 17 18 15 21 26
  23135183.581      617569.411 8    477251.20446  23135182.656    23135191.0614
  20582966.861    -1372442.161 9  -1069335.00148  20582966.299    20582972.8074
  22125842.972     3947790.370 8   3051799.35746  22125842.817    22125850.6064
  23353977.765    -7758056.366 8  -6032321.59846  23353977.488    23353985.8014
  20449415.449    -1095415.216 9   -854996.02248  20449414.895    20449421.7124
  20437197.530    -4366276.817 9  -3288210.53848  20437197.083    20437202.4954
  20343744.336    -3015650.246 9  -2346928.34048  20343743.619    20343750.4234
  22887081.958    -6838181.287 8  -5318228.03846  22887081.623    22887090.3224
  22173850.081     -841533.565 8   -655989.77047  22173850.103    22173857.4524
 01  7 12 17 38  0.0000000  0  9 22 23 06 03 17 18 15 21 26
  23143369.867      660588.961 8    510772.84746  23143369.059    23143377.4604
  20585178.708    -1360818.979 9  -1060277.98848  20585178.148    20585184.6474
  22142705.239     4036401.514 8   3120846.92246  22142705.004    22142712.8364
  23336178.208    -7851593.758 8  -6105207.84846  23336177.880    23336186.1814
  20451243.235    -1085810.425 9   -847511.78548  20451242.669    20451249.4784
  20431059.420    -4398532.781 9  -3313345.05448  20431058.962    20431064.4404
  20340227.773    -3034129.959 9  -2361328.12448  20340227.074    20340233.8224
  22872197.141    -6916401.451 8  -5379178.76446  22872196.778    22872205.4454
  22178814.946     -815443.278 8   -635659.70447  22178814.976    22178822.3074
 01  7 12 17 38 30.0000000  0  9 22 23 06 03 17 18 15 21 26
  23151641.646      704057.208 8    544644.14046  23151640.842    23151649.2794
  20587470.894    -1348773.719 9  -1050892.08348  20587470.321    20587476.8024
  22159629.680     4125339.723 8   3190149.35046  22159629.497    22159637.3344
  23318420.856    -7944909.189 8  -6177921.13546  23318420.523    23318428.8484
  20453121.942    -1075937.701 9   -839818.77248  20453121.399    20453128.2024
  20425012.812    -4430307.831 9  -3338104.83448  20425012.348    20425017.8564
  20336766.442    -3052319.525 9  -2375501.81648  20336765.730    20336772.4574
  22857360.005    -6994371.234 8  -5439934.37746  22857359.609    22857368.2684
  22183899.912     -788721.912 8   -614837.88547  22183899.935    22183907.2394
 01  7 12 17 39  0.0000000  0  9 22 23 06 03 17 18 15 21 26
  23159998.226      747971.108 8    578862.72546  23159997.378    23160005.8004
  20589842.956    -1336308.381 9  -1041178.84248  20589842.379    20589848.8994
  22176615.986     4214602.759 8   3259704.88246  22176615.808    22176623.6244
  23300706.070    -8038000.739 8  -6250459.95946  23300705.767    23300714.1054
  20455051.643    -1065797.460 9   -831917.30248  20455051.063    20455057.8584
  20419057.643    -4461602.478 9  -3362490.26848  20419057.201    20419062.6854
  20333360.220    -3070219.376 9  -2389449.75448  20333359.518    20333366.2644
  22842570.521    -7072090.601 8  -5500494.88246  22842570.118    22842578.6834
  22189104.606     -761370.807 8   -593525.36847  22189104.703    22189111.9744
 01  7 12 17 39 30.0000000  0  9 22 23 06 03 17 18 15 21 26
  23168439.212      792328.397 8    613426.81646  23168438.364    23168446.7484
  20592294.856    -1323423.593 9  -1031138.76048  20592294.281    20592300.7904
  22193663.788     4304189.379 8   3329512.54746  22193663.586    22193671.4364
  23283034.521    -8130865.589 8  -6322822.15546  23283034.121    23283042.4104
  20457032.287    -1055389.148 9   -823806.94648  20457031.722    20457038.5184
  20413193.958    -4492416.247 9  -3386500.99848  20413193.530    20413198.9884
  20330009.306    -3087828.665 9  -2403171.28648  20330008.608    20330015.3464
  22827828.953    -7149558.221 8  -5560859.20346  22827828.524    22827837.0684
  22194429.173     -733390.400 8   -571722.47447  22194429.236    22194436.5114
 01  7 12 17 40  0.0000000  0  9 22 23 06 03 17 18 15 21 26
  23176964.260      837126.678 8    648334.51046  23176963.352    23176971.6504
  20594826.265    -1310120.955 9  -1020773.08648  20594825.709    20594832.2314
  22210772.847     4394097.461 8   3399570.69746  22210772.612    22210780.4854
  23265406.387    -8223501.733 8  -6395006.13346  23265406.034    23265414.2854
  20459063.898    -1044712.735 9   -815487.68648  20459063.365    20459070.1704
  20407421.717    -4522749.659 9  -3410137.42048  20407421.266    20407426.7604
  20326713.616    -3105147.399 9  -2416666.41048  20326712.959    20326719.7384
  22813135.416    -7226773.672 8  -5621027.04146  22813134.935    22813143.3544
  22199873.286     -704781.903 8   -549430.17447  22199873.317    22199880.5484
 01  7 12 17 40 30.0000000  0  9 22 23 06 03 17 18 15 21 26
  23185572.821      882364.323 8    683584.54546  23185571.843    23185580.0554
  20597436.956    -1296401.474 9  -1010082.60148  20597436.402    20597442.9394
  22227942.722     4484325.459 8   3469878.13546  22227942.526    22227950.3934
  23247822.464    -8315906.491 8  -6467009.78746  23247821.968    23247830.1944
  20461146.675    -1033767.868 9   -806959.23748  20461146.113    20461152.9124
  20401740.957    -4552602.477 9  -3433399.35048  20401740.489    20401745.9914
  20323473.398    -3122174.889 9  -2429934.59348  20323472.753    20323479.5264
  22798489.951    -7303736.040 8  -5680997.65646  22798489.405    22798497.8354
  22205436.617     -675545.981 8   -526648.95647  22205436.696    22205443.9784
 01  7 12 17 41  0.0000000  0  9 22 23 06 03 17 18 15 21 26
  23194264.452      928039.407 8    719175.46146  23194263.595    23194271.7654
  20600126.810    -1282266.369 9   -999068.24848  20600126.269    20600132.7954
  22245173.357     4574871.837 8   3540433.66646  22245173.117    22245180.9084
  23230282.949    -8408077.248 8  -6538831.12246  23230282.450    23230290.6954
  20463280.554    -1022554.261 9   -798221.37748  20463280.006    20463286.8174
  20396151.742    -4581974.054 9  -3456286.29048  20396151.308    20396156.7914
  20320288.698    -3138910.545 9  -2442975.37048  20320288.067    20320294.8434
  22783892.832    -7380444.043 8  -5740770.08546  22783892.379    22783900.7414
  22211119.327     -645683.290 8   -503379.34547  22211119.382    22211126.6874
 01  7 12 17 41 30.0000000  0  9 22 23 06 03 17 18 15 21 26
  23203038.787      974148.919 8    755104.88146  23203037.981    23203046.1974
  20602895.483    -1267717.073 9   -987731.15448  20602894.922    20602901.4584
  22262464.123     4665734.588 8   3611235.71846  22262463.907    22262471.6044
  23212788.286    -8500011.866 8  -6610468.45146  23212787.842    23212796.0614
  20465465.589    -1011071.834 9   -789274.05148  20465465.053    20465471.8714
  20390653.979    -4610864.971 9  -3478798.69048  20390653.534    20390659.0224
  20317159.583    -3155354.556 9  -2455788.89248  20317158.904    20317165.7064
  22769344.333    -7456897.290 8  -5800343.99246  22769343.831    22769352.1864
  22216921.055     -615195.113 8   -479622.34547  22216921.076    22216928.4774
 01  7 12 17 42  0.0000000  0  9 22 23 06 03 17 18 15 21 26
  23211895.564     1020690.755 8    791371.19146  23211894.660    23211902.8824
  20605742.761    -1252754.643 9   -976072.13548  20605742.192    20605748.7184
  22279814.920     4756912.478 8   3682283.32246  22279814.615    22279822.2324
  23195339.067    -8591707.429 8  -6681919.49746  23195338.731    23195346.9044
  20467701.902     -999320.003 9   -780116.79848  20467701.385    20467708.1944
  20385247.706    -4639274.928 9  -3500936.31748  20385247.267    20385252.7814
  20314086.109    -3171505.944 9  -2468374.39848  20314085.401    20314092.2134
  22754844.381    -7533094.941 8  -5859718.73646  22754843.850    22754852.2194
  22222841.695     -584081.919 8   -455378.31647  22222841.776    22222849.1404
 01  7 12 17 42 30.0000000  0  9 22 23 06 03 17 18 15 21 26
  23220834.051     1067662.840 8    827972.74846  23220833.212    23220841.5704
  20608668.348    -1237380.530 9   -964092.32848  20608667.796    20608674.3684
  22297225.001     4848403.146 8   3753574.66346  22297224.812    22297232.3694
  23177935.988    -8683161.712 8  -6753182.52846  23177935.539    23177943.6194
  20469989.541     -987298.838 9   -770749.67548  20469988.952    20469995.7514
  20379932.982    -4667203.954 9  -3522699.19148  20379932.576    20379938.0744
  20311068.279    -3187364.703 9  -2480731.88348  20311067.570    20311074.3604
  22740393.132    -7609036.440 8  -5918893.88346  22740392.624    22740400.9614
  22228881.090     -552345.112 8   -430648.35446  22228881.116    22228888.4314
 01  7 12 17 43  0.0000000  0  9 22 23 06 03 17 18 15 21 26
  23229854.105     1115062.812 8    864907.72646  23229853.138    23229861.5314
  20611671.959    -1221596.359 9   -951792.99048  20611671.427    20611678.0074
  22314694.289     4940204.610 8   3825108.17746  22314694.138    22314701.6524
  23160579.102    -8774372.787 8  -6824256.06746  23160578.665    23160586.6404
  20472328.364     -975008.535 9   -761172.83448  20472327.782    20472334.5704
  20374709.695    -4694652.616 9  -3544087.76048  20374709.262    20374714.7394
  20308106.117    -3202930.640 9  -2492861.19348  20308105.441    20308112.2924
  22725990.856    -7684720.674 8  -5977868.56246  22725990.364    22725998.6824
  22235038.761     -519985.961 8   -405433.44847  22235038.853    22235046.2054
 01  7 12 17 43 30.0000000  0  9 22 23 06 03 17 18 15 21 26
  23238955.113     1162888.502 8    902174.42946  23238954.166    23238962.5684
  20614753.438    -1205403.010 9   -939174.81648  20614752.924    20614759.5614
  22332222.570     5032315.459 8   3896882.77146  22332222.354    22332229.8404
  23143269.026    -8865337.444 8  -6895137.58446  23143268.619    23143276.5434
  20474718.510     -962448.221 9   -751385.59448  20474717.948    20474724.7394
  20369577.892    -4721620.575 9  -3565101.75248  20369577.485    20369582.9394
  20305199.830    -3218202.995 9  -2504761.74548  20305199.203    20305206.0334
  22711637.668    -7760146.694 8  -6036642.04346  22711637.231    22711645.5374
  22241314.909     -487004.975 8   -379733.98847  22241314.998    22241322.3064
 01  7 12 17 44  0.0000000  0  9 22 23 06 03 17 18 15 21 26
  23248136.498     1211136.715 8    939770.37446  23248135.571    23248144.0474
  20617912.498    -1188802.285 9   -926239.20548  20617911.957    20617918.5884
  22349809.330     5124733.385 8   3968896.63746  22349809.009    22349816.5754
  23126005.986    -8956053.712 8  -6965825.54246  23126005.849    23126013.7904
  20477159.980     -949618.287 9   -741388.26048  20477159.427    20477166.2014
  20364537.463    -4748108.095 9  -3585741.37648  20364537.074    20364542.5354
  20302349.463    -3233181.970 9  -2516433.68648  20302348.826    20302355.6614
  22697333.811    -7835314.051 8  -6095213.96546  22697333.353    22697341.6874
  22247709.156     -453403.730 8   -353551.21546  22247709.132    22247716.4474
 01  7 12 17 44 30.0000000  0  9 22 23 06 03 17 18 15 21 26
  23257397.948     1259806.017 8    977694.44146  23257397.099    23257405.5324
  20621148.932    -1171794.796 9   -912986.63548  20621148.376    20621155.0224
  22367454.059     5217457.353 8   4041148.97446  22367453.844    22367461.4784
  23108791.096    -9046518.564 8  -7036317.61046  23108790.927    23108798.8814
  20479652.963     -936517.721 9   -731180.04248  20479652.362    20479659.1424
  20359588.616    -4774114.657 9  -3606006.22848  20359588.210    20359593.6494
  20299555.179    -3247866.417 9  -2527876.12348  20299554.501    20299561.3504
  22683079.286    -7910221.525 8  -6153583.37746  22683078.841    22683087.2054
  22254221.136     -419182.709 8   -326885.50346  22254221.183    22254228.4794
 01  7 12 17 45  0.0000000  0  9 22 23 06 03 17 18 15 21 26
  23266738.916     1308893.004 8   1015943.97846  23266738.063    23266746.6434
  20624462.289    -1154383.275 9   -899419.23548  20624461.732    20624468.3484
  22385156.506     5310484.104 8   4113637.25646  22385156.278    22385163.9694
  23091624.281    -9136731.093 8  -7106613.06146  23091624.041    23091632.0244
  20482197.139     -923147.847 9   -720761.97148  20482196.580    20482203.3454
  20354730.931    -4799642.043 9  -3625897.69448  20354730.533    20354735.9524
  20296816.677    -3262257.388 9  -2539089.87848  20296816.017    20296822.8434
  22668874.255    -7984869.661 8  -6211750.72946  22668873.765    22668882.0914
  22260850.628     -384344.425 8   -299738.80246  22260850.684    22260858.0384
 01  7 12 17 45 30.0000000  0  9 22 23 06 03 17 18 15 21 26
  23276159.559     1358397.861 8   1054519.13746  23276158.611    23276167.1584
  20627852.765    -1136566.587 9   -885536.12348  20627852.185    20627858.7654
  22402916.676     5403814.177 8   4186361.87746  22402916.513    22402924.1924
  23074506.278    -9226686.284 8  -7176707.98046  23074506.102    23074514.1354
  20484793.132     -909505.924 9   -710131.91948  20484792.603    20484799.3324
  20349964.910    -4824687.818 9  -3645413.88348  20349964.503    20349969.9114
  20294134.575    -3276352.084 9  -2550072.77348  20294133.913    20294140.7684
  22654718.978    -8059255.491 8  -6269713.66846  22654718.535    22654726.9384
  22267597.880     -348887.525 8   -272110.06846  22267597.932    22267605.2824
 01  7 12 17 46  0.0000000  0  9 22 23 06 03 17 18 15 21 26
  23285658.527     1408315.927 8   1093416.26146  23285657.665    23285666.3774
  20631319.694    -1118347.972 9   -871339.81948  20631319.125    20631325.6814
  22420734.014     5497444.014 8   4259320.08846  22420733.749    22420741.4364
  23057437.362    -9316383.348 8  -7246601.76946  23057437.268    23057445.3424
  20487440.562     -895593.481 9   -699291.07348  20487440.050    20487446.7914
  20345290.126    -4849254.026 9  -3664556.38548  20345289.709    20345295.1444
  20291508.556    -3290151.993 9  -2560825.96748  20291507.861    20291514.7614
  22640613.593    -8133379.603 8  -6327472.68346  22640613.130    22640621.5924
  22274462.263     -312815.189 8   -244001.76546  22274462.251    22274469.6414
 01  7 12 17 46 30.0000000  0  9 22 23 06 03 17 18 15 21 26
  23295235.829     1458644.907 8   1132633.58646  23295234.995    23295243.6684
  20634862.905    -1099728.443 9   -856831.11348  20634862.322    20634868.8784
  22438608.016     5591372.190 8   4332510.76546  22438607.775    22438615.4644
  23040418.283    -9405819.670 8  -7316292.36746  23040418.070    23040426.1714
  20490139.612     -881410.049 9   -688239.06848  20490139.102    20490145.8144
  20340706.646    -4873340.302 9  -3683324.90848  20340706.252    20340711.6754
  20288938.739    -3303656.311 9  -2571348.82448  20288938.090    20288944.9884
  22626558.050    -8207241.579 8  -6385027.43146  22626557.600    22626566.1104
  22281443.390     -276128.036 8   -215414.40146  22281443.507    22281450.9354
 01  7 12 17 47  0.0000000  0  9 22 23 06 03 17 18 15 21 26
  23304890.841     1509382.563 8   1172169.35346  23304890.070    23304898.8144
  20638482.042    -1080709.610 9   -842011.26348  20638481.497    20638488.0714
  22456538.470     5685596.518 8   4405932.20446  22456538.182    22456545.9184
  23023449.211    -9494993.142 8  -7385778.16246  23023448.918    23023457.0234
  20492890.224     -866955.534 9   -676975.82448  20492889.698    20492896.4734
  20336214.443    -4896947.020 9  -3701719.75248  20336214.052    20336219.4434
  20286425.219    -3316864.933 9  -2581641.27248  20286424.551    20286431.4624
  22612552.628    -8280840.589 8  -6442377.27146  22612552.166    22612560.7054
  22288541.477     -238827.540 8   -186349.09346  22288541.604    22288549.0824
 01  7 12 17 47 30.0000000  0  9 22 23 06 03 17 18 15 21 26
  23314623.240     1560526.578 8   1212021.76946  23314622.482    23314631.1934
  20642176.899    -1061293.200 9   -826881.60948  20642176.349    20642182.9254
  22474524.672     5780114.791 8   4479582.69046  22474524.470    22474532.3014
  23006530.557    -9583901.238 8  -7455057.16446  23006530.300    23006538.3364
  20495692.426     -852229.921 9   -665501.33948  20495691.898    20495698.6754
  20331813.447    -4920074.510 9  -3719741.16948  20331813.049    20331818.4304
  20283967.973    -3329777.930 9  -2591703.35948  20283967.312    20283974.2404
  22598597.429    -8354175.622 8  -6499521.41646  22598596.957    22598605.4684
  22295756.058     -200915.228 8   -156807.03446  22295756.129    22295763.5904
 01  7 12 17 48  0.0000000  0  9 22 23 06 03 17 18 15 21 26
  23324432.559     1612074.593 8   1252188.98246  23324431.812    23324440.5544
  20645947.119    -1041480.368 9   -811443.06248  20645946.629    20645953.2154
  22492566.589     5874925.394 8   4553460.96946  22492566.450    22492574.2444
  22989663.047    -9672541.323 8  -7524127.32646  22989662.668    22989670.6804
  20498546.293     -837232.873 9   -653815.34648  20498545.752    20498552.5634
  20327503.508    -4942723.071 9  -3737389.39348  20327503.142    20327508.5454
  20281567.184    -3342394.484 9  -2601534.45748  20281566.504    20281573.4114
  22584692.485    -8427246.443 8  -6556459.67846  22584692.013    22584700.5214
  22303086.796     -162392.274 8   -126789.16446  22303086.884    22303094.2454
 01  7 12 17 48 30.0000000  0  9 22 23 06 03 17 18 15 21 26
  23334318.194     1664023.329 8   1292668.46246  23334317.368    23334326.1634
  20649792.574    -1021272.719 9   -795696.86048  20649792.046    20649798.6164
  22510663.870     5970026.097 8   4627565.29946  22510663.602    22510671.5084
  22972846.664    -9760911.087 8  -7592986.85846  22972846.400    22972854.4634
  20501451.788     -821964.396 9   -641917.85048  20501451.261    20501458.0824
  20323284.698    -4964893.145 9  -3754664.77448  20323284.343    20323289.7474
  20279222.734    -3354714.754 9  -2611134.68348  20279222.037    20279228.9604
  22570837.973    -8500052.506 8  -6613191.62746  22570837.474    22570846.0114
  22310533.426     -123260.227 8    -96296.67246  22310533.499    22310540.7834
 01  7 12 17 49  0.0000000  0  9 22 23 06 03 17 18 15 21 26
  23344279.641     1716371.210 8   1333458.94846  23344278.842    23344287.6244
  20653712.965    -1000670.819 9   -779643.45348  20653712.432    20653719.0484
  22528815.915     6065415.957 8   4701894.94546  22528815.755    22528823.6804
  22956082.384    -9849007.360 8  -7661633.26946  22956082.195    22956090.3164
  20504409.107     -806423.363 9   -629807.97048  20504408.633    20504415.4444
  20319157.117    -4986583.936 9  -3771566.68448  20319156.730    20319162.1024
  20276934.878    -3366737.408 9  -2620502.99648  20276934.190    20276941.1104
  22557034.159    -8572592.196 8  -6669716.02147  22557033.611    22557042.1414
  22318095.842      -83519.485 8    -65329.86546  22318095.914    22318103.2054
 01  7 12 17 49 30.0000000  0  9 22 23 06 03 17 18 15 21 26
  23354316.762     1769115.884 8   1374558.62946  23354315.894    23354324.6674
  20657708.073     -979676.563 9   -763284.31448  20657707.537    20657714.1194
  22547022.650     6161092.623 8   4776448.07346  22547022.491    22547030.4714
  22939370.638    -9936828.168 8  -7730065.03946  22939370.434    22939378.5214
  20507418.276     -790610.023 9   -617485.90948  20507417.790    20507424.6354
  20315120.538    -5007796.317 9  -3788095.81448  20315120.145    20315125.4784
  20274703.674    -3378462.458 9  -2629639.41148  20274703.005    20274709.9284
  22543281.036    -8644865.067 8  -6726032.50247  22543280.552    22543289.0464
  22325773.773      -43171.863 8    -33890.16046  22325773.848    22325781.1504
 01  7 12 17 50  0.0000000  0  9 22 23 06 03 17 18 15 21 26
  23364428.848     1822254.629 8   1415965.38346  23364427.913    23364436.6414
  20661777.505     -958291.701 9   -746620.80248  20661776.949    20661783.5554
  22565283.503     6257053.918 8   4851222.98746  22565283.380    22565291.5164
  22922711.672   -10024371.263 8  -7798280.40746  22922711.527    22922719.5964
  20510479.305     -774524.445 9   -604951.70648  20510478.801    20510485.6724
  20311174.925    -5028530.643 9  -3804252.43048  20311174.536    20311179.8464
  20272529.122    -3389889.811 9  -2638543.85548  20272528.451    20272535.3864
  22529578.728    -8716871.009 8  -6782140.98147  22529578.228    22529586.6944
  22333566.747       -2219.121 8     -1978.93246  22333566.873    22333574.2474
 01  7 12 17 50 30.0000000  0  9 22 23 06 03 17 18 15 21 26
  23374615.252     1875785.069 8   1457677.35346  23374614.541    23374623.1914
  20665921.022     -936517.301 9   -729653.76148  20665920.481    20665927.0934
  22583598.211     6353298.378 8   4926218.54446  22583598.120    22583606.3724
  22906106.249   -10111633.562 8  -7866276.97246  22906106.082    22906114.1444
  20513592.253     -758165.868 9   -592204.78748  20513591.756    20513598.6414
  20307320.285    -5048786.875 9  -3820036.50948  20307319.895    20307325.2064
  20270411.375    -3401018.497 9  -2647215.57648  20270410.727    20270417.6394
  22515927.429    -8788608.916 8  -6838040.61747  22515926.958    22515935.3824
  22341474.841       39338.003 8     30403.23046  22341474.899    22341482.3164
 01  7 12 17 51  0.0000000  0  9 22 23 06 03 17 18 15 21 26
  23384875.787     1929703.779 8   1499691.87046  23384875.008    23384883.6634
  20670138.303     -914355.334 9   -712384.71648  20670137.741    20670144.3704
  22601966.256     6449823.630 8   5001432.90346  22601966.225    22601974.5964
  22889554.618   -10198613.360 8  -7934053.40546  22889554.302    22889562.4714
  20516757.072     -741534.702 9   -579245.45348  20516756.575    20516763.4694
  20303556.483    -5068565.936 9  -3835448.76148  20303556.101    20303561.4304
  20268350.500    -3411848.739 9  -2655654.73748  20268349.843    20268356.7244
  22502327.175    -8860078.701 8  -6893731.33947  22502326.704    22502335.0664
  22349497.415       81497.294 8     63254.61346  22349497.495    22349504.9774
 01  7 12 17 51 30.0000000  0  9 22 23 06 03 17 18 15 21 26
  23395209.855     1984009.239 8   1542007.75046  23395209.084    23395217.7124
  20674429.170     -891806.503 9   -694814.21848  20674428.641    20674435.3004
  22620387.581     6546628.328 8   5076865.01246  22620387.561    22620396.0374
  22873057.141   -10285307.553 8  -8001607.29746  22873056.912    22873065.1224
  20519973.927     -724630.049 9   -566073.01548  20519973.438    20519980.2924
  20299883.535    -5087867.374 9  -3850488.84248  20299883.153    20299888.4864
  20266346.532    -3422379.770 9  -2663860.74748  20266345.881    20266352.7474
  22488778.163    -8931278.873 8  -6949211.95247  22488777.703    22488786.0814
  22357634.419      124258.030 8     96574.64946  22357634.562    22357641.9794
 01  7 12 17 52  0.0000000  0  9 22 23 06 03 17 18 15 21 26
  23405616.982     2038698.617 8   1584622.77946  23405616.159    23405624.7934
  20678793.349     -868872.769 9   -676943.79648  20678792.800    20678799.4834
  22638861.632     6643709.760 8   5152512.75246  22638861.533    22638870.1794
  22856614.450   -10371714.243 8  -8068937.15246  22856614.245    22856622.4504
  20523242.765     -707452.316 9   -552687.78448  20523242.255    20523249.1144
  20296301.267    -5106692.124 9  -3865157.48048  20296300.873    20296306.2554
  20264399.501    -3432611.719 9  -2671833.70648  20264398.848    20264405.6654
  22475280.514    -9002209.323 8  -7004482.40147  22475280.067    22475288.3794
  22365885.635      167618.040 8    130361.65746  22365885.710    22365893.1394
 01  7 12 17 52 30.0000000  0  9 22 23 06 03 17 18 15 21 26
  23416096.617     2093769.320 8   1627534.96146  23416095.864    23416104.4504
  20683230.450     -845555.733 9   -658774.69848  20683229.918    20683236.6004
  22657387.875     6741066.039 8   5228374.66046  22657387.896    22657396.5904
  22840227.111   -10457830.843 8  -8136040.95746  22840226.800    22840234.9534
  20526563.588     -690001.230 9   -539089.55748  20526563.106    20526569.9844
  20292809.666    -5125040.542 9  -3879454.95048  20292809.271    20292814.6504
  20262509.426    -3442544.203 9  -2679573.31848  20262508.807    20262515.6334
  22461834.230    -9072869.636 8  -7059542.35147  22461833.806    22461842.1024
  22374250.567      211575.878 8    164614.51146  22374250.619    22374258.0334
 01  7 12 17 53  0.0000000  0  9 22 23 06 03 17 18 15 21 26
  23426648.322     2149218.209 8   1670741.80846  23426647.489    23426656.0304
  20687740.261     -821856.983 9   -640308.15848  20687739.676    20687746.3664
  22675966.368     6838694.998 8   5304449.03946  22675966.195    22675974.9004
  22823895.335   -10543654.846 8  -8202916.77946  22823895.027    22823903.0564
  20529936.479     -672276.579 9   -525278.15948  20529935.991    20529942.9054
  20289408.673    -5142912.946 9  -3893381.49948  20289408.285    20289413.6894
  20260676.432    -3452176.830 9  -2687079.27448  20260675.786    20260682.6354
  22448439.411    -9143259.533 8  -7114391.58547  22448439.029    22448447.3164
  22382728.872      256129.975 8    199331.97346  22382728.970    22382736.3364
 01  7 12 17 53 30.0000000  0  9 22 23 06 03 17 18 15 21 26
  23437271.528     2205043.316 8   1714241.81646  23437270.675    23437279.3054
  20692322.499     -797777.241 9   -621544.74048  20692321.963    20692328.5984
  22694596.204     6936595.366 8   5380734.91346  22694596.048    22694604.7884
  22807619.816   -10629183.354 8  -8269562.34546  22807619.424    22807627.4264
  20533361.620     -654277.562 9   -511252.97548  20533361.140    20533368.0624
  20286098.265    -5160309.162 9  -3906936.99348  20286097.887    20286103.3084
  20258900.690    -3461508.513 9  -2694350.72748  20258900.025    20258906.9164
  22435096.341    -9213377.750 8  -7169029.12947  22435095.937    22435104.1764
  22391320.440      301279.362 8    234513.28246  22391320.601    22391328.0054
 01  7 12 17 54  0.0000000  0  9 22 23 06 03 17 18 15 21 26
  23447965.858     2261242.155 8   1758033.06546  23447965.001    23447973.6364
  20696976.883     -773318.578 9   -602486.06448  20696976.321    20696982.9494
  22713277.363     7034764.900 8   5457230.51246  22713277.195    22713285.9294
  22791400.783   -10714414.283 8  -8335976.02546  22791400.422    22791408.4574
  20536838.919     -636004.434 9   -497014.19348  20536838.413    20536845.3484
  20282878.310    -5177230.195 9  -3920122.21648  20282877.916    20282883.3444
  20257182.154    -3470539.460 9  -2701387.84548  20257181.485    20257188.4044
  22421805.104    -9283223.863 8  -7223454.62247  22421804.658    22421812.9174
  22400025.298      347022.058 8    270156.94346  22400025.285    22400032.5914
 01  7 12 17 54 30.0000000  0  9 22 23 06 03 17 18 15 21 26
  23458730.739     2317812.181 8   1802113.52946  23458729.959    23458738.6794
  20701703.003     -748482.500 9   -583133.29248  20701702.490    20701709.0904
  22732009.455     7133201.431 8   5533934.16046  22732009.207    22732017.9154
  22775238.811   -10799345.426 8  -8402156.10146  22775238.560    22775246.6144
  20540368.456     -617456.833 9   -482561.54048  20540367.929    20540374.8584
  20279748.688    -5193676.443 9  -3932937.47448  20279748.322    20279753.7494
  20255520.998    -3479269.285 9  -2708190.31948  20255520.275    20255527.1864
  22408565.695    -9352797.223 8  -7277667.58647  22408565.243    22408573.5044
  22408842.262      393356.312 8    306261.52146  22408842.311    22408849.7004
 01  7 12 17 55  0.0000000  0  9 22 23 06 03 17 18 15 21 26
  23469565.868     2374750.862 8   1846481.26546  23469565.018    23469573.8174
  20706500.761     -723270.174 9   -563487.34348  20706500.228    20706506.8464
  22750791.968     7231903.315 8   5610844.59146  22750791.674    22750800.3864
  22759134.506   -10883973.875 8  -8468100.32246  22759134.279    22759142.3074
  20543950.249     -598634.193 9   -467894.56848  20543949.740    20543956.7054
  20276709.436    -5209647.953 9  -3945382.81148  20276709.066    20276714.4794
  20253917.240    -3487697.234 9  -2714757.56448  20253916.525    20253923.4014
  22395378.402    -9422096.753 8  -7331667.18647  22395377.972    22395386.1274
  22417771.692      440280.969 8    342826.18046  22417771.819    22417779.1674
 01  7 12 17 55 30.0000000  0  9 22 23 06 03 17 18 15 21 26
  23480470.538     2432054.790 8   1891133.61746  23480469.719    23480478.3904
  20711369.783     -697683.578 9   -543549.75348  20711369.267    20711375.8684
  22769624.449     7330868.141 8   5687959.91046  22769624.157    22769632.8834
  22743088.290   -10968297.397 8  -8533806.92046  22743088.008    22743096.0614
  20547584.290     -579536.809 9   -453013.50947  20547583.814    20547590.8484
  20273760.382    -5225145.505 9  -3957458.82648  20273759.998    20273765.3914
  20252370.870    -3495823.467 9  -2721089.70648  20252370.176    20252377.0274
  22382243.196    -9491123.020 8  -7385453.85547  22382242.706    22382250.8684
  22426813.101      487793.997 8    379849.28946  22426813.141    22426820.5944
 01  7 12 17 56  0.0000000  0  9 22 23 06 03 17 18 15 21 26
  23491444.269     2489721.984 8   1936069.00846  23491443.452    23491452.2264
  20716309.847     -671723.566 9   -523321.18948  20716309.278    20716315.9094
  22788506.483     7430094.259 8   5765278.84546  22788506.365    22788515.0654
  22727100.613   -11052313.083 8  -8599273.65646  22727100.396    22727108.3804
  20551270.814     -560163.875 9   -437917.74248  20551270.362    20551277.4204
  20270901.446    -5240169.204 9  -3969165.61048  20270901.067    20270906.4964
  20250882.071    -3503647.287 9  -2727186.20348  20250881.386    20250888.2134
  22369160.216    -9559874.538 8  -7439026.43347  22369159.723    22369167.8654
  22435966.299      535893.968 8    417329.77746  22435966.313    22435973.7294
 01  7 12 17 56 30.0000000  0  9 22 23 06 03 17 18 15 21 26
  23502486.611     2547749.609 8   1981285.27546  23502485.887    23502494.5884
  20721320.493     -645392.556 9   -502803.53548  20721319.929    20721326.5284
  22807437.955     7529579.200 8   5842799.43946  22807437.839    22807446.5224
  22711172.072   -11136019.149 8  -8664499.14246  22711171.713    22711179.5774
  20555009.767     -540515.934 9   -422607.68648  20555009.293    20555016.3484
  20268132.498    -5254720.114 9  -3980503.97848  20268132.104    20268137.5504
  20249450.814    -3511168.761 9  -2733047.10348  20249450.107    20249456.9074
  22356129.461    -9628351.470 8  -7492385.03847  22356128.994    22356137.1544
  22445230.762      584578.678 8    455265.88946  22445230.760    22445238.1744
 01  7 12 17 57  0.0000000  0  9 22 23 06 03 17 18 15 21 26
  23513597.110     2606135.303 8   2026780.54846  23513596.376    23513605.0934
  20726401.539     -618691.728 9   -481997.71448  20726400.951    20726407.5534
  22826418.359     7629321.064 8   5920520.23246  22826418.180    22826426.8904
  22695302.770   -11219412.801 8  -8729481.17246  22695302.429    22695310.2654
  20558801.180     -520592.374 9   -407082.86148  20558800.678    20558807.6894
  20265453.461    -5268798.419 9  -3991474.09048  20265453.109    20265458.5454
  20248077.126    -3518387.186 9  -2738671.86548  20248076.478    20248083.2904
  22343151.144    -9696553.006 8  -7545529.04947  22343150.659    22343158.8554
  22454606.128      633846.632 8    493656.47646  22454606.209    22454613.6404
 01  7 12 17 57 30.0000000  0  9 22 23 06 03 17 18 15 21 26
  23524775.169     2664875.788 8   2072552.26746  23524774.417    23524783.1614
  20731552.626     -591622.837 9   -460905.08948  20731552.035    20731558.6494
  22845447.194     7729317.834 8   5998439.67946  22845447.096    22845455.6694
  22679493.391   -11302491.576 8  -8794217.85546  22679493.084    22679500.8664
  20562644.989     -500393.114 9   -391343.20347  20562644.507    20562651.4784
  20262864.248    -5282404.934 9  -4002076.57248  20262863.891    20262869.3194
  20246761.295    -3525302.115 9  -2744060.13548  20246760.619    20246767.4294
  22330225.342    -9764478.693 8  -7598458.11847  22330224.827    22330233.0324
  22464092.200      683695.976 8    532500.09146  22464092.223    22464099.6344
 01  7 12 17 58  0.0000000  0  9 22 23 06 03 17 18 15 21 26
  23536020.301     2723968.476 8   2118598.46746  23536019.443    23536028.1684
  20736773.448     -564187.076 9   -439526.59448  20736772.871    20736779.5194
  22864524.249     7829567.597 8   6076556.24946  22864524.120    22864532.7044
  22663744.217   -11385253.202 8  -8858707.39846  22663744.006    22663751.8944
  20566541.374     -479917.721 9   -375388.37847  20566540.860    20566547.7714
  20260364.752    -5295539.762 9  -4012311.50248  20260364.392    20260369.8104
  20245503.254    -3531913.334 9  -2749211.74548  20245502.570    20245509.3804
  22317352.188    -9832127.610 8  -7651171.51947  22317351.669    22317359.8294
  22473688.509      734125.071 8    571795.46646  22473688.540    22473695.9754
 01  7 12 17 58 30.0000000  0  9 22 23 06 03 17 18 15 21 26
  23547331.964     2783411.544 8   2164917.65546  23547331.161    23547339.9504
  20742063.900     -536385.627 9   -417863.14348  20742063.338    20742069.9924
  22883649.008     7930068.592 8   6154868.56946  22883648.969    22883657.5634
  22648055.999   -11467694.760 8  -8922947.54246  22648055.887    22648063.7804
  20570490.337     -459165.553 9   -359217.88147  20570489.876    20570496.7974
  20257954.998    -5308203.021 9  -4022178.98248  20257954.660    20257960.1024
  20244303.138    -3538219.900 9  -2754125.96248  20244302.481    20244309.2984
  22304531.687    -9899499.182 8  -7703668.81547  22304531.234    22304539.3924
  22483394.921      785132.711 8    611541.64646  22483394.950    22483402.4594
 01  7 12 17 59  0.0000000  0  9 22 23 06 03 17 18 15 21 26
  23558709.784     2843201.984 8   2211507.52546  23558708.946    23558717.7594
  20747423.528     -508220.596 9   -395916.38048  20747422.948    20747429.6334
  22902821.387     8030818.289 8   6233374.69446  22902821.196    22902829.6314
  22632429.387   -11549814.249 8  -8986936.72446  22632429.136    22632436.9544
  20574492.008     -438136.926 9   -342831.96747  20574491.516    20574498.4354
  20255634.789    -5320395.914 9  -4031679.94248  20255634.436    20255639.8994
  20243160.984    -3544222.059 9  -2758802.97948  20243160.332    20243167.1834
  22291764.165    -9966593.181 8  -7755949.81747  22291763.663    22291771.8064
  22493210.991      836716.331 8    651736.64746  22493211.173    22493218.5194
 01  7 12 17 59 30.0000000  0  9 22 23 06 03 17 18 15 21 26
  23570153.092     2903336.270 8   2258365.34345  23570152.193    23570160.9564
  20752851.871     -479694.177 9   -373688.01848  20752851.330    20752858.0504
  22922040.320     8131813.962 8   6312072.50346  22922040.131    22922048.5864
  22616864.250   -11631609.705 8  -9050673.40546  22616863.981    22616871.7814
  20578546.179     -416832.118 9   -326230.84847  20578545.739    20578552.6434
  20253403.916    -5332119.405 9  -4040815.13048  20253403.570    20253408.9854
  20242076.697    -3549920.007 9  -2763242.94848  20242076.052    20242082.9174
  22279049.269   -10033409.651 8  -7808014.56547  22279048.856    22279056.9724
  22503136.398      888873.615 8    692378.65246  22503136.423    22503143.6244
 01  7 12 18  0  0.0000000  0  9 22 23 06 03 17 18 15 21 26
  23581661.428     2963812.544 8   2305489.57745  23581660.486    23581669.3114
  20758349.037     -450806.535 9   -351178.18248  20758348.494    20758355.2264
  22941305.908     8233055.115 8   6390961.57846  22941305.814    22941314.2884
  22601361.401   -11713077.413 8  -9114154.70146  22601361.143    22601368.9654
  20582653.249     -395249.619 9   -309413.34847  20582652.776    20582659.6764
  20251262.491    -5343372.889 9  -4049584.08248  20251262.113    20251267.5194
  20241050.595    -3555312.181 9  -2767444.64948  20241049.943    20241056.8294
  22266387.732   -10099946.804 8  -7859861.66447  22266387.251    22266395.3634
  22513170.536      941604.095 8    733467.30146  22513170.716    22513177.9724
 01  7 12 18  0 30.0000000  0  9 22 23 06 03 17 18 15 21 26
  23593234.183     3024628.038 8   2352878.22945  23593233.324    23593242.1084
  20763914.541     -421559.677 9   -328388.43348  20763913.982    20763920.7244
  22960617.810     8334539.270 8   6470039.99746  22960617.714    22960626.3044
  22585921.341   -11794215.452 8  -9177379.11346  22585921.022    22585928.8644
  20586813.173     -373389.528 9   -292379.53147  20586812.626    20586819.5794
  20249210.300    -5354157.336 9  -4057987.54548  20249209.904    20249215.2834
  20240082.704    -3560398.396 9  -2771407.94248  20240082.063    20240088.9794
  22253779.199   -10166204.685 8  -7911491.15747  22253778.790    22253786.8124
  22523313.577      994905.416 8    775000.78746  22523313.684    22523320.9014
 01  7 12 18  1  0.0000000  0  9 22 23 06 03 17 18 15 21 26
  23604870.975     3085779.519 8   2400528.66845  23604870.109    23604878.9104
  20769547.928     -391956.009 9   -305320.65748  20769547.372    20769554.1484
  22979975.438     8436263.355 8   6549305.39446  22979975.354    22979983.8964
  22570544.327   -11875021.969 8  -9240345.18646  22570544.057    22570551.8934
  20591025.697     -351252.519 9   -275129.94247  20591025.170    20591032.1314
  20247247.074    -5364474.129 9  -4066026.60948  20247246.683    20247252.0734
  20239172.982    -3565179.101 9  -2775133.17548  20239172.332    20239179.2444
  22241223.837   -10232183.475 8  -7962903.16747  22241223.451    22241231.4374
  22533564.616     1048774.939 8    816977.00446  22533564.728    22533572.0064
 01  7 12 18  1 30.0000000  0  9 22 23 06 03 17 18 15 21 26
  23616571.196     3147265.085 8   2448439.40845  23616570.418    23616579.3084
  20775249.098     -361996.171 9   -281975.34248  20775248.545    20775255.2944
  22999378.565     8538226.183 8   6628756.80446  22999378.421    22999387.0004
  22555231.061   -11955493.773 8  -9303050.45446  22555230.799    22555238.6234
  20595291.112     -328837.602 9   -257663.79347  20595290.597    20595297.5784
  20245372.856    -5374323.124 9  -4073701.15848  20245372.490    20245377.8834
  20238321.589    -3569653.231 9  -2778619.51648  20238320.952    20238327.8584
  22228721.704   -10297882.485 8  -8014097.16947  22228721.337    22228729.3084
  22543923.592     1103211.424 8    859394.98846  22543923.636    22543931.0224
 01  7 12 18  2  0.0000000  0  9 22 23 06 03 17 18 15 21 26
  23628334.553     3209081.316 8   2496607.82845  23628333.725    23628342.6034
  20781017.686     -331682.073 9   -258353.98248  20781017.121    20781023.8764
  23018826.555     8640425.177 8   6708392.24246  23018826.328    23018834.9084
  22539981.945   -12035628.453 8  -9365493.02246  22539981.665    22539989.4874
  20599609.507     -306144.633 9   -239980.98647  20599608.997    20599615.9274
  20243587.552    -5383705.194 9  -4081011.86648  20243587.146    20243592.5714
  20237528.569    -3573820.709 9  -2781866.91048  20237527.931    20237534.8614
  22216272.980   -10363300.966 8  -8065072.57447  22216272.564    22216280.5604
  22554389.998     1158212.721 8    902253.09846  22554390.120    22554397.5324
 01  7 12 18  2 30.0000000  0  9 22 23 06 03 17 18 15 21 26
  23640160.311     3271225.947 8   2545032.13145  23640159.488    23640168.4684
  20786853.488     -301014.666 9   -234457.31548  20786852.951    20786859.7524
  23038319.093     8742858.987 8   6788210.64546  23038318.954    23038327.5344
  22524797.424   -12115423.101 8  -9427670.63346  22524797.158    22524805.0234
  20603980.976     -283172.823 9   -222080.89747  20603980.461    20603987.3394
  20241891.002    -5392620.423 9  -4087958.79948  20241890.621    20241896.0584
  20236794.103    -3577680.596 9  -2784874.61748  20236793.430    20236800.3534
  22203877.797   -10428438.159 8  -8115828.79247  22203877.356    22203885.3734
  22564963.666     1213777.441 8    945550.24646  22564963.781    22564971.1784
 01  7 12 18  3  0.0000000  0  9 22 23 06 03 17 18 15 21 26
  23652048.145     3333696.079 8   2593710.06745  23652047.188    23652056.2534
  20792756.095     -269996.333 9   -210287.19748  20792755.545    20792762.3314
  23057855.844     8845525.004 8   6868209.99746  23057855.748    23057864.3074
  22509677.915   -12194875.968 8  -9489581.92046  22509677.665    22509685.5614
  20608405.464     -259922.441 9   -203963.74447  20608404.948    20608411.7724
  20240283.065    -5401069.844 9  -4094542.76548  20240282.734    20240288.1554
  20236118.222    -3581232.734 9  -2787642.52248  20236117.517    20236124.4384
  22191536.166   -10493293.749 8  -8166365.58447  22191535.740    22191543.6944
  22575644.076     1269903.182 8    989284.54946  22575644.167    22575651.6514
 01  7 12 18  3 30.0000000  0  9 22 23 06 03 17 18 15 21 26
  23663997.180     3396488.927 8   2642639.48145  23663996.266    23664005.3964
  20798725.164     -238628.758 9   -185844.94548  20798724.642    20798731.4264
  23077436.644     8948420.941 8   6948388.50646  23077436.363    23077444.8724
  22494624.037   -12273984.659 8  -9551225.01346  22494623.786    22494631.6694
  20612882.853     -236393.527 9   -185629.54347  20612882.329    20612889.1974
  20238763.660    -5409054.618 9  -4100764.66948  20238763.306    20238768.7024
  20235500.833    -3584477.172 9  -2790170.66848  20235500.155    20235507.0814
  22179248.110   -10557867.739 9  -8216682.94547  22179247.666    22179255.6364
  22586430.868     1326587.677 8   1033454.24246  22586430.879    22586438.3594
 01  7 12 18  4  0.0000000  0  9 22 23 06 03 17 18 15 21 26
  23676007.188     3459601.741 8   2691818.21145  23676006.361    23676015.5234
  20804760.424     -206913.391 9   -161131.68648  20804759.894    20804766.6394
  23097060.451     9051544.809 8   7028744.63046  23097060.238    23097068.7884
  22479636.227   -12352746.504 8  -9612597.84146  22479635.902    22479643.6694
  20617413.293     -212585.689 9   -167078.00147  20617412.772    20617419.7064
  20237332.539    -5416575.105 9  -4106624.79248  20237332.196    20237337.5884
  20234942.072    -3587413.367 9  -2792458.61648  20234941.422    20234948.3724
  22167013.700   -10622159.443 8  -8266780.34047  22167013.306    22167021.2824
  22597323.451     1383828.930 8   1078057.78346  22597323.538    22597331.0334
 01  7 12 18  4 30.0000000  0  9 22 23 06 03 17 18 15 21 26
  23688077.371     3523031.504 8   2741243.89645  23688076.626    23688085.9374
  20810861.655     -174851.462 9   -136148.38148  20810861.121    20810867.8394
  23116727.225     9154894.864 8   7109277.00146  23116727.083    23116735.7144
  22464714.808   -12431158.862 8  -9673698.34646  22464714.472    22464722.2344
  20621996.912     -188498.391 9   -148308.70147  20621996.429    20622003.3954
  20235989.730    -5423631.588 9  -4112123.35448  20235989.376    20235994.8154
  20234442.151    -3590040.502 9  -2794505.74648  20234441.498    20234448.4574
  22154833.229   -10686168.203 8  -8316657.26247  22154832.848    22154840.8104
  22608321.831     1441625.373 8   1123093.94746  22608321.884    22608329.4214
 01  7 12 18  5  0.0000000  0  9 22 23 06 03 17 18 15 21 26
  23700207.559     3586775.859 8   2790914.74845  23700206.898    23700216.1854
  20817028.556     -142444.416 9   -110896.15448  20817028.011    20817034.6814
  23136436.916     9258469.330 8   7189984.25346  23136436.828    23136445.2484
  22449860.263   -12509219.276 8  -9734524.59746  22449859.995    22449867.8464
  20626633.944     -164131.163 9   -129321.27347  20626633.399    20626640.3364
  20234735.103    -5430224.785 9  -4117260.91148  20234734.775    20234740.1994
  20234001.158    -3592357.964 9  -2796311.57048  20234000.493    20234007.4344
  22142706.735   -10749893.544 8  -8366313.33247  22142706.333    22142714.2154
  22619425.411     1499975.201 8   1168561.29946  22619425.468    22619433.0184
 01  7 12 18  5 30.0000000  0  9 22 23 06 03 17 18 15 21 26
  23712397.124     3650831.578 8   2840828.19545  23712396.330    23712405.6894
  20823260.622     -109694.855 9    -85377.03048  20823260.067    20823266.7054
  23156188.864     9362264.894 8   7270863.77546  23156188.684    23156196.9794
  22435073.139   -12586925.869 8  -9795075.15746  22435072.902    22435080.7024
  20631324.065     -139484.665 9   -110116.23147  20631323.532    20631330.4464
  20233568.352    -5436356.272 9  -4122038.69848  20233568.002    20233573.4344
  20233618.963    -3594366.588 9  -2797876.74048  20233618.307    20233625.2464
  22130634.017   -10813335.814 8  -8415748.83047  22130633.631    22130641.5254
  22630633.827     1558875.262 8   1214457.42846  22630633.868    22630641.4324
 01  7 12 18  6  0.0000000  0  9 22 23 06 03 17 18 15 21 26
  23724645.179     3715196.112 8   2890982.28645  23724644.530    23724653.9284
  20829557.599      -76604.077 9    -59592.02448  20829557.058    20829563.7034
  23175982.229     9466279.636 8   7351914.07746  23175982.111    23175990.6114
  22420353.899   -12664276.172 8  -9855348.08946  22420353.632    22420361.4384
  20636067.433     -114558.462 9    -90693.23147  20636066.868    20636073.8024
  20232489.379    -5442026.377 9  -4126456.96448  20232489.039    20232494.4404
  20233295.647    -3596065.676 9  -2799200.71448  20233295.001    20233301.9134
  22118615.368   -10876494.272 9  -8464963.17847  22118614.942    22118622.8164
  22641946.386     1618323.755 8   1260780.89746  22641946.457    22641954.1654
 01  7 12 18  6 30.0000000  0  9 22 23 06 03 17 18 15 21 26
  23736951.839     3779866.973 8   2941375.07245  23736951.101    23736960.5584
  20835919.324      -43173.050 9    -33541.88748  20835918.764    20835925.4464
  23195817.069     9570512.069 8   7433134.01646  23195817.019    23195825.5974
  22405702.965   -12741267.523 8  -9915341.31746  22405702.665    22405710.4334
  20640864.067      -89351.727 9    -71051.64047  20640863.537    20640870.4754
  20231498.166    -5447235.319 9  -4130515.88448  20231497.816    20231503.2484
  20233031.476    -3597454.186 9  -2800282.68148  20233030.804    20233037.7044
  22106650.819   -10939368.227 9  -8513955.83447  22106650.414    22106658.2874
  22653363.082     1678319.104 8   1307530.48546  22653363.213    22653370.8954
 01  7 12 18  7  0.0000000  0  9 22 23 06 03 17 18 15 21 26
  23749315.823     3844840.257 8   2992003.51845  23749315.121    23749324.6334
  20842345.389       -9403.772 9     -7228.18848  20842344.845    20842351.5674
  23215692.964     9674959.349 8   7514521.35346  23215692.820    23215701.4484
  22391120.687   -12817897.832 8  -9975053.21546  22391120.340    22391128.0984
  20645714.098      -63864.679 9    -51191.62447  20645713.580    20645720.5184
  20230594.432    -5451984.534 9  -4134216.57048  20230594.061    20230599.5114
  20232826.328    -3598532.291 9  -2801122.76848  20232825.646    20232832.5724
  22094740.439   -11001957.975 9  -8562727.03147  22094739.940    22094747.8324
  22664883.373     1738858.531 8   1354704.03146  22664883.457    22664891.1494
 01  7 12 18  7 30.0000000  0  9 22 23 06 03 17 18 15 21 26
  23761737.239     3910114.253 8   3042866.27445  23761736.482    23761746.0744
  20848835.632       24702.423 9     19348.05548  20848835.072    20848841.8164
  23235609.292     9779619.998 8   7596074.93146  23235609.103    23235618.0084
  22376607.599   -12894163.863 8 -10034481.26246  22376607.377    22376615.1324
  20650617.558      -38096.611 9    -31112.63047  20650617.055    20650624.0304
  20229778.115    -5456274.188 9  -4137559.16348  20229777.786    20229783.2344
  20232680.437    -3599299.121 9  -2801720.30648  20232679.737    20232686.6704
  22082884.204   -11064262.536 9  -8611276.01847  22082883.748    22082891.5894
  22676507.004     1799940.687 8   1402300.48246  22676507.050    22676514.7214
 01  7 12 18  8  0.0000000  0  9 22 23 06 03 17 18 15 21 26
  23774215.227     3975686.220 8   3093961.22545  23774214.504    23774224.0674
  20855389.553       59143.583 9     46185.29848  20855388.995    20855395.8014
  23255565.524     9884491.534 8   7677792.83446  23255565.427    23255574.5804
  22362164.291   -12970063.716 8 -10093623.96846  22362164.076    22362171.9244
  20655574.496      -12047.546 9    -10814.66947  20655574.054    20655581.0844
  20229049.103    -5460105.192 9  -4140544.36148  20229048.771    20229054.2164
  20232593.746    -3599754.524 9  -2802075.17748  20232593.077    20232600.0064
  22071082.267   -11126281.854 9  -8659602.72447  22071081.788    22071089.6684
  22688233.311     1861563.110 8   1450317.92446  22688233.453    22688241.1914
 01  7 12 18  8 30.0000000  0  9 22 23 06 03 17 18 15 21 26
  23786749.211     4041553.148 8   3145286.01845  23786748.636    23786758.2304
  20862006.939       93918.124 9     73282.32648  20862006.383    20862013.1664
  23275561.876     9989572.203 8   7759673.69446  23275561.684    23275571.0464
  22347791.262   -13045594.805 8 -10152479.32746  22347790.966    22347798.7844
  20660584.988       14282.806 9      9702.46947  20660584.545    20660591.5964
  20228407.169    -5463478.576 9  -4143172.97448  20228406.875    20228412.2944
  20232566.441    -3599897.976 9  -2802186.97048  20232565.776    20232572.6984
  22059334.740   -11188015.372 9  -8707706.73847  22059334.281    22059342.1784
  22700062.075     1923723.444 8   1498754.51346  22700062.204    22700069.9374
 01  7 12 18  9  0.0000000  0  9 22 23 06 03 17 18 15 21 26
  23799339.025     4107711.247 8   3196837.70845  23799338.211    23799347.7814
  20868687.392      129023.999 9    100637.52948  20868686.829    20868693.6424
  23295597.287    10094859.123 8   7841715.28346  23295597.213    23295606.6274
  22333488.739   -13120755.237 8 -10211045.86546  22333488.438    22333496.1844
  20665649.008       40894.202 9     30438.60247  20665648.569    20665655.5904
  20227852.077    -5466395.568 9  -4145445.95948  20227851.750    20227857.1874
  20232598.440    -3599729.636 9  -2802055.81248  20232597.784    20232604.7064
  22047641.610   -11249463.386 9  -8755588.28247  22047641.076    22047648.9984
  22711992.751     1986419.150 8   1547608.28046  22711992.825    22712000.6414
 01  7 12 18  9 30.0000000  0  9 22 23 06 03 17 18 15 21 26
  23811983.381     4174158.167 8   3248614.45645  23811982.667    23811992.2534
  20875430.615      164460.027 9    128249.99448  20875430.070    20875436.9164
  23315671.712    10200350.425 8   7923916.12446  23315671.636    23315681.2724
  22319257.145   -13195542.293 8 -10269321.46046  22319256.860    22319264.6464
  20670766.688       67787.235 9     51394.19047  20670766.186    20670773.1824
  20227383.864    -5468856.331 9  -4147363.43548  20227383.524    20227388.9124
  20232689.973    -3599248.709 9  -2801681.07648  20232689.291    20232696.2374
  22036002.922   -11310624.787 9  -8803246.48947  22036002.453    22036010.3824
  22724024.920     2049648.312 8   1596877.71546  22724024.984    22724032.8124
 01  7 12 18 10  0.0000000  0  9 22 23 06 03 17 18 15 21 26
  23824682.563     4240891.750 8   3300614.57845  23824681.786    23824691.2674
  20882236.413      200224.611 9    156118.48448  20882235.879    20882242.7034
  23335784.666    10306044.335 8   8006274.85046  23335784.612    23335794.2894
  22305097.171   -13269953.266 8 -10327304.01146  22305096.893    22305104.6954
  20675937.955       94962.496 9     72569.70147  20675937.456    20675944.4884
  20227002.202    -5470861.878 9  -4148926.20048  20227001.848    20227007.2534
  20232841.065    -3598454.684 9  -2801062.36748  20232840.396    20232847.3884
  22024418.776   -11371499.673 9  -8850681.43947  22024418.312    22024426.2704
  22736158.202     2113408.924 8   1646561.27546  22736158.225    22736166.0204
 01  7 12 18 10 30.0000000  0  9 22 23 06 03 17 18 15 21 26
  23837435.495     4307908.832 8   3352835.58645  23837434.807    23837444.2984
  20889104.316      236315.765 9    184241.44048  20889103.764    20889110.6584
  23355935.866    10411938.209 8   8088789.41146  23355935.702    23355945.3504
  22291009.200   -13343986.470 8 -10384992.18546  22291008.856    22291016.6384
  20681162.857      122419.656 9     93964.87547  20681162.379    20681169.4634
  20226706.998    -5472413.289 9  -4150135.09248  20226706.672    20226712.0594
  20233051.721    -3597347.816 9  -2800199.88248  20233051.020    20233058.0084
  22012889.323   -11432087.450 9  -8897892.66347  22012888.844    22012896.7854
  22748391.883     2177698.254 8   1696656.83046  22748392.086    22748399.9354
 01  7 12 18 11  0.0000000  0  9 22 23 06 03 17 18 15 21 26
  23850241.907     4375206.335 8   3405275.11245  23850241.101    23850250.6044
  20896034.052      272731.778 9    212617.53048  20896033.517    20896040.4314
  23376124.638    10518029.918 8   8171458.12045  23376124.426    23376134.0754
  22276993.477   -13417639.270 8 -10442383.94646  22276993.189    22277000.8814
  20686441.471      150159.147 9    115580.03947  20686441.025    20686448.1434
  20226498.040    -5473511.388 9  -4150990.75448  20226497.677    20226503.0704
  20233322.006    -3595927.495 9  -2799093.15048  20233321.323    20233328.2994
  22001414.479   -11492388.012 9  -8944880.09247  22001414.018    22001421.9614
  22760726.164     2242514.301 8   1747162.81046  22760726.227    22760734.0684
 01  7 12 18 11 30.0000000  0  9 22 23 06 03 17 18 15 21 26
  23863100.972     4442780.788 8   3457930.45645  23863100.189    23863109.6394
  20903025.333      309471.088 9    241245.54348  20903024.787    20903031.6924
  23396350.593    10624317.082 8   8254279.15145  23396350.343    23396359.8664
  22263050.620   -13490909.279 8 -10499477.42146  22263050.311    22263058.0264
  20691773.883      178180.964 9    137415.20247  20691773.423    20691780.5674
  20226375.193    -5474157.099 9  -4151493.90448  20226374.822    20226380.2154
  20233652.020    -3594193.404 9  -2797741.92248  20233651.335    20233658.2874
  21989994.375   -11552401.192 9  -8991643.58147  21989993.894    21990001.8224
  22773160.020     2307854.550 8   1798077.26146  22773160.000    22773167.8534
 01  7 12 18 12  0.0000000  0  9 22 23 06 03 17 18 15 21 26
  23876012.447     4510630.194 8   3510800.03145  23876011.581    23876021.0134
  20910077.857      346532.314 9    270124.39448  20910077.325    20910084.2604
  23416613.246    10730797.996 8   8337251.13045  23416613.035    23416622.4074
  22249181.142   -13563793.657 8 -10556270.40446  22249180.863    22249188.5914
  20697160.129      206485.797 9    159470.89747  20697159.635    20697166.8264
  20226338.346    -5474350.803 9  -4151644.84448  20226337.978    20226343.3474
  20234041.916    -3592144.525 9  -2796145.40548  20234041.255    20234048.2024
  21978628.957   -11612126.566 9  -9038182.80547  21978628.492    21978636.4474
  22785693.249     2373717.168 8   1849398.75246  22785693.263    22785701.1464
 01  7 12 18 12 30.0000000  0  9 22 23 06 03 17 18 15 21 26
  23888975.758     4578751.985 8   3563881.85945  23888974.857    23888984.2054
  20917191.385      383913.778 9    299252.78548  20917190.850    20917197.7654
  23436912.601    10837470.475 8   8420372.36845  23436912.363    23436921.7404
  22235385.526   -13636290.047 8 -10612761.06446  22235385.253    22235392.9174
  20702600.285      235073.880 9    181747.30847  20702599.758    20702606.9734
  20226387.327    -5474093.522 9  -4151444.36548  20226386.964    20226392.3114
  20234491.770    -3589780.688 9  -2794303.46848  20234491.093    20234498.0274
  21967318.395   -11671563.606 9  -9084497.36647  21967317.972    21967325.9294
  22798325.375     2440099.622 8   1901125.31246  22798325.467    22798333.2604
 01  7 12 18 13  0.0000000  0  9 22 23 06 03 17 18 15 21 26
  23901990.107     4647142.804 8   3617173.30545  23901989.177    23901998.6144
  20924365.395      421613.520 9    328629.18548  20924364.874    20924371.7674
  23457247.934    10944331.984 8   8503640.88945  23457247.725    23457257.0974
  22221664.033   -13708396.800 8 -10668948.10746  22221663.752    22221671.4374
  20708094.261      263945.148 9    204244.37847  20708093.795    20708100.9994
  20226521.872    -5473386.506 9  -4150893.44548  20226521.511    20226526.8774
  20235001.469    -3587102.070 9  -2792216.24648  20235000.850    20235007.7814
  21956062.723   -11730712.312 9  -9130587.24347  21956062.274    21956070.2664
  22811056.075     2506999.379 8   1953254.96146  22811056.104    22811063.7824
 01  7 12 18 13 30.0000000  0  9 22 23 06 03 17 18 15 21 26
  23915055.094     4715799.543 8   3670671.97045  23915054.192    23915063.5844
  20931599.726      459629.967 9    358252.37348  20931599.215    20931606.0784
  23477618.680    11051380.335 8   8587054.95945  23477618.453    23477627.8984
  22208017.081   -13780111.212 8 -10724829.42746  22208016.870    22208024.5664
  20713642.235      293099.873 9    226962.32447  20713641.784    20713648.9574
  20226741.802    -5472230.669 9  -4149992.79648  20226741.418    20226746.8124
  20235571.279    -3584107.714 9  -2789882.99248  20235570.656    20235577.5754
  21944862.065   -11789572.425 9  -9176452.24547  21944861.548    21944869.5694
  22823884.685     2574414.155 8   2005785.92046  22823884.743    22823892.3674
 01  7 12 18 14  0.0000000  0  9 22 23 06 03 17 18 15 21 26
  23928170.203     4784719.327 8   3724375.61545  23928169.372    23928178.6524
  20938894.054      497961.811 9    388121.31848  20938893.526    20938900.4054
  23498024.692    11158613.714 8   8670613.25445  23498024.406    23498033.8554
  22194445.397   -13851430.592 8 -10780402.93147  22194445.225    22194452.9414
  20719244.249      322538.563 9    249901.54647  20719243.776    20719250.9604
  20227047.064    -5470626.564 9  -4148742.84548  20227046.687    20227052.0744
  20236201.237    -3580797.422 9  -2787303.54948  20236200.610    20236207.5204
  21933716.367   -11848143.263 9  -9222091.84047  21933715.885    21933723.8824
  22836811.036     2642341.818 8   2058716.53546  22836811.015    22836818.6074
 01  7 12 18 14 30.0000000  0  9 22 23 06 03 17 18 15 21 26
  23941334.791     4853899.708 8   3778282.31745  23941334.039    23941343.3694
  20946248.010      536607.152 9    418234.55348  20946247.504    20946254.3334
  23518465.357    11266029.590 8   8754313.73445  23518465.155    23518474.6734
  22180949.346   -13922352.867 8 -10835667.01147  22180949.129    22180956.8624
  20724900.317      352261.181 9    273062.00447  20724899.800    20724907.0044
  20227437.396    -5468575.376 9  -4147144.51848  20227437.017    20227442.4254
  20236891.372    -3577170.781 9  -2784477.60548  20236890.732    20236897.6404
  21922625.672   -11906425.198 9  -9267506.30947  21922625.192    21922633.1574
  22849834.254     2710779.910 8   2112044.89446  22849834.349    22849842.1154
 01  7 12 18 15  0.0000000  0  9 22 23 06 03 17 18 15 21 26
  23954548.590     4923338.186 8   3832390.12445  23954547.771    23954557.1984
  20953661.475      575564.666 9    448591.03948  20953660.922    20953667.7274
  23538940.556    11373626.081 8   8838154.95846  23538940.320    23538949.8154
  22167529.261   -13992875.586 8 -10890619.75047  22167529.069    22167536.8114
  20730610.506      382268.338 9    296444.18647  20730610.007    20730617.2284
  20227912.641    -5466077.820 9  -4145198.37448  20227912.288    20227917.6814
  20237641.835    -3573227.226 9  -2781404.71148  20237641.183    20237648.0974
  21911590.043   -11964417.336 9  -9312694.96947  21911589.662    21911597.5814
  22862954.339     2779726.160 8   2165769.21046  22862954.476    22862962.1774
 01  7 12 18 15 30.0000000  0  9 22 23 06 03 17 18 15 21 26
  23967810.762     4993030.724 8   3886695.90845  23967809.810    23967819.3404
  20961133.774      614831.865 9    479188.83248  20961133.239    20961140.0684
  23559449.599    11481400.108 8   8922134.51446  23559449.332    23559458.7974
  22154185.542   -14062997.210 8 -10945259.95047  22154185.307    22154193.0344
  20736374.799      412559.412 9    320047.59547  20736374.297    20736381.4754
  20228472.558    -5463135.687 9  -4142905.80348  20228472.170    20228477.5874
  20238452.448    -3568967.155 9  -2778085.18548  20238451.821    20238458.7614
  21900609.540   -12022120.493 9  -9357658.45047  21900609.114    21900617.0084
  22876170.636     2849177.371 8   2219887.00846  22876170.666    22876178.2794
 01  7 12 18 16  0.0000000  0  9 22 23 06 03 17 18 15 21 26
  23981120.659     5062974.573 8   3941197.52145  23981119.796    23981129.1544
  20968664.823      654407.560 9    510027.01948  20968664.296    20968671.0694
  23579991.923    11589350.027 8   9006251.14246  23579991.661    23580001.1944
  22140918.752   -14132714.846 8 -10999585.34747  22140918.521    22140926.2164
  20742193.230      443135.204 9    343872.87147  20742192.689    20742199.8724
  20229116.946    -5459749.274 9  -4140267.04248  20229116.574    20229122.0004
  20239323.506    -3564389.672 9  -2774518.31848  20239322.878    20239329.8394
  21889684.197   -12079533.696 9  -9402395.97447  21889683.747    21889691.6244
  22889482.508     2919131.646 8   2274396.79646  22889482.551    22889490.1084
 01  7 12 18 16 30.0000000  0  9 22 23 06 03 17 18 15 21 26
  23994477.998     5133167.333 8   3995893.08445  23994477.069    23994486.6554
  20976254.243      694290.233 9    541104.40248  20976253.712    20976260.5344
  23600567.239    11697473.827 8   9090503.24546  23600567.007    23600576.6844
  22127729.310   -14202025.685 8 -11053593.76447  22127729.072    22127736.7974
  20748065.829      473996.039 9    367920.25247  20748065.313    20748072.4914
  20229845.716    -5455919.410 9  -4137282.73548  20229845.350    20229850.7844
  20240255.051    -3559494.158 9  -2770703.63848  20240254.463    20240261.4564
  21878814.120   -12136656.441 9  -9446907.17747  21878813.653    21878821.4744
  22902889.676     2989586.644 8   2329296.77146  22902889.749    22902897.2904
 01  7 12 18 17  0.0000000  0  9 22 23 06 03 17 18 15 21 26
  24007882.288     5203606.777 8   4050780.87445  24007881.320    24007890.7784
  20983901.858      734478.453 9    572419.88048  20983901.337    20983908.1674
  23621175.335    11805769.565 8   9174889.34246  23621175.111    23621184.9254
  22114617.799   -14270927.493 8 -11107283.45647  22114617.539    22114625.1804
  20753992.843      505142.600 9    392190.27847  20753992.360    20753999.4674
  20230658.816    -5451646.804 9  -4133953.43348  20230658.437    20230663.8394
  20241247.226    -3554280.237 9  -2766640.85048  20241246.617    20241253.6374
  21867999.271   -12193488.642 9  -9491191.98447  21867998.879    21868006.6134
  22916391.695     3060540.374 8   2384585.35046  22916391.892    22916399.4684
 01  7 12 18 17 30.0000000  0  9 22 23 06 03 17 18 15 21 26
  24021332.630     5274289.516 8   4105858.24145  24021331.778    24021341.1734
  20991607.211      774970.275 9    603971.92948  20991606.663    20991613.5154
  23641815.582    11914234.591 8   9259407.34645  23641815.411    23641825.1014
  22101584.399   -14339418.118 8 -11160652.74647  22101584.152    22101591.7784
  20759974.192      536574.541 9    416682.67547  20759973.689    20759980.7724
  20231555.827    -5446933.049 9  -4130280.38248  20231555.466    20231560.8374
  20242299.999    -3548747.668 9  -2762329.76048  20242299.428    20242306.4764
  21857239.721   -12250030.463 9  -9535250.51447  21857239.298    21857247.0424
  22929988.198     3131989.777 8   2440260.17146  22929988.310    22929995.8304
 01  7 12 18 18  0.0000000  0  9 22 23 06 03 17 18 15 21 26
  24034828.890     5345212.049 8   4161122.46545  24034828.015    24034837.5744
  20999369.954      815763.877 9    635759.13048  20999369.419    20999376.3094
  23662487.653    12022866.500 8   9344055.42945  23662487.481    23662497.1474
  22088629.753   -14407495.449 8 -11213699.98547  22088629.480    22088637.0784
  20766009.803      568292.045 9    441397.59547  20766009.311    20766016.4564
  20232536.581    -5441779.078 9  -4126264.30348  20232536.237    20232541.5894
  20243413.521    -3542896.289 9  -2757770.24748  20243412.927    20243419.9924
  21846535.540   -12306281.616 9  -9579082.55647  21846535.039    21846542.7644
  22943678.407     3203932.263 8   2496319.20346  22943678.512    22943686.0994
 01  7 12 18 18 30.0000000  0  9 22 23 06 03 17 18 15 21 26
  24048370.054     5416371.603 8   4216571.36145  24048369.350    24048378.8884
  21007189.837      856857.934 9    667780.44848  21007189.345    21007196.2624
  23683190.793    12131663.354 7   9428832.01145  23683190.699    23683200.6524
  22075754.253   -14475156.821 8 -11266423.11147  22075753.944    22075761.4914
  20772099.874      600295.641 9    466335.43847  20772099.415    20772106.5794
  20233600.933    -5436185.873 9  -4121905.96448  20233600.560    20233605.9554
  20244587.807    -3536725.329 9  -2752961.71248  20244587.224    20244594.2794
  21835886.636   -12362241.805 9  -9622687.87247  21835886.200    21835893.8534
  22957462.065     3276365.755 8   2552760.84646  22957462.120    22957469.8194
 01  7 12 18 19  0.0000000  0  9 22 23 06 03 17 18 15 21 26
  24061956.139     5487765.827 7   4272203.15345  24061955.275    24061964.8164
  21015066.698      898250.866 9    700034.66248  21015066.182    21015073.0954
  23703925.101    12240623.015 7   9513735.47745  23703925.015    23703935.2144
  22062958.315   -14542399.852 8 -11318820.25747  22062958.022    22062965.5434
  20778244.537      632585.568 9    491496.40347  20778244.061    20778251.1884
  20234748.765    -5430153.981 9  -4117205.78848  20234748.405    20234753.7904
  20245823.044    -3530234.328 9  -2747903.79548  20245822.459    20245829.5154
  21825293.190   -12417910.630 9  -9666066.13947  21825292.714    21825300.3974
  22971338.616     3349287.834 8   2609583.19946  22971338.713    22971346.5294
 01  7 12 18 19 30.0000000  0  9 22 23 06 03 17 18 15 21 26
  24075586.158     5559392.139 8   4328015.75245  24075585.379    24075594.9614
  21023000.106      939940.946 9    732520.41348  21022999.580    21023006.5014
  23724689.911    12349743.309 7   9598764.02145  23724689.938    23724700.2334
  22050242.280   -14609222.605 8 -11370889.90247  22050242.005    22050249.5744
  20784443.590      665162.100 9    516880.68447  20784443.139    20784450.3114
  20235979.862    -5423684.681 9  -4112164.77748  20235979.493    20235984.8944
  20247119.219    -3523423.093 9  -2742596.35048  20247118.621    20247125.6384
  21814755.286   -12473287.864 9  -9709217.19947  21814754.800    21814762.4394
  22985307.675     3422695.811 8   2666784.15246  22985307.773    22985315.7184
 01  7 12 18 20  0.0000000  0  9 22 23 06 03 17 18 15 21 26
  24089259.905     5631246.609 8   4384006.14645  24089258.923    24089268.6174
  21030989.621      981925.982 9    765236.00248  21030989.089    21030995.9884
  23745484.976    12459021.350 7   9683915.54145  23745485.013    23745495.2634
  22037606.657   -14675623.223 8 -11422630.62147  22037606.403    22037613.9334
  20790697.164      698024.928 9    542488.06947  20790696.720    20790703.9204
  20237293.886    -5416779.490 9  -4106784.10948  20237293.533    20237298.8994
  20248476.279    -3516291.848 9  -2737039.54248  20248475.672    20248482.6714
  21804272.671   -12528374.158 9  -9752141.55347  21804272.196    21804279.8234
  22999368.700     3496586.671 8   2724361.40446  22999368.738    22999376.7814
 01  7 12 18 20 30.0000000  0  9 22 23 06 03 17 18 15 21 26
  24102976.084     5703326.366 8   4440172.09045  24102975.228    24102985.1004
  21039035.059     1024204.733 9    798180.46648  21039034.529    21039041.3774
  23766309.634    12568455.452 8   9769188.61445  23766309.706    23766319.9644
  22025051.888   -14741598.767 8 -11474040.10947  22025051.634    22025059.1564
  20797005.406      731174.752 9    568319.08247  20797004.963    20797012.1474
  20238690.678    -5409439.134 9  -4101064.35348  20238690.336    20238695.7334
  20249894.473    -3508839.530 9  -2731232.54548  20249893.800    20249900.8224
  21793845.593   -12583168.678 9  -9794838.56147  21793845.135    21793852.7914
  23013521.077     3570958.357 8   2782313.31646  23013521.241    23013529.3554
 01  7 12 18 21  0.0000000  0  9 22 23 06 03 17 18 15 21 26
  24116734.786     5775628.251 8   4496511.10945  24116733.922    24116743.7834
  21047135.887     1066774.859 9    831351.97248  21047135.351    21047142.2494
  23787163.787    12678042.779 8   9854581.10945  23787163.818    23787174.0714
  22012578.370   -14807147.633 8 -11525117.11747  22012578.089    22012585.5954
  20803368.262      764611.231 9    594373.46147  20803367.768    20803374.9164
  20240170.011    -5401665.248 9  -4095006.78648  20240169.682    20240175.0704
  20251373.590    -3501066.553 9  -2725175.68348  20251372.956    20251379.9784
  21783473.963   -12637671.580 9  -9837308.33247  21783473.545    21783481.2174
  23027764.483     3645807.791 8   2840637.50746  23027764.561    23027772.7264
 01  7 12 18 21 30.0000000  0  9 22 23 06 03 17 18 15 21 26
  24130535.183     5848150.109 8   4553021.50545  24130534.478    24130544.3924
  21055291.978     1109635.317 9    864749.71648  21055291.465    21055298.3504
  23808046.521    12787781.506 8   9940091.54245  23808046.572    23808057.1044
  22000186.493   -14872267.064 8 -11575859.50547  22000186.248    22000193.7474
  20809785.691      798335.010 9    620651.71147  20809785.195    20809792.3844
  20241731.725    -5393458.415 9  -4088611.85948  20241731.351    20241736.7664
  20252913.944    -3492972.084 9  -2718868.30648  20252913.290    20252920.2644
  21773157.936   -12691882.452 9  -9879550.54447  21773157.517    21773165.2434
  23042098.230     3721132.749 8   2899332.21546  23042098.427    23042106.6314
 01  7 12 18 22  0.0000000  0  9 22 23 06 03 17 18 15 21 26
  24144377.191     5920888.960 8   4609700.95645  24144376.315    24144386.1594
  21063502.977     1152784.418 9    898372.37048  21063502.461    21063509.3594
  23828957.742    12897669.395 8  10025718.27246  23828957.765    23828968.2314
  21987876.710   -14936955.174 8 -11626265.79547  21987876.520    21987883.9914
  20816257.809      832346.238 9    647153.94847  20816257.305    20816264.5324
  20243375.604    -5384819.848 9  -4081880.51848  20243375.243    20243380.6854
  20254515.581    -3484555.665 9  -2712310.06748  20254514.911    20254521.8594
  21762897.525   -12745801.397 9  -9921565.29147  21762897.060    21762904.8184
  23056522.140     3796930.709 8   2958395.48846  23056522.382    23056530.5534
 01  7 12 18 22 30.0000000  0  9 22 23 06 03 17 18 15 21 26
  24158259.610     5993841.184 7   4666546.74345  24158258.865    24158268.4384
  21071768.495     1196219.945 9    932218.21548  21071767.998    21071774.9184
  23849896.943    13007703.638 8  10111459.00046  23849896.850    23849907.4874
  21975649.495   -15001209.948 8 -11676334.42347  21975649.235    21975656.7144
  20822784.621      866644.711 9    673880.01247  20822784.106    20822791.2964
  20245101.359    -5375751.142 9  -4074813.99948  20245100.968    20245106.4084
  20256178.407    -3475817.374 9  -2705501.01448  20256177.760    20256184.6554
  21752692.531   -12799428.588 9  -9963352.68647  21752692.095    21752699.9054
  23071035.627     3873198.422 8   3017824.84646  23071035.754    23071043.8534
 01  7 12 18 23  0.0000000  0  9 22 23 06 03 17 18 15 21 26
  24172182.015     6067003.769 8   4723556.44445  24172181.268    24172191.0334
  21080088.286     1239940.383 9    966286.06448  21080087.759    21080094.6554
  23870863.432    13117882.290 8  10197312.23746  23870863.415    23870874.0144
  21963505.078   -15065029.094 8 -11726063.59747  21963504.812    21963512.3544
  20829366.174      901230.819 9    700830.20147  20829365.670    20829372.8334
  20246908.770    -5366252.950 9  -4067412.81648  20246908.407    20246913.8194
  20257902.604    -3466756.715 9  -2698440.76648  20257901.956    20257908.8354
  21742543.103   -12852763.961 9 -10004912.69947  21742542.671    21742550.5074
  23085637.906     3949933.629 8   3077618.45946  23085638.045    23085646.0804
 01  7 12 18 23 30.0000000  0  9 22 23 06 03 17 18 15 21 26
  24186144.178     6140374.524 8   4780728.38845  24186143.351    24186153.2454
  21088461.991     1283944.408 9   1000574.89648  21088461.482    21088468.3894
  23891857.149    13228203.568 8  10283276.63545  23891857.012    23891867.6744
  21951444.072   -15128409.788 8 -11775451.12447  21951443.861    21951451.3174
  20836002.594      936105.089 9    728004.93747  20836002.046    20836009.2524
  20248797.711    -5356326.214 9  -4059677.70048  20248797.349    20248802.7774
  20259688.293    -3457372.905 9  -2691128.71248  20259687.640    20259694.5374
  21732449.305   -12905806.979 9 -10046244.88547  21732448.869    21732456.7834
  23100328.681     4027134.089 8   3137774.61746  23100328.845    23100336.7874
 01  7 12 18 24  0.0000000  0  9 22 23 06 03 17 18 15 21 26
  24200145.357     6213950.291 8   4838060.05545  24200144.389    24200154.3524
  21096889.323     1328230.035 9   1035083.15548  21096888.788    21096895.6754
  23912877.430    13338664.698 7  10369349.98045  23912877.329    23912888.0284
  21939466.904   -15191350.273 8 -11824495.63947  21939466.713    21939474.1574
  20842693.721      971267.458 9    755404.16047  20842693.214    20842700.4084
  20250767.964    -5345972.542 9  -4051609.91348  20250767.605    20250773.0174
  20261535.465    -3447666.058 9  -2683564.94548  20261534.831    20261541.6964
  21722411.159   -12958557.474 9 -10087349.13747  21722410.748    21722418.6644
  23115107.576     4104796.766 8   3198290.93146  23115107.684    23115115.4424
 01  7 12 18 24 30.0000000  0  9 22 23 06 03 17 18 15 21 26
  24214184.839     6287728.588 8   4895549.57245  24214183.979    24214193.9884
  21105369.993     1372796.194 9   1069810.01348  21105369.427    21105376.3344
  23933923.775    13449264.013 7  10455531.01145  23933923.739    23933934.7294
  21927573.936   -15253848.114 8 -11873195.22447  21927573.747    21927581.2694
  20849439.817     1006718.524 9    783028.34647  20849439.343    20849446.5204
  20252819.341    -5335192.380 9  -4043209.79748  20252818.995    20252824.4334
  20263444.309    -3437635.268 9  -2675748.75148  20263443.640    20263450.5014
  21712428.747   -13011015.234 9 -10128225.28647  21712428.329    21712436.3014
  23129973.982     4182919.480 8   3259165.73546  23129974.072    23129981.7384
 01  7 12 18 25  0.0000000  0  9 22 23 06 03 17 18 15 21 26
  24228262.244     6361705.818 8   4953194.09145  24228261.453    24228271.4424
  21113903.668     1417641.186 9   1104754.14248  21113903.159    21113910.0314
  23954996.004    13559998.954 7  10541817.73245  23954996.001    23955007.1824
  21915765.708   -15315901.143 8 -11921548.20847  21915765.441    21915772.9084
  20856240.942     1042458.510 9    810877.66147  20856240.485    20856247.6974
  20254951.652    -5323987.076 9  -4034478.39648  20254951.279    20254956.7414
  20265414.803    -3427280.137 9  -2667679.82248  20265414.116    20265421.0144
  21702502.066   -13063179.990 9 -10168873.12447  21702501.661    21702509.6224
  23144927.263     4261499.446 8   3320396.83146  23144927.370    23144934.9804
 01  7 12 18 25 30.0000000  0  9 22 23 06 03 17 18 15 21 26
  24242377.111     6435879.132 8   5010991.38145  24242376.272    24242386.3094
  21122490.085     1462763.145 9   1139914.09048  21122489.595    21122496.5264
  23976093.624    13670867.351 7  10628208.41145  23976093.615    23976104.9244
  21904042.484   -15377507.022 8 -11969552.76247  21904042.247    21904049.6784
  20863097.055     1078487.536 9    838952.20447  20863096.599    20863103.7884
  20257164.634    -5312357.884 9  -4025416.69748  20257164.277    20257169.7324
  20267447.067    -3416600.363 9  -2659357.92548  20267446.419    20267453.3544
  21692631.208   -13115051.837 9 -10209292.71947  21692630.764    21692638.7594
  23159967.007     4340534.060 8   3381982.19446  23159967.178    23159974.8714
 01  7 12 18 26  0.0000000  0  9 22 23 06 03 17 18 15 21 26
  24256528.729     6510245.889 8   5068939.42945  24256527.865    24256537.9214
  21131128.826     1508160.208 9   1175288.40348  21131128.324    21131135.3324
  23997216.497    13781866.709 8  10714701.16345  23997216.362    23997227.7574
  21892404.678   -15438663.771 8 -12017207.34147  21892404.464    21892411.9234
  20870008.205     1114805.642 9    867252.00147  20870007.704    20870014.9214
  20259458.041    -5300306.086 9  -4016025.69048  20259457.669    20259463.1214
  20269541.122    -3405595.862 9  -2650782.99748  20269540.479    20269547.4524
  21682815.941   -13166631.337 9 -10249484.50547  21682815.519    21682823.4334
  23175092.964     4420020.404 8   3443919.56946  23175092.996    23175100.6624
 01  7 12 18 26 30.0000000  0  9 22 23 06 03 17 18 15 21 26
  24270716.605     6584802.931 8   5127035.74345  24270715.733    24270725.6534
  21139819.585     1553830.583 9   1210875.68448  21139819.118    21139826.0804
  24018363.544    13892994.610 7  10801294.10245  24018363.483    24018374.8894
  21880852.739   -15499369.442 8 -12064510.43347  21880852.541    21880859.9994
  20876974.313     1151412.735 9    895776.97947  20876973.862    20876981.0094
  20261831.648    -5287832.871 9  -4006306.30948  20261831.276    20261836.6764
  20271696.943    -3394266.620 9  -2641955.02048  20271696.337    20271703.3544
  21673056.394   -13217918.297 9 -10289448.34647  21673055.946    21673063.8234
  23190304.161     4499955.674 8   3506206.74046  23190304.206    23190311.8714
 01  7 12 18 27  0.0000000  0  9 22 23 06 03 17 18 15 21 26
  24284940.081     6659547.416 8   5185278.10445  24284939.287    24284949.1934
  21148562.181     1599772.916 9   1246674.88748  21148561.666    21148568.6504
  24039534.879    14004249.192 8  10887985.76145  24039534.856    24039546.0984
  21869387.156   -15559621.486 8 -12111460.05347  21869386.898    21869394.3584
  20883995.524     1188309.444 9    924527.63147  20883995.081    20884002.2184
  20264285.195    -5274939.353 9  -3996259.42148  20264284.827    20264290.2054
  20273914.816    -3382611.669 9  -2632873.24948  20273914.191    20273921.2334
  21663352.642   -13268911.989 9 -10329183.66647  21663352.203    21663360.0084
  23205600.330     4580337.429 8   3568841.80546  23205600.327    23205608.0704
 01  7 12 18 27 30.0000000  0  9 22 23 06 03 17 18 15 21 26
  24299198.557     6734475.768 8   5243663.71945  24299197.746    24299207.7874
  21157356.123     1645985.429 9   1282684.60948  21157355.617    21157362.6734
  24060729.831    14115627.989 8  10974774.14745  24060729.663    24060741.0344
  21858008.241   -15619418.126 8 -12158054.81547  21858007.966    21858015.3974
  20891071.829     1225495.781 9    953503.96347  20891071.402    20891078.5904
  20266818.497    -5261626.792 9  -3985886.00348  20266818.124    20266823.5194
  20276194.667    -3370630.788 9  -2623537.50248  20276194.043    20276201.0994
  21653704.662   -13319612.592 9 -10368690.60047  21653704.212    21653711.9144
  23220980.866     4661162.718 8   3631822.49846  23220980.919    23220988.6154
 01  7 12 18 28  0.0000000  0  9 22 23 06 03 17 18 15 21 26
  24313491.735     6809585.945 8   5302191.04045  24313490.820    24313500.8954
  21166201.318     1692466.995 9   1318903.99648  21166200.814    21166207.8504
  24081948.129    14227128.978 8  11061657.76145  24081947.893    24081959.3254
  21846716.472   -15678756.717 8 -12204292.65447  21846716.203    21846723.6234
  20898203.442     1262972.495 9    982706.56047  20898203.005    20898210.2514
  20269431.396    -5247896.028 9  -3975186.71048  20269431.025    20269436.4274
  20278536.740    -3358323.355 9  -2613947.30448  20278536.112    20278543.1604
  21644112.557   -13370019.658 9 -10407968.80547  21644112.093    21644119.7204
  23236445.244     4742429.469 8   3695147.18046  23236445.434    23236453.2154
 01  7 12 18 28 30.0000000  0  9 22 23 06 03 17 18 15 21 26
  24327818.844     6884874.810 8   5360857.58245  24327817.872    24327827.8914
  21175097.262     1739215.427 9   1355331.32248  21175096.745    21175103.8064
  24103189.074    14338749.376 7  11148634.43845  24103188.880    24103200.3764
  21835512.168   -15737635.720 8 -12250172.38047  21835511.880    21835519.2904
  20905390.188     1300739.032 9   1012134.99347  20905389.770    20905396.9804
  20272123.522    -5233748.906 9  -3964162.98648  20272123.161    20272128.5324
  20280940.866    -3345689.635 9  -2604102.85548  20280940.237    20280947.2834
  21634576.124   -13420133.989 9 -10447018.89847  21634575.655    21634583.2184
  23251993.150     4824134.244 8   3758813.16146  23251993.310    23252001.2254
 01  7 12 18 29  0.0000000  0  9 22 23 06 03 17 18 15 21 26
  24342179.423     6960339.216 8   5419660.91245  24342178.350    24342188.3804
  21184043.637     1786228.986 9   1391965.24948  21184043.132    21184050.1864
  24124452.182    14450487.026 7  11235702.45645  24124451.859    24124463.5774
  21824395.689   -15796053.132 8 -12295692.41147  21824395.415    21824402.7974
  20912632.200     1338795.785 9   1041789.57247  20912631.776    20912638.9594
  20274894.721    -5219186.381 9  -3952815.56948  20274894.363    20274899.7274
  20283407.205    -3332729.214 9  -2594003.83148  20283406.540    20283413.5664
  21625095.422   -13469955.472 9 -10485840.80947  21625094.958    21625102.4794
  23267624.186     4906274.379 8   3822818.38646  23267624.219    23267632.0894
 01  7 12 18 29 30.0000000  0 10 22 23 06 03 17 31 18 15 21 26
  24356572.132     7035973.043 7   5478596.23845  24356571.037    24356581.1734
  21193039.663     1833503.207 9   1428802.28348  21193039.124    21193046.1824
  24145736.929    14562336.902 7  11322857.93045  24145736.594    24145747.9914
  21813366.971   -15854009.446 9 -12340853.15647  21813366.700    21813374.0194
  20919928.924     1377140.096 9   1071668.22247  20919928.465    20919935.6294
  24427861.756    -5922939.821 7  -3881656.38645  24427861.364    24427870.6694
  20277744.168    -5204212.440 9  -3941147.56948  20277743.810    20277749.1624
  20285935.255    -3319444.407 9  -2583652.03748  20285934.600    20285941.6134
  21615669.944   -13519486.805 9 -10524436.62747  21615669.463    21615676.9144
  23283336.663     4988844.405 8   3887158.59146  23283336.732    23283344.6624
 01  7 12 18 30  0.0000000  0 10 22 23 06 03 17 31 18 15 21 26
  24370996.814     7111775.926 7   5537663.33545  24370995.931    24371006.1254
  21202085.387     1881039.068 9   1465843.19848  21202084.882    21202091.9664
  24167043.077    14674299.505 7  11410101.18145  24167042.523    24167053.9454
  21802426.912   -15911499.970 9 -12385650.94247  21802426.604    21802433.8974
  20927280.911     1415774.831 9   1101773.17847  20927280.425    20927287.6014
  24408691.650    -6023678.329 7  -3960153.86545  24408691.415    24408700.5934
  20280672.141    -5188825.780 9  -3929157.96748  20280671.793    20280677.1164
  20288525.510    -3305832.316 9  -2573045.21448  20288524.847    20288531.8974
  21606300.169   -13568725.117 9 -10562804.11147  21606299.700    21606307.1754
  23299131.075     5071844.186 8   3951833.66046  23299131.167    23299139.1004
 01  7 12 18 30 30.0000000  0 10 22 23 06 03 17 31 18 15 21 26
  24385453.797     7187747.529 7   5596861.84945  24385452.802    24385463.2174
  21211181.031     1928836.863 9   1503088.21448  21211180.545    21211187.6414
  24188370.329    14786374.391 7  11497431.92745  24188369.879    24188381.3844
  21791576.108   -15968520.706 8 -12430082.66447  21791575.876    21791583.1574
  20934688.505     1454702.086 9   1132106.07347  20934688.057    20934695.2464
  24389562.738    -6124201.086 7  -4038483.22545  24389562.539    24389571.5104
  20283678.789    -5173025.752 9  -3916846.25748  20283678.472    20283683.8124
  20291178.477    -3291890.652 9  -2562181.58448  20291177.870    20291184.9164
  21596986.401   -13617668.961 9 -10600942.14547  21596985.968    21596993.4174
  23315007.055     5155272.952 8   4016843.00746  23315007.206    23315015.2614
 01  7 12 18 31  0.0000000  0 10 22 23 06 03 17 31 18 15 21 26
  24399941.998     7263884.186 7   5656189.03345  24399941.132    24399951.6784
  21220326.097     1976894.251 9   1540535.51248  21220325.604    21220332.6644
  24209718.286    14898558.401 7  11584847.79245  24209718.041    24209729.3764
  21780815.039   -16025070.516 9 -12474147.42547  21780814.806    21780822.0924
  20942151.754     1493921.420 9   1162666.56647  20942151.300    20942158.5044
  24370475.409    -6224505.759 7  -4116642.66145  24370474.931    24370484.3394
  20286763.752    -5156814.249 9  -3904213.91748  20286763.426    20286768.7744
  20293894.178    -3277619.777 9  -2551061.42148  20293893.530    20293900.5784
  21587728.599   -13666318.814 9 -10638851.09047  21587728.147    21587735.6504
  23330964.157     5239127.272 8   4082183.94546  23330964.190    23330972.3134
 01  7 12 18 31 30.0000000  0 10 22 23 06 03 17 31 18 15 21 26
  24414460.930     7340182.035 7   5715641.79345  24414460.231    24414470.8204
  21229520.134     2025208.975 9   1578183.33048  21229519.619    21229526.6214
  24231086.700    15010848.777 7  11672346.50745  24231086.357    24231097.6094
  21770143.837   -16081147.719 9 -12517843.92847  21770143.583    21770150.9234
  20949670.395     1533432.288 9   1193454.22147  20949669.945    20949677.2134
  24351429.894    -6324590.526 7  -4194630.67445  24351429.437    24351438.7344
  20289926.714    -5140192.878 9  -3891262.20648  20289926.386    20289931.7424
  20296672.409    -3263020.005 9  -2539684.98248  20296671.777    20296678.8494
  21578526.677   -13714674.867 9 -10676531.10747  21578526.247    21578533.8054
  23347001.393     5323403.691 8   4147853.80046  23347001.497    23347009.7114
 01  7 12 18 32  0.0000000  0 10 22 23 06 03 17 31 18 15 21 26
  24429009.944     7416637.777 7   5775217.59145  24429009.349    24429019.9464
  21238762.835     2073779.620 9   1616030.56647  21238762.321    21238769.3284
  24252474.843    15123243.230 8  11759926.32745  24252474.491    24252485.8634
  21759563.042   -16136750.216 9 -12561170.53247  21759562.818    21759570.1204
  20957244.562     1573235.031 9   1224469.31247  20957244.122    20957251.4474
  24332426.734    -6424452.781 7  -4272445.32645  24332426.232    24332435.6864
  20293167.340    -5123163.274 9  -3877992.39448  20293167.023    20293172.3804
  20299513.363    -3248090.792 9  -2528051.83148  20299512.740    20299519.8134
  21569380.578   -13762737.469 9 -10713982.46647  21569380.199    21569387.7884
  23363118.568     5408099.471 8   4213850.43446  23363118.709    23363126.8454
 01  7 12 18 32 30.0000000  0 10 22 23 06 03 17 31 18 15 21 26
  24443588.585     7493248.567 7   5834914.20745  24443587.836    24443598.4434
  21248053.859     2122604.153 9   1654075.64247  21248053.369    21248060.3434
  24273882.106    15235739.274 8  11847585.32645  24273882.031    24273893.3914
  21749072.852   -16191876.458 9 -12604126.02947  21749072.620    21749079.9104
  20964874.340     1613329.524 9   1255711.74147  20964873.900    20964881.2184
  24313466.223    -6524090.219 7  -4350084.80045  24313465.709    24313475.2894
  20296485.421    -5105726.711 9  -3864405.46448  20296485.086    20296490.4564
  20302416.979    -3232832.182 9  -2516162.00748  20302416.360    20302423.4344
  21560290.297   -13810506.975 9 -10751205.42447  21560289.902    21560297.5144
  23379315.054     5493211.673 8   4280171.53546  23379315.047    23379323.2424
 01  7 12 18 33  0.0000000  0 10 22 23 06 03 17 31 18 15 21 26
  24458196.121     7570011.862 7   5894729.67945  24458195.353    24458206.1944
  21257392.861     2171680.882 9   1692317.23147  21257392.374    21257399.3694
  24295308.431    15348334.630 8  11935321.73745  24295308.118    24295319.6304
  21738673.615   -16246524.471 9 -12646708.87847  21738673.420    21738680.7344
  20972559.661     1653715.871 9   1287181.58447  20972559.219    20972566.6074
  24294548.928    -6623500.207 7  -4427547.01645  24294548.484    24294558.2584
  20299880.663    -5087884.445 9  -3850502.40748  20299880.325    20299885.7134
  20305383.395    -3217243.661 9  -2504015.11048  20305382.786    20305389.8324
  21551255.838   -13857983.320 9 -10788199.94647  21551255.407    21551263.0864
  23395590.117     5578737.395 8   4346814.86146  23395590.090    23395598.2894
 01  7 12 18 33 30.0000000  0 10 22 23 06 03 17 31 18 15 21 26
  24472832.140     7646924.241 7   5954661.29245  24472831.342    24472842.2084
  21266779.447     2221007.734 9   1730753.71947  21266778.965    21266785.9554
  24316753.418    15461026.719 8  12023133.49545  24316752.961    24316764.5664
  21728365.798   -16300692.422 9 -12688917.65347  21728365.595    21728372.8934
  20980300.475     1694393.952 9   1318878.75247  20980300.001    20980307.4204
  24275675.580    -6722680.810 7  -4504830.49345  24275674.850    24275684.7484
  20303352.813    -5069638.241 9  -3836284.59348  20303352.482    20303357.8694
  20308412.546    -3201325.293 9  -2491611.18348  20308411.959    20308418.9824
  21542277.073   -13905166.720 9 -10824966.20147  21542276.662    21542284.3444
  23411943.269     5664673.439 8   4413777.92346  23411943.278    23411951.5234
 01  7 12 18 34  0.0000000  0 10 22 23 06 03 17 31 18 15 21 26
  24487495.816     7723982.331 7   6014706.47045  24487495.060    24487505.9574
  21276213.394     2270583.288 9   1769384.00047  21276212.904    21276219.8534
  24338216.236    15573813.158 8  12111018.74345  24338215.863    24338227.4434
  21718149.744   -16354377.988 9 -12730750.54447  21718149.558    21718156.8284
  20988096.823     1735364.048 9   1350803.46847  20988096.413    20988103.8184
  24256846.223    -6821628.895 7  -4581932.78145  24256845.436    24256855.4644
  20306901.547    -5050989.376 9  -3821753.01648  20306901.215    20306906.6434
  20311504.531    -3185076.849 9  -2478950.05948  20311503.919    20311510.9614
  21533354.064   -13952057.352 9 -10861504.32547  21533353.630    21533361.3844
  23428373.986     5751017.133 8   4481058.64546  23428373.975    23428382.2384
 01  7 12 18 34 30.0000000  0 11 14 22 23 06 03 17 31 18 15 21 26
  24293332.593                                    24293336.413    24293342.7814
  24502186.791     7801183.298 7   6074862.95745  24502186.049    24502196.8394
  21285694.344     2320405.961 9   1808206.84547  21285693.871    21285700.8154
  24359696.681    15686691.904 8  12198975.92045  24359696.382    24359707.9134
  21708025.936   -16407579.151 9 -12772205.97147  21708025.727    21708033.0004
  20995948.902     1776626.505 9   1382955.99747  20995948.477    20995955.8174
  24238061.587    -6920341.984 7  -4658851.98045  24238060.840    24238070.9884
  20310526.719    -5031938.880 9  -3806908.48548  20310526.405    20310531.8674
  20314659.378    -3168497.898 9  -2466031.39648  20314658.774    20314665.8874
  21524486.806   -13998654.776 9 -10897813.97947  21524486.388    21524494.1454
  23444881.590     5837765.701 8   4548654.83246  23444881.755    23444889.9744
 01  7 12 18 35  0.0000000  0 11 14 22 23 06 03 17 31 18 15 21 26
  24271527.972    -1708626.357 8  -1317961.64755  24271527.201    24271537.3724
  24516904.595     7878524.882 7   6135129.03745  24516903.721    24516914.4874
  21295222.094     2370474.374 9   1847221.17347  21295221.575    21295228.5484
  24381194.256    15799660.938 7  12287003.43645  24381193.959    24381205.5814
  21697994.585   -16460294.122 9 -12813282.55747  21697994.391    21698001.6844
  21003856.585     1818181.539 9   1415336.50947  21003856.183    21003863.5144
  24219322.265    -7018817.103 7  -4735585.74545  24219321.672    24219331.6904
  20314228.134    -5012487.912 9  -3791751.89448  20314227.773    20314233.2754
  20317877.191    -3151587.962 9  -2452854.81848  20317876.607    20317883.7434
  21515675.350   -14044959.030 9 -10933895.18647  21515674.938    21515682.7184
  23461465.919     5924916.564 8   4616564.49346  23461466.045    23461474.3864
 01  7 12 18 35 30.0000000  0 11 14 22 23 06 03 17 31 18 15 21 26
  24249732.195    -1823163.012 8  -1407210.78445  24249731.870    24249742.4064
  24531648.410     7956003.747 8   6195502.09145  24531647.583    24531658.4134
  21304796.165     2420786.397 9   1886425.32847  21304795.637    21304802.6524
  24402708.293    15912717.408 7  12375099.02345  24402708.037    24402719.9344
  21688056.162   -16512521.242 9 -12853978.99247  21688055.881    21688063.1554
  21011819.874     1860028.871 9   1447944.78247  21011819.490    21011826.8424
  24200628.594    -7117052.120 7  -4812132.42545  24200628.234    24200638.1174
  20318005.384    -4992638.208 9  -3776284.60148  20318005.038    20318010.5244
  20321158.067    -3134347.022 9  -2439420.31448  20321157.416    20321164.5834
  21506919.615   -14090970.569 9 -10969748.30447  21506919.210    21506926.9724
  23478126.120     6012466.460 8   4684785.10146  23478126.281    23478134.6794
 01  7 12 18 36  0.0000000  0 11 14 22 23 06 03 17 31 18 15 21 26
  24227945.765    -1937651.053 8  -1496422.04845  24227944.803    24227955.8794
  24546418.016     8033617.008 7   6255979.86145  24546417.029    24546427.9954
  21314416.340     2471340.596 9   1925818.19147  21314415.807    21314422.8134
  24424238.668    16025859.201 7  12463261.12745  24424238.560    24424250.5274
  21678210.879   -16564258.355 9 -12894293.61047  21678210.597    21678217.8874
  21019838.837     1902168.914 9   1480781.15047  21019838.479    21019845.8334
  24181981.241    -7215044.389 7  -4888489.95845  24181980.823    24181990.6744
  20321858.391    -4972390.911 9  -3760507.49948  20321858.010    20321863.4814
  20324502.012    -3116774.541 9  -2425727.47348  20324501.370    20324508.5074
  21498219.590   -14136689.407 9 -11005373.34447  21498219.182    21498226.9634
  23494861.769     6100412.742 8   4753314.57745  23494861.975    23494870.3594
 01  7 12 18 36 30.0000000  0 11 14 22 23 06 03 17 31 18 15 21 26
  24206169.013    -2052087.792 8  -1585593.37545  24206168.198    24206178.9144
  24561212.181     8111361.121 7   6316559.58945  24561211.347    24561222.3554
  21324082.271     2522135.476 9   1965398.60447  21324081.755    21324088.7924
  24445785.328    16139084.200 7  12551488.02245  24445784.785    24445796.8324
  21668459.121   -16615503.795 9 -12934225.10647  21668458.898    21668466.2344
  21027913.535     1944601.873 9   1513845.75547  21027913.209    21027920.5924
  24163380.546    -7312791.081 7  -4964656.14945  24163380.140    24163389.9654
  20325786.687    -4951747.405 9  -3744421.65948  20325786.311    20325791.7784
  20327909.137    -3098870.280 9  -2411776.10448  20327908.492    20327915.5744
  21489575.319   -14182115.569 9 -11040770.32847  21489574.887    21489582.6444
  23511672.436     6188752.700 8   4822150.81745  23511672.687    23511680.8644
 01  7 12 18 37  0.0000000  0 11 14 22 23 06 03 17 31 18 15 21 26
  24184402.748    -2166470.070 8  -1674722.28245  24184402.087    24184412.4954
  24576031.066     8189233.919 8   6377239.60345  24576030.288    24576041.0034
  21333793.774     2573169.691 9   2005165.50947  21333793.262    21333800.2984
  24467346.993    16252390.353 7  12639778.17745  24467346.659    24467359.7954
  21658801.414   -16666255.299 9 -12973771.70247  21658801.134    21658808.4944
  21036044.059     1987328.092 9   1547138.87947  21036043.750    21036051.1684
  24144827.182    -7410289.287 8  -5040628.73345  24144826.914    24144836.5634
  20329790.250    -4930708.668 9  -3728027.84248  20329789.869    20329795.3304
  20331379.490    -3080633.508 9  -2397565.62948  20331378.839    20331385.8984
  21480986.635   -14227249.196 9 -11075939.35047  21480986.203    21480993.9494
  23528557.402     6277483.745 8   4891291.79845  23528557.569    23528565.8104
 01  7 12 18 37 30.0000000  0 11 14 22 23 06 03 17 31 18 15 21 26
  24162647.082    -2280795.513 8  -1763806.89145  24162646.648    24162656.9164
  24590873.924     8267232.657 8   6438017.75245  24590873.112    24590883.6454
  21343550.510     2624441.519 9   2045117.56947  21343549.958    21343557.0444
  24488923.795    16365775.082 7  12728129.54645  24488923.810    24488936.0274
  21649238.058   -16716510.930 9 -13012931.91247  21649237.805    21649245.1884
  21044230.488     2030347.577 9   1580660.52547  21044230.113    21044237.6044
  24126321.785    -7507536.516 8  -5116405.74345  24126321.365    24126330.9374
  20333868.718    -4909276.064 9  -3711327.12148  20333868.326    20333873.8174
  20334913.106    -3062064.038 9  -2383095.90848  20334912.493    20334919.5044
  21472453.746   -14272089.701 9 -11110879.96547  21472453.330    21472461.0044
  23545516.151     6366602.680 8   4960735.03745  23545516.308    23545524.6364
 01  7 12 18 38  0.0000000  0 11 14 22 23 06 03 17 31 18 15 21 26
  24140902.902    -2395061.430 8  -1852845.13245  24140902.431    24140912.6804
  24605740.155     8345354.188 8   6498891.56245  24605739.301    24605749.8054
  21353352.097     2675949.201 9   2085253.41147  21353351.562    21353358.6514
  24510514.771    16479236.173 7  12816540.48745  24510515.093    24510527.1054
  21639769.466   -16766268.724 9 -13051704.20347  21639769.190    21639776.5924
  21052472.750     2073660.406 9   1614410.75247  21052472.347    21052479.8074
  24107864.687    -7604530.208 8  -5191985.20845  24107864.033    24107873.5554
  20338021.901    -4887451.092 9  -3694320.65648  20338021.531    20338026.9804
  20338510.143    -3043161.711 9  -2368366.82348  20338509.533    20338516.4804
  21463976.556   -14316637.820 9 -11145592.75147  21463976.119    21463983.7624
  23562548.266     6456106.644 8   5030478.30645  23562548.408    23562556.7774
 01  7 12 18 38 30.0000000  0 10 14 22 23 03 17 31 18 15 21 26
  24119170.446    -2509265.147 7  -1941834.91945  24119170.017    24119180.1804
  24620628.997     8423595.405 8   6559858.63945  24620628.144    24620638.6154
  21363198.372     2727691.289 9   2125571.90347  21363197.806    21363204.8334
  21630395.923   -16815526.851 9 -13090087.13747  21630395.659    21630403.0634
  21060770.800     2117266.897 9   1648389.80247  21060770.372    21060777.8334
  24089456.021    -7701267.546 7  -5267364.87245  24089455.557    24089464.9074
  20342249.512    -4865235.022 9  -3677009.44148  20342249.134    20342254.5704
  20342170.562    -3023926.102 9  -2353378.03748  20342169.949    20342176.9064
  21455554.960   -14360893.517 9 -11180077.67847  21455554.529    21455562.1334
  23579653.200     6545992.885 8   5100519.44145  23579653.365    23579661.7044
 01  7 12 18 39  0.0000000  0 10 14 22 23 03 17 31 18 15 21 26
  24097450.472    -2623403.495 7  -2030773.70045  24097449.903    24097460.2674
  24635540.247     8501953.523 8   6620916.80245  24635539.261    24635549.7924
  21373088.929     2779666.573 9   2166072.11247  21373088.359    21373095.3564
  21621117.904   -16864283.205 9 -13128079.08647  21621117.632    21621125.0214
  21069124.817     2161167.510 9   1682598.04547  21069124.399    21069131.8854
  24071097.109    -7797745.200 7  -5342542.18145  24071096.487    24071105.8174
  20346551.321    -4842628.951 9  -3659394.33148  20346550.956    20346556.3734
  20345894.514    -3004356.552 9  -2338129.03748  20345893.891    20345900.8454
  21447189.057   -14404856.604 9 -11214334.59147  21447188.630    21447196.1994
  23596830.488     6636258.941 8   5170856.55345  23596830.524    23596838.6914
 01  7 12 18 39 30.0000000  0 10 14 22 23 03 17 31 18 15 21 26
  24075743.344    -2737474.342 7  -2119659.92445  24075742.730    24075753.0914
  24650472.972     8580425.482 8   6682063.69245  24650472.223    24650482.7044
  21383023.457     2831872.754 9   2206752.23747  21383022.881    21383029.9184
  21611935.543   -16912536.556 9 -13165679.07547  21611935.289    21611942.6574
  21077534.824     2205361.724 9   1717035.07047  21077534.356    21077541.7824
  24052787.775    -7893961.595 8  -5417515.91745  24052787.102    24052796.3914
  20350926.955    -4819634.784 9  -3641476.80348  20350926.577    20350932.0134
  20349681.924    -2984453.490 9  -2322620.15748  20349681.279    20349688.2614
  21438878.690   -14448527.856 9 -11248364.10647  21438878.273    21438885.7784
  23614079.255     6726901.384 8   5241486.93945  23614079.373    23614087.4854
 01  7 12 18 40  0.0000000  0 10 14 22 23 03 17 31 18 15 21 26
  24054049.330    -2851474.981 7  -2208491.47645  24054049.108    24054059.1554
  24665426.954     8659008.781 7   6743297.32745  24665426.231    24665436.7444
  21393001.641     2884308.340 9   2247611.11947  21393001.084    21393008.1264
  21602849.346   -16960285.030 9 -13202885.66147  21602849.079    21602856.4294
  21086000.679     2249850.009 9   1751701.24247  21086000.176    21086007.5954
  24034528.682    -7989913.883 7  -5492283.88045  24034527.992    24034537.2074
  20355376.229    -4796253.712 9  -3623257.79448  20355375.886    20355381.3154
  20353532.979    -2964216.217 9  -2306850.85248  20353532.333    20353539.3114
  21430623.928   -14491906.807 9 -11282165.85347  21430623.498    21430630.9794
  23631399.148     6817917.473 8   5312408.49145  23631399.243    23631407.3384
 01  7 12 18 40 30.0000000  0 10 14 22 23 03 17 31 18 15 21 26
  24032369.426    -2965402.585 7  -2297266.09845  24032369.257    24032379.2424
  24680401.419     8737700.225 8   6804615.23845  24680400.605    24680411.3734
  21403023.216     2936971.905 9   2288647.64647  21403022.666    21403029.6694
  21593859.566   -17007526.722 9 -13239697.35647  21593859.282    21593866.5614
  21094522.468     2294632.379 9   1786596.56647  21094522.016    21094529.4174
  24016320.158    -8085599.154 7  -5566843.76345  24016319.478    24016328.7894
  20359898.935    -4772486.898 9  -3604738.20948  20359898.585    20359903.9914
  20357447.672    -2943644.558 9  -2290820.99548  20357447.013    20357453.9654
  21422424.736   -14534993.698 9 -11315740.02647  21422424.304    21422431.7534
  23648789.609     6909304.317 8   5383618.92745  23648789.683    23648797.8274
 01  7 12 18 41  0.0000000  0 10 14 22 23 03 17 31 18 15 21 26
  24010703.988    -3079254.382 7  -2385981.68845  24010703.717    24010713.7664
  24695396.069     8816496.575 7   6866014.90545  24695395.164    24695406.0104
  21413087.879     2989861.859 9   2329860.58847  21413087.318    21413094.3404
  21584966.561   -17054259.695 9 -13276112.63547  21584966.259    21584973.5224
  21103100.360     2339709.163 9   1821721.30647  21103099.858    21103107.2694
  23998162.828    -8181014.843 7  -5641193.61145  23998162.358    23998171.6774
  20364494.750    -4748335.666 9  -3585919.07448  20364494.424    20364499.8024
  20361426.031    -2922738.146 9  -2274530.28348  20361425.369    20361432.3574
  21414281.123   -14577788.471 9 -11349086.56947  21414280.682    21414288.1564
  23666249.974     7001059.146 8   5455116.10546  23666250.116    23666258.4234
 01  7 12 18 41 30.0000000  0 10 14 22 23 03 17 31 18 15 21 26
  23989053.563    -3193027.831 7  -2474636.20245  23989053.185    23989063.3514
  24710409.790     8895394.938 7   6927494.01945  24710409.009    24710419.8454
  21423195.236     3042976.390 9   2371248.52147  21423194.661    21423201.7164
  21576170.713   -17100482.026 9 -13312130.01447  21576170.418    21576177.7004
  21111734.136     2385080.252 9   1857075.36947  21111733.671    21111741.1074
  23980057.418    -8276158.514 7  -5715331.53945  23980057.072    23980066.2864
  20369163.419    -4723801.560 9  -3566801.60248  20369163.072    20369168.4894
  20365468.100    -2901496.771 9  -2257978.56848  20365467.450    20365474.4164
  21406193.044   -14620291.601 9 -11382205.86347  21406192.601    21406200.0734
  23683779.947     7093178.936 8   5526897.66546  23683780.030    23683788.3794
 01  7 12 18 42  0.0000000  0 10 14 22 23 03 17 31 18 15 21 26
  23967418.680    -3306720.674 7  -2563227.91845  23967418.102    23967428.3154
  24725442.552     8974392.362 7   6989050.33545  24725441.723    24725452.6864
  21433344.955     3096313.658 9   2412810.01747  21433344.394    21433351.4834
  21567472.260   -17146192.479 9 -13347748.52647  21567471.980    21567479.2634
  21120423.935     2430745.449 9   1892658.60947  21120423.455    21120430.9374
  23962004.209    -8371027.615 7  -5789255.36645  23962004.030    23962013.0714
  20373904.573    -4698886.562 9  -3547387.32548  20373904.260    20373909.6614
  20369573.937    -2879920.674 9  -2241166.03248  20369573.258    20369580.1934
  21398160.333   -14662503.711 9 -11415098.38747  21398159.892    21398167.3374
  23701378.730     7185660.213 8   5598960.91146  23701378.747    23701387.0164
 01  7 12 18 42 30.0000000  0 10 14 22 23 03 17 31 18 15 21 26
  23945799.688    -3420329.965 8  -2651754.53945  23945799.068    23945809.0554
  24740493.410     9053486.338 7   7050681.89045  24740492.744    24740503.9814
  21443536.779     3149872.279 9   2454543.99947  21443536.249    21443543.3524
  21558871.613   -17191389.549 9 -13382967.00947  21558871.294    21558878.5544
  21129169.715     2476705.035 9   1928471.23547  21129169.260    21129176.7624
  23944004.057    -8465619.636 7  -5862963.35645  23944003.811    23944012.5634
  20378718.069    -4673591.803 9  -3527677.13048  20378717.717    20378723.1274
  20373743.516    -2858009.136 9  -2224092.11348  20373742.891    20373749.8444
  21390183.026   -14704424.562 9 -11447763.95847  21390182.595    21390190.0324
  23719045.743     7278500.587 8   5671303.97946  23719045.746    23719054.0264
 01  7 12 18 43  0.0000000  0 10 14 22 23 03 17 31 18 15 21 26
  23924196.797    -3533852.811 7  -2740213.87945  23924196.184    23924206.2704
  24755562.390     9132673.544 7   7112386.12345  24755561.681    24755572.9934
  21453770.498     3203650.926 9   2496449.43047  21453769.954    21453777.0414
  21550368.997   -17236071.010 9 -13417783.70647  21550368.680    21550375.9894
  21137971.625     2522959.240 9   1964513.44447  21137971.187    21137978.7204
  23926057.305    -8559931.572 7  -5936453.09045  23926056.686    23926065.6664
  20383603.569    -4647918.420 9  -3507671.90948  20383603.225    20383608.6524
  20377977.020    -2835761.924 9  -2206756.62948  20377976.411    20377983.3354
  21382261.129   -14746054.223 9 -11480202.62847  21382260.709    21382268.1124
  23736780.357     7371697.077 8   5743924.51846  23736780.479    23736788.8424
 01  7 12 18 43 30.0000000  0 10 14 22 23 03 17 31 18 15 21 26
  23902610.847    -3647286.555 8  -2828603.79745  23902610.427    23902620.3884
  24770648.435     9211950.739 7   7174160.46345  24770647.817    24770659.1704
  21464045.752     3257647.774 9   2538524.88247  21464045.231    21464052.3154
  21541964.684   -17280235.486 9 -13452197.57547  21541964.438    21541971.7234
  21146829.604     2569507.990 9   2000785.16147  21146829.184    21146836.6624
  23908164.131    -8653961.092 8  -6009722.76645  23908163.443    23908172.3854
  20388560.855    -4621867.916 9  -3487372.82948  20388560.483    20388565.9264
  20382274.576    -2813178.465 9  -2189159.13848  20382273.925    20382280.8304
  21374394.701   -14787392.298 9 -11512414.09347  21374394.275    21374401.7004
  23754582.304     7465246.957 8   5816820.43445  23754582.375    23754590.8474
 01  7 12 18 44  0.0000000  0 10 14 22 23 03 17 31 18 15 21 26
  23881042.455    -3760628.315 8  -2916921.97845  23881042.149    23881052.0544
  24785751.174     9291315.708 7   7236003.17245  24785750.582    24785761.7464
  21474362.318     3311861.441 9   2580769.28447  21474361.779    21474368.8854
  21533659.303   -17323880.874 9 -13486206.95347  21533659.048    21533666.2044
  21155743.770     2616351.765 9   2037286.76947  21155743.284    21155750.7824
  23890325.204    -8747705.082 8  -6082769.97445  23890324.473    23890333.4314
  20393589.627    -4595441.488 9  -3466780.82048  20393589.262    20393594.6984
  20386636.091    -2790258.584 9  -2171299.50548  20386635.456    20386642.3394
  21366583.690   -14828439.224 9 -11544398.68547  21366583.282    21366590.7004
  23772450.894     7559147.151 8   5889989.32345  23772451.124    23772459.5714
 01  7 12 18 44 30.0000000  0 10 14 22 23 03 17 31 18 15 21 26
  23859492.341    -3873875.445 8  -3005166.38045  23859491.888    23859501.8184
  24800870.148     9370765.595 7   7297912.04145  24800869.495    24800880.5734
  21484719.796     3366290.297 9   2623181.36247  21484719.278    21484726.4224
  21525452.957   -17367005.518 9 -13519810.56047  21525452.689    21525459.8754
  21164713.938     2663490.363 9   2074018.11347  21164713.504    21164721.0384
  23872540.969    -8841161.210 7  -6155592.84545  23872540.314    23872549.2694
  20398689.653    -4568640.671 9  -3445897.08148  20398689.301    20398694.7394
  20391061.658    -2767002.229 9  -2153177.68648  20391060.992    20391067.8844
  21358828.019   -14869195.728 9 -11576156.97647  21358827.572    21358834.9684
  23790385.838     7653394.887 8   5963429.03145  23790385.978    23790394.3824
 01  7 12 18 45  0.0000000  0 10 14 22 23 03 17 31 18 15 21 26
  23837960.559    -3987025.594 8  -3093335.23845  23837960.024    23837969.9724
  24816004.386     9450297.365 7   7359884.73045  24816003.968    24816015.0704
  21495117.852     3420932.515 9   2665759.70347  21495117.340    21495124.5254
  21517345.918   -17409608.045 9 -13553007.31747  21517345.652    21517352.8304
  21173740.277     2710923.888 9   2110979.26747  21173739.835    21173747.3384
  23854811.963    -8934326.898 8  -6228189.40145  23854811.508    23854820.3784
  20403860.641    -4541466.986 9  -3424722.78948  20403860.281    20403865.7444
  20395551.293    -2743409.210 9  -2134793.53048  20395550.624    20395557.5454
  21351127.596   -14909661.723 9 -11607688.89047  21351127.142    21351134.5084
  23808386.092     7747986.912 7   6037136.99945  23808386.227    23808394.7194
 01  7 12 18 45 30.0000000  0 10 14 22 23 03 17 31 18 15 21 26
  23816447.620    -4100075.164 8  -3181425.66145  23816447.207    23816457.3284
  24831153.992     9529908.102 7   7421918.96345  24831153.510    24831164.6694
  21505556.402     3475787.399 9   2708503.76147  21505555.884    21505563.0724
  21509338.665   -17451686.045 9 -13585795.35847  21509338.395    21509345.6364
  21182822.886     2758653.029 9   2148170.76747  21182822.467    21182829.9504
  23837138.949    -9027198.808 8  -6300557.04545  23837138.492    23837147.3214
  20409102.437    -4513921.259 9  -3403258.60148  20409102.063    20409107.5354
  20400105.124    -2719478.524 9  -2116146.26348  20400104.472    20400111.4094
  21343482.481   -14949837.072 9 -11638994.33447  21343482.005    21343489.3624
  23826451.431     7842921.147 7   6111111.62445  23826451.580    23826460.2814
 01  7 12 18 46  0.0000000  0  9 14 23 03 17 31 18 15 21 26
  23794954.700    -4213020.260 8  -3269434.73145  23794954.476    23794964.4244
  21516035.317     3530854.746 9   2751413.37447  21516034.839    21516042.0194
  21501431.770   -17493236.722 9 -13618172.49447  21501431.569    21501438.8334
  21191962.090     2806679.333 9   2185593.82347  21191961.600    21191969.1054
  23819522.671    -9119772.783 8  -6372692.54345  23819522.218    23819531.0824
  20414415.001    -4486003.480 9  -3381504.49948  20414414.645    20414420.1134
  20404723.553    -2695208.439 9  -2097234.52748  20404722.914    20404729.8324
  21335892.945   -14989720.400 9 -11670072.22647  21335892.459    21335899.7864
  23844581.825     7938195.993 7   6185351.66545  23844581.840    23844590.6964
 01  7 12 18 46 30.0000000  0  9 14 23 03 17 31 18 15 21 26
  23773482.155    -4325858.076 7  -3357360.17445  23773481.972    23773491.9994
  21526554.395     3586132.873 9   2794487.22847  21526553.967    21526561.1274
  21493625.587   -17534258.565 9 -13650137.55647  21493625.383    21493632.6204
  21201157.729     2855002.811 9   2223248.45647  21201157.294    21201164.7994
  23801963.467    -9212046.570 8  -6444594.13245  23801963.054    23801971.8584
  20419798.072    -4457715.146 9  -3359461.65448  20419797.728    20419803.2664
  20409406.633    -2670598.923 9  -2078058.29648  20409405.962    20409412.9084
  21328358.876   -15029311.957 9 -11700922.75847  21328358.415    21328365.7354
  23862776.253     8033808.499 7   6259854.82645  23862776.303    23862785.2354
 01  7 12 18 47  0.0000000  0  9 14 23 03 17 31 18 15 21 26
  23752029.897    -4438589.154 8  -3445202.45345  23752029.772    23752039.9664
  21537112.666     3641616.835 9   2837721.47047  21537112.217    21537119.3604
  21485919.717   -17574753.244 9 -13681691.84247  21485919.548    21485926.7454
  21210409.316     2903620.088 9   2261132.01747  21210408.889    21210416.3914
  23784461.292    -9304020.931 8  -6516262.40745  23784460.910    23784469.7134
  20425250.754    -4429061.031 9  -3337133.78648  20425250.423    20425255.9744
  20414153.688    -2645652.982 9  -2058619.92048  20414153.036    20414159.9744
  21320879.738   -15068615.077 9 -11731548.53847  21320879.272    21320886.5924
  23881033.969     8129752.360 7   6334616.16845  23881033.884    23881042.7934
 01  7 12 18 47 30.0000000  0  9 14 23 03 17 31 18 15 21 26
  23730598.711    -4551210.798 7  -3532959.47245  23730598.429    23730608.6164
  21547709.975     3697305.588 9   2881115.29047  21547709.481    21547716.6094
  21478314.549   -17614718.859 9 -13712833.86247  21478314.303    21478321.5254
  21219716.996     2952531.598 9   2299244.86047  21219716.496    21219723.9164
  23767016.577    -9395692.787 8  -6587694.94545  23767016.268    23767025.0794
  20430772.888    -4400042.264 9  -3314521.76948  20430772.550    20430778.0684
  20418964.858    -2620370.118 9  -2038919.00248  20418964.185    20418971.1604
  21313455.417   -15107629.856 9 -11761949.63847  21313455.002    21313462.2784
  23899353.770     8226024.725 7   6409633.49745  23899353.771    23899362.9634
 01  7 12 18 48  0.0000000  0  9 14 23 03 17 31 18 15 21 26
  23709188.909    -4663719.207 7  -3620628.19545  23709188.631    23709198.9154
  21558346.009     3753198.303 9   2924668.03347  21558345.518    21558352.6964
  21470810.386   -17654153.187 9 -13743561.90147  21470810.177    21470817.3604
  21229080.611     3001738.211 9   2337587.64947  21229080.164    21229087.6224
  23749630.076    -9487058.425 8  -6658888.85545  23749629.813    23749638.7274
  20436364.200    -4370659.645 9  -3291626.23148  20436363.840    20436369.3824
  20423840.326    -2594749.350 9  -2018954.77648  20423839.630    20423846.6594
  21306086.094   -15146355.631 9 -11792125.55047  21306085.694    21306092.9594
  23917736.047     8322623.802 8   6484905.39445  23917736.216    23917745.1844
 01  7 12 18 48 30.0000000  0  9 14 23 03 17 31 18 15 21 26
  23687801.187    -4776111.674 8  -3708206.61845  23687800.966    23687811.1184
  21569020.522     3809293.374 9   2968378.46147  21569020.028    21569027.2394
  21463407.727   -17693054.464 9 -13773874.56847  21463407.462    21463414.6734
  21238500.561     3051239.964 9   2376160.42747  21238500.062    21238507.5544
  23732302.645    -9578115.331 8  -6729842.20845  23732302.269    23732311.1934
  20442024.479    -4340914.552 9  -3268448.24348  20442024.141    20442029.7244
  20428780.188    -2568790.308 9  -1998726.96448  20428779.500    20428786.5454
  21298771.813   -15184792.421 9 -11822076.27347  21298771.417    21298778.7064
  23936179.981     8419546.499 8   6560429.50345  23936180.107    23936189.0334
 01  7 12 18 49  0.0000000  0  9 14 23 03 17 31 18 15 21 26
  23666436.055    -4888385.875 7  -3795692.89145  23666435.748    23666445.8384
  21579733.226     3865589.100 9   3012245.24447  21579732.752    21579739.9434
  21456106.753   -17731421.470 9 -13803770.92147  21456106.486    21456113.6974
  21247976.595     3101036.772 8   2414963.11247  21247976.092    21247983.5554
  23715034.111    -9668861.035 8  -6800553.07345  23715033.814    23715042.8164
  20447753.447    -4310808.531 9  -3244989.01648  20447753.105    20447758.6764
  20433784.332    -2542493.142 9  -1978235.67848  20433783.726    20433790.7334
  21291512.352   -15222941.073 9 -11851802.47847  21291511.933    21291519.2514
  23954684.942     8516789.616 8   6636203.28145  23954685.086    23954693.9664
 01  7 12 18 49 30.0000000  0  9 14 23 03 17 31 18 15 21 26
  23645094.241    -5000538.081 8  -3883084.03645  23645093.843    23645103.9694
  21590484.008     3922084.706 9   3056267.78047  21590483.539    21590490.6604
  21448907.826   -17769252.139 9 -13833249.34747  21448907.521    21448914.7344
  21257508.783     3151129.370 8   2453996.27447  21257508.353    21257515.8664
  23697825.457    -9759292.290 8  -6871018.89645  23697825.127    23697834.2224
  20453550.978    -4280342.422 9  -3221249.20148  20453550.631    20453556.1934
  20438853.125    -2515856.726 9  -1957480.04548  20438852.507    20438859.4624
  21284307.779   -15260801.139 9 -11881303.80747  21284307.371    21284314.6964
  23973250.369     8614351.045 8   6712225.10345  23973250.444    23973259.4104
 01  7 12 18 50  0.0000000  0  9 14 23 03 17 31 18 15 21 26
  23623775.835    -5112566.387 7  -3970378.65445  23623775.401    23623785.5344
  21601272.421     3978778.095 9   3100444.42547  21601271.960    21601279.0364
  21441811.147   -17806545.225 9 -13862308.88247  21441810.883    21441818.1144
  21267097.254     3201517.172 8   2493259.45647  21267096.865    21267104.3804
  23680677.280    -9849406.939 8  -6941238.02445  23680676.848    23680685.8654
  20459416.668    -4249518.138 9  -3197230.29148  20459416.321    20459421.8804
  20443986.318    -2488881.518 9  -1936460.41148  20443985.703    20443992.7324
  21277158.164   -15298372.686 9 -11910580.32047  21277157.730    21277165.0504
  23991875.756     8712227.142 8   6788492.11145  23991875.820    23991884.7594
 01  7 12 18 50 30.0000000  0  9 14 23 03 17 31 18 15 21 26
  23602481.403    -5224467.461 8  -4057574.11245  23602481.123    23602491.3234
  21612098.316     4035668.121 9   3144774.29947  21612097.826    21612104.9064
  21434817.153   -17843298.876 9 -13890948.07947  21434816.885    21434824.1034
  21276742.144     3252200.908 8   2532753.24447  21276741.698    21276749.2634
  23663590.055    -9939201.695 8  -7011207.90145  23663589.498    23663598.3874
  20465350.336    -4218336.605 9  -3172932.99948  20465349.983    20465355.5064
  20449184.077    -2461566.678 9  -1915176.13048  20449183.505    20449190.6144
  21270063.380   -15335655.843 9 -11939632.10347  21270062.942    21270070.2684
  24010560.643     8810415.658 8   6865002.55945  24010560.644    24010569.4654
 01  7 12 18 51  0.0000000  0  9 14 23 03 17 31 18 15 21 26
  23581212.167    -5336238.839 8  -4144668.57445  23581211.766    23581221.7684
  21622961.268     4092753.164 9   3189256.13047  21622960.766    21622967.9064
  21427926.015   -17879511.789 9 -13919165.92347  21427925.816    21427932.9854
  21286443.208     3303180.373 8   2572477.47647  21286442.762    21286450.4104
  23646564.091   -10028674.339 8  -7080926.77445  23646563.415    23646572.3464
  20471351.653    -4186799.504 9  -3148358.63748  20471351.298    20471356.8144
  20454446.593    -2433912.233 9  -1893627.22348  20454446.021    20454453.0744
  21263023.335   -15372651.332 9 -11968459.73047  21263022.896    21263030.2654
  24029304.169     8908913.408 8   6941753.97545  24029304.159    24029313.0694
 01  7 12 18 51 30.0000000  0  9 14 23 03 17 31 18 15 21 26
  23559967.614    -5447877.768 8  -4231659.72645  23559967.344    23559977.5734
  21633861.046     4150031.775 9   3233888.79247  21633860.540    21633867.7124
  21421138.066   -17915182.703 9 -13946961.43047  21421137.845    21421145.0184
  21296200.544     3354455.566 8   2612432.13147  21296200.097    21296207.7524
  23629599.705   -10117822.272 7  -7150392.61845  23629599.069    23629608.1794
  20477420.336    -4154908.391 9  -3123508.42748  20477420.007    20477425.4904
  20459773.785    -2405918.005 9  -1871813.55048  20459773.184    20459780.2314
  21256038.095   -15409359.215 9 -11997063.24647  21256037.631    21256044.9854
  24048106.010     9007717.363 8   7018743.97545  24048105.943    24048114.8414
 01  7 12 18 52  0.0000000  0 10 14 23 03 17 31 18 15 29 21 26
  23538749.419    -5559380.889 8  -4318545.15145  23538749.103    23538759.0304
  21644797.500     4207503.200 9   3278671.69447  21644796.969    21644804.2214
  21414453.704   -17950309.328 9 -13974332.81647  21414453.472    21414460.6664
  21306014.333     3406027.207 8   2652617.78847  21306013.864    21306021.5504
  23612697.645   -10206642.236 8  -7219602.89245  23612697.110    23612706.1804
  20483556.273    -4122663.942 9  -3098382.88748  20483555.949    20483561.4144
  20465165.761    -2377582.857 9  -1849734.22048  20465165.161    20465172.2204
  24400503.624    -1903876.876 8  -1461136.41545  24400502.204    24400514.7484
  21249107.579   -15445779.075 9 -12025442.33347  21249107.159    21249114.4914
  24066965.546     9106825.405 8   7095970.93945  24066965.496    24066974.5664
 01  7 12 18 52 30.0000000  0 10 14 23 03 17 31 18 15 29 21 26
  23517557.142    -5670746.728 8  -4405323.57045  23517556.804    23517566.6964
  21655770.023     4265164.554 9   3323602.59547  21655769.553    21655776.8614
  21407872.905   -17984891.678 9 -14001280.09547  21407872.688    21407879.8804
  21315884.236     3457894.040 8   2693033.47647  21315883.801    21315891.5114
  23595858.371   -10295132.995 8  -7288556.64645  23595857.847    23595866.9194
  20489758.919    -4090069.132 9  -3072984.33948  20489758.575    20489764.0574
  20470622.420    -2348907.945 9  -1827390.14348  20470621.803    20470628.8964
  24379409.912    -2014720.376 8  -1547507.96945  24379409.976    24379421.8794
  21242231.574   -15481912.794 9 -12053598.44847  21242231.119    21242238.4584
  24085882.288     9206233.100 8   7173431.37445  24085882.290    24085891.3734
 01  7 12 18 53  0.0000000  0 10 14 23 03 17 31 18 15 29 21 26
  23496391.628    -5781972.563 8  -4491992.90446  23496391.257    23496401.0484
  21666778.506     4323014.462 9   3368680.41647  21666778.052    21666785.3484
  21401395.870   -18018928.774 9 -14027802.50347  21401395.652    21401402.8234
  21325810.403     3510056.030 8   2733679.14047  21325809.949    21325817.6574
  23579082.066   -10383291.847 8  -7357251.78745  23579081.732    23579090.8244
  20496027.912    -4057125.268 9  -3047313.80548  20496027.575    20496033.0424
  20476143.675    -2319893.379 9  -1804781.40748  20476143.081    20476150.1984
  24358324.804    -2125524.235 8  -1633848.60045  24358325.382    24358336.7084
  21235409.968   -15517760.349 9 -12081531.58247  21235409.532    21235416.8564
  24104855.338     9305937.573 8   7251123.08845  24104855.476    24104864.6134
 01  7 12 18 53 30.0000000  0 10 14 23 03 17 31 18 15 29 21 26
  23475253.163    -5893055.724 8  -4578551.05546  23475252.791    23475262.4564
  21677822.615     4381051.314 9   3413903.91247  21677822.146    21677829.3654
  21395022.960   -18052418.733 9 -14053898.56547  21395022.704    21395029.9124
  21335792.770     3562513.345 8   2774554.93947  21335792.288    21335799.9444
  23562369.737   -10471115.991 8  -7425686.12645  23562369.400    23562378.2754
  20502363.100    -4023833.715 9  -3021372.33948  20502362.780    20502368.2164
  20481729.772    -2290538.542 9  -1781907.51948  20481729.154    20481736.2554
  24337247.757    -2236286.072 8  -1720156.48745  24337247.814    24337259.6204
  21228642.893   -15553321.555 9 -12109241.59147  21228642.467    21228649.7904
  24123884.641     9405936.045 7   7329043.88945  24123884.722    24123893.6514
 01  7 12 18 54  0.0000000  0 10 14 23 03 17 31 18 15 29 21 26
  23454142.615    -6003992.857 8  -4664995.42746  23454142.136    23454151.7564
  21688902.096     4439274.137 9   3459272.32047  21688901.616    21688908.7274
  21388754.418   -18085359.916 9 -14079567.01947  21388754.194    21388761.4334
  21345831.376     3615266.375 8   2815661.16147  21345830.929    21345838.5294
  23545721.871   -10558602.398 8  -7493857.28945  23545721.336    23545730.0314
  20508764.277    -3990195.602 9  -2995160.83448  20508763.928    20508769.3714
  20487380.646    -2260842.928 9  -1758768.09648  20487380.032    20487387.1174
  24316179.335    -2347002.781 8  -1806429.22645  24316179.170    24316190.9434
  21221930.242   -15588596.620 9 -12136728.63747  21221929.824    21221937.1564
  24142969.056     9506225.899 7   7407191.72345  24142969.180    24142978.2354
 01  7 12 18 54 30.0000000  0 10 14 23 03 17 31 18 15 29 21 26
  23433060.400    -6114780.118 8  -4751323.00846  23433059.830    23433069.5154
  21700016.884     4497682.617 9   3504785.39947  21700016.381    21700023.4574
  21382590.779   -18117750.012 9 -14104806.04347  21382590.511    21382597.7954
  21355926.567     3668316.314 8   2856998.74047  21355926.070    21355933.6514
  23529138.715   -10645747.366 8  -7561762.37445  23529138.137    23529146.8244
  20515231.322    -3956211.140 9  -2968679.43648  20515230.951    20515236.4254
  20493096.712    -2230805.208 9  -1735362.09448  20493096.045    20493103.1424
  24295119.738    -2457670.990 7  -1892664.17145  24295119.669    24295131.3364
  21215272.251   -15623584.531 9 -12163991.91147  21215271.823    21215279.1544
  24162108.901     9606805.433 7   7485565.29645  24162108.910    24162117.9894
 01  7 12 18 55  0.0000000  0 10 14 23 03 17 31 18 15 29 21 26
  23412007.078    -6225415.180 8  -4837532.03546  23412006.665    23412016.2004
  21711166.643     4556275.090 9   3550441.84247  21711166.112    21711173.2194
  21376532.262   -18149587.806 9 -14129614.71547  21376532.005    21376539.2924
  21366078.094     3721662.954 8   2898567.52447  21366077.632    21366085.1864
  23512620.907   -10732548.634 8  -7629399.65645  23512620.262    23512628.9734
  20521763.874    -3921882.041 9  -2941929.50048  20521763.529    20521769.0214
  20498877.689    -2200425.468 9  -1711689.58248  20498877.093    20498884.2014
  24274069.657    -2568288.422 7  -1978859.50245  24274069.533    24274081.5954
  21208668.822   -15658285.727 9 -12191031.78248  21208668.395    21208675.7264
  24181303.291     9707671.388 7   7564162.02945  24181303.112    24181312.1614
 01  7 12 18 55 30.0000000  0 10 14 23 03 17 31 18 15 29 21 26
  23390983.159    -6335894.752 8  -4923619.85446  23390982.860    23390992.6324
  21722351.270     4615050.596 9   3596240.91647  21722350.769    21722357.8944
  21370579.138   -18180871.449 9 -14153991.57947  21370578.916    21370586.1824
  21376286.209     3775306.807 8   2940367.89047  21376285.785    21376293.3104
  23496168.974   -10819002.902 8  -7696766.55445  23496168.551    23496177.2114
  20528361.929    -3887209.463 9  -2914911.91148  20528361.561    20528367.0014
  20504724.095    -2169702.883 9  -1687749.92148  20504723.455    20504730.5094
  24253029.648    -2678852.345 7  -2065013.13845  24253029.569    24253041.9344
  21202119.895   -15692700.578 9 -12217848.52748  21202119.458    21202126.7664
  24200551.405     9808821.330 7   7642980.07145  24200551.447    24200560.4804
 01  7 12 18 56  0.0000000  0 10 14 23 03 17 31 18 15 29 21 26
  23369989.583    -6446216.587 8  -5009584.81246  23369989.213    23369998.9324
  21733570.318     4674006.889 9   3642180.86347  21733569.813    21733576.9794
  21364731.596   -18211600.594 9 -14177936.36447  21364731.384    21364738.6194
  21386550.755     3829247.121 8   2982399.26947  21386550.279    21386557.8544
  23479783.580   -10905108.249 8  -7763861.56045  23479783.175    23479791.8944
  20535024.820    -3852195.371 9  -2887628.21348  20535024.468    20535029.9574
  20510635.570    -2138638.081 9  -1663543.58948  20510634.903    20510641.9934
  24232000.187    -2789360.852 7  -2151123.51345  24231999.857    24232013.0254
  21195625.305   -15726829.640 9 -12244442.58248  21195624.904    21195632.2104
  24219852.853     9910251.704 7   7722016.63145  24219852.946    24219862.4444
 01  7 12 18 56 30.0000000  0 10 14 23 03 17 31 18 15 29 21 26
  23349026.307    -6556378.678 8  -5095425.28645  23349025.876    23349035.6154
  21744823.312     4733141.878 9   3688260.04547  21744822.822    21744830.0894
  21358989.689   -18241774.490 9 -14201448.49247  21358989.489    21358996.6444
  21396871.555     3883483.382 8   3024661.25547  21396871.124    21396878.7444
  23463465.048   -10990862.655 8  -7830683.11645  23463464.661    23463473.2704
  20541752.324    -3816842.030 9  -2860080.16948  20541752.001    20541757.4354
  20516612.016    -2107231.518 9  -1639070.95548  20516611.405    20516618.4684
  24210981.783    -2899812.073 7  -2237189.24945  24210981.356    24210994.8434
  21189184.971   -15760673.866 9 -12270814.68148  21189184.533    21189191.8304
  24239207.232    10011959.006 7   7801268.95745  24239207.246    24239216.6594
 01  7 12 18 57  0.0000000  0 10 14 23 03 17 31 18 15 29 21 26
  23328093.787    -6666378.372 8  -5181139.21446  23328093.487    23328103.3814
  21756110.064     4792454.246 9   3734477.44847  21756109.599    21756116.9424
  21353353.756   -18271391.696 9 -14224526.83147  21353353.551    21353360.6584
  21407248.621     3938015.496 8   3067153.77847  21407248.211    21407255.8724
  23447213.752   -11076263.692 8  -7897229.31445  23447213.342    23447221.9454
  20548544.159    -3781150.885 9  -2832268.89648  20548543.799    20548549.2214
  20522653.633    -2075482.913 9  -1614331.78948  20522652.993    20522660.0324
  24189974.903    -3010203.576 7  -2323208.48445  24189974.719    24189987.9844
  21182798.789   -15794233.326 9 -12296964.89048  21182798.364    21182805.6594
  24258613.737    10113940.217 7   7880734.70445  24258613.790    24258623.0694
 01  7 12 18 57 30.0000000  0 10 14 23 03 17 31 18 15 29 21 26
  23307192.883    -6776213.009 8  -5266724.52146  23307192.577    23307202.4644
  21767430.267     4851942.459 9   3780831.86847  21767429.792    21767437.2214
  21347823.866   -18300451.221 9 -14247170.61447  21347823.679    21347830.7944
  21417682.049     3992843.559 8   3109876.91347  21417681.677    21417689.3484
  23431030.169   -11161308.853 8  -7963498.21345  23431029.726    23431038.3134
  20555399.935    -3745123.306 9  -2804195.47348  20555399.583    20555405.1144
  20528760.316    -2043392.188 9  -1589326.03948  20528759.655    20528766.6834
  24168980.008    -3120533.095 7  -2409179.43945  24168979.813    24168992.9834
  21176466.676   -15827508.617 9 -12322893.66948  21176466.268    21176473.5624
  24278071.871    10216192.382 7   7960411.63045  24278071.850    24278081.0974
 01  7 12 18 58  0.0000000  0 10 14 23 03 17 31 18 15 29 21 26
  23286324.021    -6885879.917 8  -5352179.15345  23286323.624    23286333.3544
  21778783.640     4911604.826 9   3827321.98847  21778783.172    21778790.6034
  21342400.310   -18328952.291 9 -14269379.24047  21342400.104    21342407.2354
  21428171.806     4047967.130 8   3152830.32047  21428171.376    21428178.9554
  23414914.600   -11245995.648 8  -8029487.85245  23414914.143    23414922.8024
  20562319.403    -3708761.064 9  -2775861.27448  20562319.093    20562324.6684
  20534932.052    -2010959.502 9  -1564053.83048  20534931.413    20534938.4414
  24147997.211    -3230798.431 7  -2495100.36345  24147997.149    24148010.0164
  21170188.573   -15860500.223 9 -12348601.39148  21170188.144    21170195.4204
  24297581.036    10318712.333 8   8040297.22445  24297581.035    24297589.9584
 01  7 12 18 58 30.0000000  0 10 14 23 03 17 31 18 15 29 21 26
  23265487.729    -6995375.875 8  -5437500.56446  23265487.218    23265496.8454
  21790170.008     4971440.606 9   3873947.23847  21790169.559    21790176.9244
  21337083.327   -18356893.001 9 -14291151.22047  21337083.125    21337090.2844
  21438717.949     4103386.905 8   3196014.52447  21438717.485    21438725.0774
  23398867.824   -11330321.068 8  -8095195.91545  23398867.481    23398876.0754
  20569302.453    -3672065.173 9  -2747267.08648  20569302.108    20569307.6614
  20541168.948    -1978184.083 9  -1538514.55948  20541168.355    20541175.3804
  24127027.334    -3340996.425 7  -2580968.81245  24127027.266    24127039.7434
  21163964.430   -15893208.353 9 -12374088.22848  21163963.983    21163971.2744
  24317140.387    10421497.794 8   8120389.72345  24317140.533    24317149.4424
 01  7 12 18 59  0.0000000  0 10 14 23 03 17 31 18 15 29 21 26
  23244684.112    -7104698.883 8  -5522687.22746  23244683.701    23244693.1694
  21801589.176     5031448.079 9   3920706.28247  21801588.694    21801595.9494
  21331873.154   -18384272.709 9 -14312486.05547  21331872.922    21331880.1204
  21449320.248     4159102.446 8   3239429.19747  21449319.785    21449327.4864
  23382890.580   -11414282.770 8  -8160620.57645  23382890.073    23382898.5184
  20576348.505    -3635037.737 9  -2718414.55148  20576348.181    20576353.7634
  20547471.132    -1945066.077 9  -1512708.33348  20547470.492    20547477.5424
  24106070.686    -3451125.201 8  -2666783.34845  24106070.564    24106082.6324
  21157794.123   -15925633.329 9 -12399354.42948  21157793.684    21157800.9934
  24336749.781    10524545.368 7   8200686.43145  24336749.949    24336758.8424
 01  7 12 18 59 30.0000000  0 10 14 23 03 17 31 18 15 29 21 26
  23223914.019    -7213845.715 8  -5607736.58346  23223913.719    23223923.1104
  21813040.698     5091625.835 9   3967598.01747  21813040.197    21813047.4104
  21326769.898   -18411090.282 9 -14333382.86347  21326769.665    21326776.8904
  21459978.756     4215113.567 8   3283074.18947  21459978.326    21459986.0434
  23366982.727   -11497877.994 8  -8225759.63945  23366982.385    23366990.8624
  20583457.468    -3597679.888 9  -2689304.55548  20583457.149    20583462.7484
  20553838.473    -1911605.316 9  -1486635.02648  20553837.834    20553844.9364
  24085127.549    -3561182.297 8  -2752542.01045  24085127.523    24085139.4794
  21151677.765   -15957775.034 9 -12424399.89848  21151677.328    21151684.6074
  24356408.311    10627852.081 8   8281185.07545  24356408.639    24356417.8184
 01  7 12 19  0  0.0000000  0 10 14 23 03 17 31 18 15 29 21 26
  23203178.063    -7322813.452 8  -5692646.41446  23203177.824    23203187.1304
  21824524.309     5151972.881 9   4014621.65947  21824523.817    21824531.0774
  21321773.997   -18437344.008 9 -14353840.30447  21321773.753    21321780.9974
  21470693.746     4271420.889 8   3326949.98547  21470693.308    21470701.0034
  23351145.375   -11581103.761 8  -8290610.81545  23351144.999    23351153.5354
  20590629.149    -3559992.647 9  -2659937.88548  20590628.804    20590634.3974
  20560271.215    -1877801.275 9  -1460294.23048  20560270.571    20560277.6284
  24064198.520    -3671164.803 8  -2838242.51345  24064198.472    24064210.5364
  21145615.258   -15989633.658 9 -12449224.78948  21145614.826    21145622.0784
  24376115.954    10731415.630 8   8361883.88845  24376116.166    24376125.4674
 01  7 12 19  0 30.0000000  0 10 14 23 03 17 31 18 15 29 21 26
  23182476.652    -7431599.546 8  -5777414.70846  23182476.466    23182485.6194
  21836039.763     5212487.265 9   4061775.69647  21836039.265    21836046.6604
  21316885.543   -18463033.179 9 -14373857.83847  21316885.307    21316892.4974
  21481464.982     4328023.890 8   3371056.18947  21481464.551    21481472.2644
  23335378.672   -11663958.018 8  -8355172.49846  23335378.304    23335386.8894
  20597863.147    -3521977.922 9  -2630316.03648  20597862.806    20597868.3474
  20566769.239    -1843654.161 9  -1433686.10948  20566768.572    20566775.6314
  24043284.003    -3781070.637 8  -2923883.25145  24043283.921    24043296.1494
  21139606.455   -16021210.063 9 -12473829.76448  21139606.025    21139613.2514
  24395871.844    10835232.637 7   8442780.18445  24395871.800    24395881.0174
 01  7 12 19  1  0.0000000  0 10 14 23 03 17 31 18 15 29 21 26
  23161810.489    -7540201.050 8  -5862039.14946  23161810.312    23161819.3494
  21847586.816     5273167.940 9   4109059.31147  21847586.361    21847593.8294
  21312104.715   -18488156.823 9 -14393434.70147  21312104.467    21312111.6124
  21492292.550     4384922.826 8   3415392.98747  21492292.086    21492299.8014
  23319683.158   -11746438.131 8  -8419442.65746  23319682.819    23319691.3534
  20605159.308    -3483636.711 9  -2600439.78248  20605158.945    20605164.4454
  20573332.607    -1809163.549 9  -1406810.31948  20573331.939    20573338.9934
  24022384.663    -3890897.095 8  -3009462.19145  24022384.569    24022396.6544
  21133651.403   -16052504.156 9 -12498214.75548  21133650.948    21133658.1974
  24415675.253    10939300.466 7   8523871.91945  24415675.319    24415684.3754
 01  7 12 19  1 30.0000000  0 10 14 23 03 17 31 18 15 29 21 26
  23141179.943    -7648615.537 8  -5946517.87946  23141179.694    23141188.6194
  21859165.281     5334013.019 9   4156471.03347  21859164.835    21859172.2784
  21307431.621   -18512713.948 9 -14412570.11947  21307431.412    21307438.5064
  21503176.194     4442117.151 8   3459959.95947  21503175.791    21503183.5834
  23304059.435   -11828541.774 8  -8483419.47046  23304059.035    23304067.4894
  20612517.116    -3444971.102 9  -2570310.75148  20612516.772    20612522.2954
  20579961.282    -1774329.627 9  -1379667.02248  20579960.640    20579967.6744
  24001500.799    -4000642.189 8  -3094977.71045  24001500.597    24001512.6454
  21127749.949   -16083516.426 9 -12522380.14148  21127749.513    21127756.7574
  24435525.805    11043615.694 7   8605156.41145  24435525.847    24435535.3684
 01  7 12 19  2  0.0000000  0 10 14 23 03 17 31 18 15 29 21 26
  23120585.562    -7756840.032 8  -6030848.56946  23120585.352    23120594.0884
  21870774.981     5395021.445 9   4204010.02747  21870774.478    21870781.8514
  21302866.567   -18536703.471 9 -14431263.25247  21302866.363    21302873.4574
  21514116.210     4499607.175 8   3504757.35047  21514115.807    21514123.6074
  23288507.839   -11910266.287 8  -8547100.84146  23288507.382    23288515.8294
  20619936.503    -3405982.092 9  -2539929.72148  20619936.165    20619941.7104
  20586655.368    -1739152.015 9  -1352255.91148  20586654.735    20586661.7694
  23980632.925    -4110303.027 8  -3180427.57145  23980632.764    23980644.7384
  21121902.050   -16114247.224 9 -12546326.19848  21121901.612    21121908.8644
  24455422.926    11148175.732 7   8686631.68245  24455422.863    24455432.6864
 01  7 12 19  2 30.0000000  0 10 14 23 03 17 31 18 15 29 21 26
  23100027.625    -7864872.477 8  -6115029.58346  23100027.274    23100036.0844
  21882415.346     5456191.537 9   4251675.00147  21882414.829    21882422.1644
  21298409.723   -18560124.545 9 -14449513.44047  21298409.508    21298416.5734
  21525112.528     4557392.495 8   3549784.83347  21525112.055    21525119.8014
  23273028.651   -11991609.518 8  -8610485.10446  23273028.228    23273036.6924
  20627416.983    -3366671.877 9  -2509298.39848  20627416.667    20627422.1904
  20593414.808    -1703630.931 9  -1324577.16448  20593414.156    20593421.2274
  23959781.695    -4219877.690 8  -3265810.26545  23959781.438    23959793.5084
  21116107.604   -16144697.313 9 -12570053.52748  21116107.163    21116114.3834
  24475366.372    11252977.422 7   8768295.22745  24475366.037    24475375.8794
 01  7 12 19  3  0.0000000  0 10 14 23 03 17 31 18 15 29 21 26
  23079506.879    -7972709.609 8  -6199058.43546  23079506.540    23079515.2844
  21894086.269     5517522.187 9   4299465.07547  21894085.720    21894093.0934
  21294061.296   -18582976.058 9 -14467319.81247  21294061.048    21294068.0964
  21536164.931     4615473.288 8   3595042.57647  21536164.484    21536172.2114
  23257622.657   -12072568.493 8  -8673569.95646  23257622.233    23257630.6434
  20634958.339    -3327041.762 9  -2478417.80048  20634958.026    20634963.5374
  20600239.668    -1667766.079 9  -1296630.54248  20600239.031    20600246.1074
  23938947.093    -4329363.476 7  -3351123.65545  23938946.872    23938958.9264
  21110366.521   -16174866.791 9 -12593562.19548  21110366.098    21110373.2954
  24495355.046    11358018.104 7   8850144.99245  24495354.628    24495364.6674
 01  7 12 19  3 30.0000000  0  9 14 23 03 17 31 18 15 29 21
  23059024.603    -8080344.483 8  -6282929.66146  23059024.210    23059032.9244
  21905788.166     5579016.395 9   4347382.61347  21905787.659    21905795.1204
  21289822.175   -18605252.905 9 -14484678.39847  21289821.903    21289828.9274
  21547274.334     4673853.674 8   3640533.75447  21547273.932    21547281.7114
  23242291.294   -12153136.182 8  -8736349.91746  23242290.737    23242299.0774
  20642561.197    -3287088.840 9  -2447285.66648  20642560.882    20642566.3404
  20607130.865    -1631552.910 9  -1268412.51248  20607130.181    20607137.2334
  23918130.605    -4438753.595 7  -3436362.53045  23918130.503    23918142.5174
  21104679.666   -16204751.562 9 -12616849.01948  21104679.215    21104686.4084
 01  7 12 19  4  0.0000000  0  9 14 23 03 17 31 18 15 29 21
  23038580.441    -8187778.990 8  -6366644.76246  23038580.123    23038588.7344
  21917519.978     5640668.221 9   4395422.96847  21917519.547    21917527.0654
  21285691.648   -18626958.665 9 -14501591.98147  21285691.413    21285698.4674
  21558440.053     4732529.185 8   3686254.90447  21558439.563    21558447.3194
  23227033.934   -12233314.744 8  -8798826.65646  23227033.270    23227041.5694
  20650224.267    -3246819.203 9  -2415906.74448  20650223.927    20650229.3984
  20614087.412    -1594995.906 9  -1239926.55548  20614086.745    20614093.8634
  23897331.673    -4548050.299 7  -3521528.61245  23897331.623    23897343.7984
  21099046.036   -16234356.227 9 -12639917.57948  21099045.625    21099052.8184
 01  7 12 19  4 30.0000000  0  9 14 23 03 17 31 18 15 29 21
  23018174.778    -8295011.224 8  -6450202.25946  23018174.390    23018182.9604
  21929281.580     5702475.640 9   4443584.56147  21929281.154    21929288.6354
  21281669.869   -18648093.259 9 -14518060.49747  21281669.617    21281676.7304
  21569661.550     4791499.028 8   3732205.39847  21569661.065    21569668.9064
  23211850.541   -12313102.269 8  -8860998.71146  23211850.121    23211858.3604
  20657947.193    -3206234.850 9  -2384282.58748  20657946.911    20657952.3814
  20621109.245    -1558095.717 9  -1211173.18748  20621108.614    20621115.7684
  23876551.136    -4657251.717 7  -3606620.41445  23876551.208    23876563.0784
  21093465.457   -16263682.311 9 -12662769.05648  21093465.038    21093472.2084
 01  7 12 19  5  0.0000000  0  9 14 23 03 17 31 18 15 29 21
  22997808.204    -8402038.234 8  -6533599.82346  22997807.769    22997816.3094
  21941072.675     5764437.626 8   4491866.59447  21941072.191    21941079.6234
  21277757.090   -18668655.139 9 -14534082.74047  21277756.816    21277763.9494
  21580939.102     4850763.428 8   3778385.41647  21580938.687    21580946.6034
  23196742.352   -12392496.026 8  -8922863.92146  23196741.830    23196750.2154
  20665729.903    -3165337.046 9  -2352414.17848  20665729.553    20665735.0114
  20628196.486    -1520851.923 9  -1182152.06948  20628195.857    20628203.0334
  23855789.422    -4766355.000 7  -3691635.72845  23855789.501    23855801.1594
  21087937.898   -16292729.761 9 -12685403.42348  21087937.485    21087944.6604
 01  7 12 19  5 30.0000000  0 10 14 23 09 03 17 31 18 15 29 21
  22977481.050    -8508857.016 8  -6616835.12646  22977480.741    22977489.2924
  21952892.900     5826552.840 8   4540268.02547  21952892.369    21952899.7514
  24412659.678     -327743.280 8   -248339.53345  24412659.448    24412668.6154
  21273953.371   -18688643.685 9 -14549658.22947  21273953.119    21273960.2544
  21592272.724     4910322.129 8   3824794.75747  21592272.331    21592280.2984
  23181709.438   -12471493.336 8  -8984420.20246  23181708.957    23181717.4304
  20673571.816    -3124127.212 9  -2320302.63548  20673571.494    20673576.9804
  20635349.068    -1483264.658 9  -1152863.31348  20635348.495    20635355.6934
  23835046.770    -4875357.930 7  -3776572.89145  23835046.711    23835058.5034
  21082463.335   -16321498.775 9 -12707820.82248  21082462.915    21082470.0834
 01  7 12 19  6  0.0000000  0 10 14 23 09 03 17 31 18 15 29 21
  22957194.244    -8615465.445 8  -6699906.52746  22957193.825    22957202.2964
  21964741.897     5888819.450 9   4588787.42947  21964741.376    21964748.7154
  24401176.865     -388088.159 7   -295361.37245  24401174.968    24401185.8354
  21270258.941   -18708058.222 9 -14564786.44747  21270258.676    21270265.7894
  21603662.306     4970174.624 8   3871433.03747  21603661.966    21603669.9024
  23166752.584   -12550092.289 8  -9045666.09646  23166752.051    23166760.4384
  20681472.737    -3082607.510 9  -2287949.63948  20681472.435    20681477.9334
  20642567.036    -1445333.928 9  -1123306.92348  20642566.469    20642573.7094
  23814323.809    -4984258.529 7  -3861430.28945  23814323.497    23814335.3404
  21077041.514   -16349990.492 9 -12730022.14948  21077041.108    21077048.3114
 01  7 12 19  6 30.0000000  0 10 14 23 09 03 17 31 18 15 29 21
  22936947.768    -8721861.384 8  -6782812.33746  22936947.222    22936955.6784
  21976619.273     5951235.520 9   4637423.29847  21976618.773    21976626.1084
  24389756.026     -448099.688 7   -342123.48945  24389755.483    24389765.9514
  21266673.649   -18726898.946 9 -14579467.53247  21266673.398    21266680.5194
  21615107.775     5030320.257 8   3918299.71847  21615107.392    21615115.2674
  23151871.953   -12628291.055 8  -9106600.14546  23151871.253    23151879.6804
  20689432.279    -3040779.907 9  -2255356.71648  20689431.964    20689437.4904
  20649850.335    -1407060.527 9  -1093483.51548  20649849.706    20649856.9184
  23793620.457    -5093054.897 8  -3946206.47045  23793620.199    23793631.8674
  21071672.316   -16378205.536 9 -12752007.88248  21071671.915    21071679.1224
 01  7 12 19  7  0.0000000  0 10 14 23 09 03 17 31 18 15 29 21
  22916742.555    -8828040.264 8  -6865549.03746  22916742.039    22916750.4234
  21988525.117     6013801.519 9   4686175.99847  21988524.701    21988532.0524
  24378400.371     -507772.835 7   -388621.90045  24378400.245    24378410.5214
  21263198.125   -18745163.013 9 -14593699.27447  21263197.874    21263204.9804
  21626609.177     5090760.655 8   3965396.09247  21626608.790    21626616.7464
  23137067.999   -12706085.377 8  -9167219.03846  23137067.432    23137075.9074
  20697450.456    -2998644.067 9  -2222523.61748  20697450.143    20697455.6614
  20657199.195    -1368442.408 9  -1063391.50248  20657198.529    20657205.7124
  23772937.806    -5201742.823 8  -4030898.13745  23772937.578    23772949.1644
  21066356.161   -16406142.438 9 -12773776.88948  21066355.705    21066362.9114
 01  7 12 19  7 30.0000000  0 10 14 23 09 03 17 31 18 15 29 21
  22896579.133    -8933998.496 8  -6948113.77546  22896578.758    22896587.1944
  22000459.532     6076517.187 8   4735045.31447  22000459.099    22000466.5384
  24367109.816     -567103.811 8   -434853.72745  24367109.761    24367120.3294
  21259832.644   -18762848.769 9 -14607480.39047  21259832.404    21259839.5044
  21638166.873     5151496.723 8   4012722.85347  21638166.529    21638174.3984
  23122341.770   -12783471.764 8  -9227520.05846  23122341.226    23122349.7374
  20705527.275    -2956200.468 9  -2189450.70048  20705526.932    20705532.4274
  20664613.815    -1329478.401 9  -1033029.96848  20664613.166    20664620.3674
  23752276.148    -5310318.808 8  -4115502.57745  23752276.042    23752287.5864
  21061092.968   -16433800.593 9 -12795328.68848  21061092.529    21061099.7314
 01  7 12 19  8  0.0000000  0 10 14 23 09 03 17 31 18 15 29 21
  22876458.252    -9039734.275 8  -7030505.19646  22876457.858    22876466.2114
  22012422.045     6139380.276 8   4784029.50847  22012421.558    22012429.0454
  24355885.024     -626090.532 8   -480817.27445  24355884.932    24355895.5564
  21256577.159   -18779956.354 9 -14620810.97447  21256576.928    21256584.0634
  21649780.674     5212527.419 8   4060279.20047  21649780.309    21649788.2174
  23107693.551   -12860448.688 8  -9287502.01646  23107693.037    23107701.4644
  20713662.066    -2913451.675 9  -2156139.97748  20713661.730    20713667.2484
  20672094.030    -1290169.566 9  -1002399.73748  20672093.407    20672100.6164
  23731636.086    -5418781.417 8  -4200018.69445  23731636.041    23731647.5324
  21055882.495   -16461181.695 9 -12816664.59948  21055882.066    21055889.2364
 01  7 12 19  8 30.0000000  0 10 14 23 09 03 17 31 18 15 29 21
  22856380.156    -9145245.424 8  -7112721.55446  22856379.678    22856388.0814
  22024412.306     6202389.043 8   4833127.21747  22024411.777    22024419.3124
  24344726.306     -684730.501 8   -526510.65745  24344726.147    24344736.7794
  21253431.732   -18796485.687 9 -14633690.97747  21253431.506    21253438.6264
  21661450.552     5273852.235 8   4108064.71547  21661450.120    21661458.0314
  23093123.683   -12937014.195 8  -9347163.39946  23093123.084    23093131.4804
  20721854.580    -2870399.492 9  -2122592.83948  20721854.279    20721859.8254
  20679639.876    -1250516.195 9   -971501.03448  20679639.234    20679646.4064
  23711018.279    -5527128.662 8  -4284444.92845  23711018.134    23711029.4374
  21050724.617   -16488286.355 9 -12837785.10348  21050724.217    21050731.3674
 01  7 12 19  9  0.0000000  0 10 14 23 09 03 17 31 18 15 29 21
  22836345.267    -9250528.761 8  -7194760.42246  22836344.857    22836353.2034
  22036430.006     6265542.429 8   4882337.61347  22036429.527    22036437.0384
  24333634.249     -743020.555 8   -571931.36645  24333633.866    24333644.5284
  21250396.520   -18812435.859 9 -14646119.68647  21250396.307    21250403.4094
  21673176.282     5335471.248 8   4156079.49247  21673175.853    21673183.6914
  23078632.477   -13013165.523 8  -9406502.03846  23078631.936    23078640.3684
  20730104.702    -2827045.167 9  -2088810.26948  20730104.367    20730109.9144
  20687251.298    -1210517.947 9   -940333.60848  20687250.684    20687257.8064
  23690422.785    -5635357.820 8  -4368779.13745  23690422.622    23690433.8204
  21045619.425   -16515114.656 9 -12858690.26648  21045619.001    21045626.1314
 01  7 12 19  9 30.0000000  0 10 14 23 09 03 17 31 18 15 29 21
  22816354.271    -9355581.268 8  -7276619.40546  22816353.907    22816362.3314
  22048475.145     6328839.789 8   4931660.19847  22048474.639    22048482.1174
  24322609.109     -800957.103 8   -617076.59345  24322608.919    24322619.5204
  21247471.792   -18827805.330 9 -14658095.89847  21247471.601    21247478.6874
  21684958.103     5397384.862 8   4204323.81547  21684957.686    21684965.4834
  23064220.655   -13088899.674 8  -9465515.62346  23064220.203    23064228.5174
  20738412.080    -2783389.479 9  -2054792.87448  20738411.746    20738417.3634
  20694928.556    -1170174.117 9   -908896.88948  20694927.919    20694934.9994
  23669850.281    -5743465.803 8  -4453018.92845  23669850.134    23669861.3444
  21040566.778   -16541666.305 9 -12879379.85748  21040566.369    21040573.4854
 01  7 12 19 10  0.0000000  0 10 14 23 09 03 17 31 18 15 29 21
  22796407.760    -9460400.783 8  -7358296.85146  22796407.376    22796415.7974
  22060547.198     6392279.192 8   4981093.47047  22060546.751    22060554.1784
  24311651.669     -858537.794 7   -661944.54145  24311651.574    24311662.0864
  21244657.608   -18842593.918 9 -14669619.47647  21244657.420    21244664.5214
  21696795.994     5459592.451 8   4252797.21347  21696795.471    21696803.2844
  23049888.664   -13164214.671 8  -9524202.59146  23049888.255    23049896.5234
  20746776.382    -2739434.606 9  -2020542.34748  20746776.076    20746781.7314
  20702671.410    -1129485.417 9   -877191.43848  20702670.749    20702677.8204
  23649301.245    -5851450.854 8  -4537162.94145  23649301.130    23649312.3344
  21035566.536   -16567942.568 9 -12899854.86248  21035566.151    21035573.2314
 01  7 12 19 10 30.0000000  0 10 14 23 09 03 17 31 18 15 29 21
  22776506.009    -9564984.700 8  -7439790.72146  22776505.574    22776513.9584
  22072646.012     6455859.281 8   5030636.36747  22072645.606    22072653.0324
  24300762.646     -915759.574 8   -706532.78745  24300762.542    24300773.0464
  21241954.051   -18856801.111 9 -14680690.01547  21241953.861    21241960.9654
  21708689.513     5522093.686 8   4301499.41947  21708689.077    21708696.9544
  23035636.980   -13239108.219 8  -9582561.16546  23035636.511    23035644.6624
  20755197.378    -2695182.247 9  -1986060.01048  20755197.066    20755202.6974
  20710479.861    -1088451.919 9   -845217.31948  20710479.194    20710486.1824
  23628776.145    -5959310.647 8  -4621209.34945  23628775.899    23628787.0614
  21030618.778   -16593943.346 9 -12920115.20648  21030618.376    21030625.4574
 01  7 12 19 11  0.0000000  0 10 14 23 09 03 17 31 18 15 29 21
  22756649.636    -9669330.235 8  -7521098.81046  22756649.140    22756657.6034
  22084771.494     6519578.722 8   5080287.84147  22084771.081    22084778.5204
  24289942.454     -972619.920 8   -750839.42845  24289942.343    24289952.7704
  21239361.285   -18870426.431 9 -14691307.15747  21239361.086    21239368.1724
  21720639.064     5584888.366 8   4350430.28347  21720638.624    21720646.4504
  23021465.697   -13313577.864 8  -9640589.40446  23021465.291    23021473.4204
  20763674.717    -2650633.809 9  -1951346.96748  20763674.367    20763679.9974
  20718353.903    -1047073.576 9   -812974.49048  20718353.252    20718360.2404
  23608275.295    -6067042.696 8  -4705156.22445  23608275.001    23608286.0794
  21025723.175   -16619669.953 9 -12940161.90848  21025722.785    21025729.8404
 01  7 12 19 11 30.0000000  0 10 14 23 09 03 17 31 18 15 29 21
  22736838.985    -9773434.894 8  -7602219.22346  22736838.474    22736846.9414
  22096923.363     6583436.201 9   5130046.87747  22096922.878    22096930.2434
  24279191.451    -1029115.947 8   -794862.19445  24279191.415    24279201.7114
  21236879.255   -18883469.475 9 -14701470.57247  21236879.044    21236886.1384
  21732644.398     5647976.321 8   4399589.67547  21732643.903    21732651.7674
  23007375.753   -13387621.268 8  -9698285.52346  23007375.206    23007383.3064
  20772208.035    -2605790.717 9  -1916404.32048  20772207.700    20772213.3434
  20726293.618    -1005350.201 9   -780462.80348  20726292.956    20726299.9894
  23587799.241    -6174644.724 7  -4789001.78245  23587798.937    23587809.8464
  21020879.669   -16645122.613 9 -12959995.14148  21020879.268    21020886.3374
 01  7 12 19 12  0.0000000  0 10 14 23 09 03 17 31 18 15 29 21
  22717074.623    -9877295.960 8  -7683149.81446  22717074.157    22717082.6894
  22109101.180     6647430.246 8   5179912.32647  22109100.618    22109107.9674
  24268510.621    -1085244.792 8   -838598.82645  24268510.370    24268520.6264
  21234508.145   -18895929.891 9 -14711179.99647  21234507.936    21234515.0134
  21744705.386     5711357.242 8   4448977.34847  21744704.904    21744712.7834
  22993367.219   -13461236.133 8  -9755647.70046  22993366.704    22993374.8374
  20780797.206    -2560654.556 9  -1881233.31348  20780796.884    20780802.4844
  20734298.977     -963281.921 9   -747682.36548  20734298.294    20734305.3384
  23567348.179    -6282114.302 7  -4872744.15645  23567347.915    23567358.9394
  21016088.315   -16670301.250 9 -12979614.86048  21016087.925    21016095.0134
 01  7 12 19 12 30.0000000  0 10 14 23 09 03 17 31 18 15 29 21
  22697357.389    -9980910.524 8  -7763888.33346  22697356.887    22697365.3494
  22121304.703     6711560.135 8   5229883.62947  22121304.160    22121311.5044
  24257900.326    -1141003.339 8   -882046.94945  24257899.875    24257909.8644
  21232248.204   -18907806.534 9 -14720434.53047  21232247.891    21232254.9704
  21756822.188     5775031.319 8   4498593.45147  21756821.706    21756829.5554
  22979440.806   -13534419.752 8  -9812673.85746  22979440.265    22979448.4434
  20789441.969    -2515226.529 9  -1845834.88048  20789441.609    20789447.1794
  20742370.011     -920868.598 9   -714633.06147  20742369.316    20742376.3494
  23546922.743    -6389448.730 7  -4956381.22045  23546922.625    23546933.6294
  21011349.058   -16695206.194 9 -12999021.31248  21011348.666    21011355.7104
 01  7 12 19 13  0.0000000  0 10 14 23 09 03 17 31 18 15 29 21
  22677687.458   -10084275.924 8  -7844432.68946  22677686.964    22677695.4244
  22133533.731     6775824.505 8   5279959.73447  22133533.244    22133540.6094
  24247360.933    -1196388.434 8   -925204.04245  24247360.282    24247370.3744
  21230099.296   -18919099.130 9 -14729233.96747  21230098.998    21230106.0734
  21768994.733     5838998.368 8   4548437.85046  21768994.259    21769002.1504
  22965596.890   -13607169.807 8  -9869362.16746  22965596.408    22965604.5374
  20798141.828    -2469508.296 9  -1810210.31048  20798141.506    20798147.1184
  20750506.718     -878110.041 9   -681314.73948  20750506.044    20750513.1554
  23526523.795    -6496645.552 7  -5039911.06845  23526523.638    23526534.5954
  21006661.777   -16719837.879 9 -13018214.83448  21006661.381    21006668.4794
 01  7 12 19 13 30.0000000  0 10 14 23 09 03 17 31 18 15 29 21
  22658065.511   -10187389.934 8  -7924781.13646  22658064.919    22658073.3374
  22145788.202     6840222.036 8   5330139.59247  22145787.740    22145795.1174
  24236892.796    -1251397.489 8   -968068.16245  24236892.219    24236902.3604
  21228061.638   -18929807.022 9 -14737577.78147  21228061.369    21228068.4784
  21781222.861     5903257.928 8   4598510.18146  21781222.473    21781230.3414
  22951835.860   -13679484.145 8  -9925710.95246  22951835.355    22951843.4554
  20806896.609    -2423501.464 9  -1774360.85948  20806896.295    20806901.9334
  20758709.012     -835006.667 9   -647727.72647  20758708.345    20758715.4564
  23506151.228    -6603702.851 8  -5123332.19145  23506150.970    23506162.1554
  21002026.275   -16744197.366 9 -13037196.25148  21002025.890    21002033.0204
 01  7 12 19 14  0.0000000  0 10 14 23 09 03 17 31 18 15 29 21
  22638491.750   -10290249.691 8  -8004931.48246  22638491.288    22638499.6634
  22158067.860     6904751.396 8   5380422.16647  22158067.299    22158074.6734
  24226496.697    -1306027.946 8  -1010637.26945  24226496.465    24226506.3104
  21226135.335   -18939929.887 9 -14745465.74047  21226135.052    21226142.1434
  21793506.821     5967809.810 8   4648810.29746  21793506.370    21793514.2114
  22938158.418   -13751360.167 8  -9981718.21146  22938157.884    22938165.8324
  20815706.127    -2377207.299 9  -1738287.51348  20815705.807    20815711.4644
  20766977.002     -791558.230 9   -613871.83647  20766976.311    20766983.4704
  23485805.892    -6710617.840 8  -5206642.43945  23485805.715    23485816.8634
  20997442.632   -16768284.614 9 -13055965.53048  20997442.233    20997449.3664
 01  7 12 19 14 30.0000000  0 10 14 23 09 03 17 31 18 15 29 21
  22618966.797   -10392852.877 8  -8084881.90546  22618966.456    22618974.7724
  22170372.313     6969411.038 8   5430806.26247  22170371.701    22170379.0574
  24216173.312    -1360277.184 8  -1052909.34745  24216173.073    24216182.8634
  21224320.340   -18949467.613 9 -14752897.74147  21224320.069    21224327.1934
  21805846.154     6032653.414 8   4699337.73046  21805845.677    21805853.6104
  22924564.624   -13822795.885 8 -10037382.36846  22924564.135    22924572.1284
  20824569.966    -2330627.800 9  -1701991.83348  20824569.620    20824575.2664
  20775310.454     -747765.309 9   -579747.51447  20775309.822    20775317.0634
  23465487.888    -6817388.550 8  -5289840.29345  23465487.791    23465498.8274
  20992910.677   -16792100.282 9 -13074523.19548  20992910.271    20992917.4064
 01  7 12 19 15  0.0000000  0 10 14 23 09 03 17 31 18 15 29 21
  22599491.445   -10495196.080 8  -8164629.72446  22599491.098    22599499.4274
  22182701.371     7034200.570 8   5481291.57047  22182700.786    22182708.1544
  24205923.271    -1414141.709 8  -1094881.65445  24205922.899    24205932.6164
  21222616.867   -18958419.311 9 -14759873.09747  21222616.608    21222623.6894
  21818241.161     6097789.454 8   4750093.02546  21818240.676    21818248.6304
  22911055.117   -13893788.402 8 -10092701.17046  22911054.627    22911062.7414
  20833487.957    -2283763.683 9  -1665474.37048  20833487.637    20833493.2104
  20783709.639     -703627.091 9   -545354.12747  20783709.028    20783716.2924
  23445197.943    -6924011.879 8  -5372923.28045  23445197.917    23445208.9684
  20988430.497   -16815643.874 9 -13092868.84848  20988430.092    20988437.2044
 01  7 12 19 15 30.0000000  0 10 14 23 09 03 17 31 18 15 29 21
  22580065.952   -10597277.148 8  -8244173.29246  22580065.636    22580073.9264
  22195054.671     7099118.132 8   5531876.64947  22195054.164    22195061.6004
  24195746.754    -1467619.377 8  -1136552.52345  24195746.344    24195756.1214
  21221024.937   -18966784.937 9 -14766391.77847  21221024.690    21221031.8054
  21830691.568     6163216.994 8   4801075.47946  21830691.137    21830699.1314
  22897630.355   -13964336.168 8 -10147673.41946  22897629.850    22897637.9264
  20842459.735    -2236617.061 9  -1628736.77548  20842459.386    20842464.9564
  20792174.535     -659144.209 9   -510692.17547  20792173.907    20792181.1874
  23424936.817    -7030485.981 8  -5455889.99845  23424936.644    23424947.4644
  20984001.733   -16838916.951 9 -13111003.71448  20984001.328    20984008.4784
 01  7 12 19 16  0.0000000  0 10 14 23 09 03 17 31 18 15 29 21
  22560690.984   -10699093.433 8  -8323510.52646  22560690.569    22560698.7654
  22207432.202     7164162.845 8   5582560.79847  22207431.775    22207439.2164
  24185644.421    -1520706.812 8  -1177919.30145  24185644.007    24185653.9804
  21219544.637   -18974563.874 9 -14772453.29547  21219544.415    21219551.5304
  21843197.590     6228936.003 8   4852285.03346  21843197.109    21843205.1014
  22884290.743   -14034436.520 8 -10202297.03946  22884290.215    22884298.2204
  20851484.974    -2189189.066 9  -1591779.92748  20851484.648    20851490.2004
  20800704.931     -614316.480 9   -475761.50247  20800704.322    20800711.6654
  23404704.289    -7136808.227 8  -5538738.39645  23404704.071    23404714.7994
  20979624.416   -16861919.819 9 -13128928.02448  20979624.038    20979631.1634
 01  7 12 19 16 30.0000000  0 10 14 23 09 03 17 31 18 15 29 21
  22541366.922   -10800642.318 8  -8402639.39646  22541366.467    22541374.6074
  22219833.881     7229333.428 8   5633343.02647  22219833.379    22219840.8354
  24175616.877    -1573401.694 8  -1218980.21945  24175616.509    24175626.4464
  21218176.001   -18981756.218 9 -14778057.72547  21218175.772    21218182.8754
  21855758.967     6294946.188 8   4903721.46546  21855758.443    21855766.6224
  22871036.576   -14104087.043 8 -10256570.12446  22871036.122    22871044.1914
  20860563.446    -2141481.272 9  -1554605.05448  20860563.133    20860568.6974
  20809301.017     -569144.041 9   -440562.23247  20809300.411    20809307.7324
  23384500.932    -7242976.274 8  -5621466.65045  23384500.827    23384511.4774
  20975298.576   -16884652.391 9 -13146641.71748  20975298.173    20975305.2994
 01  7 12 19 17  0.0000000  0 10 14 23 09 03 17 31 18 15 29 21
  22522094.154   -10901920.637 8  -8481557.43046  22522093.759    22522101.8224
  22232259.204     7294629.027 8   5684222.66647  22232258.757    22232266.2644
  24165664.416    -1625700.833 8  -1259732.78845  24165664.189    24165674.2204
  21216919.218   -18988360.898 9 -14783204.23747  21216918.963    21216926.0534
  21868375.714     6361247.758 8   4955384.95646  21868375.219    21868383.4664
  22857868.481   -14173285.193 8 -10310490.71946  22857868.048    22857876.2044
  20869694.981    -2093494.786 9  -1517213.02048  20869694.681    20869700.2614
  20817962.809     -523626.374 9   -405093.95047  20817962.185    20817969.5134
  23364327.815    -7348987.167 8  -5704072.43046  23364327.573    23364338.1284
  20971024.138   -16907114.749 9 -13164144.84848  20971023.732    20971030.8554
 01  7 12 19 17 30.0000000  0 10 14 23 09 03 17 31 18 15 29 21
  22502873.328   -11002926.095 8  -8560262.87146  22502873.075    22502880.9754
  22244708.065     7360048.272 8   5735198.65047  22244707.669    22244715.1934
  24155787.935    -1677601.535 8  -1300174.85645  24155787.816    24155797.8124
  21215774.246   -18994377.808 9 -14787892.74847  21215773.985    21215781.0824
  21881047.788     6427840.274 8   5007275.14746  21881047.326    21881055.5914
  22844786.833   -14242028.829 8 -10364057.14546  22844786.484    22844794.7194
  20878879.294    -2045231.285 9  -1479605.13048  20878878.963    20878884.5384
  20826690.205     -477763.665 9   -369356.80047  20826689.573    20826696.9104
  23344184.935    -7454838.942 8  -5786554.23246  23344184.488    23344195.1614
  20966800.958   -16929307.650 9 -13181438.01148  20966800.566    20966807.6884
 01  7 12 19 18  0.0000000  0 10 14 23 09 03 17 31 18 15 29 21
  22483705.005   -11103656.140 8  -8638753.67546  22483704.706    22483712.5544
  22257180.358     7425589.912 8   5786270.00947  22257179.895    22257187.4174
  24145988.060    -1729100.972 8  -1340304.25245  24145987.891    24145997.7754
  21214741.164   -18999806.827 9 -14792123.16147  21214740.920    21214748.0144
  21893775.153     6494723.366 8   5059391.77046  21893774.775    21893783.1504
  22831792.354   -14310315.490 8 -10417267.49346  22831791.899    22831800.1884
  20888115.959    -1996692.279 9  -1441782.55648  20888115.648    20888121.2234
  20835483.306     -431556.095 9   -333350.93047  20835482.625    20835489.9464
  23324072.570    -7560529.080 8  -5868910.08346  23324072.330    23324082.8464
  20962629.003   -16951231.649 9 -13198521.64648  20962628.564    20962635.6924
 01  7 12 19 18 30.0000000  0 10 14 23 09 03 17 31 18 15 29 21
  22464589.573   -11204108.390 8  -8717028.04146  22464589.209    22464596.9784
  22269675.531     7491252.310 8   5837435.46647  22269675.065    22269682.6084
  24136264.767    -1780196.715 8  -1380119.06945  24136264.602    24136274.5884
  21213819.870   -19004648.185 9 -14795895.65747  21213819.598    21213826.6954
  21906557.972     6561896.604 8   5111734.48746  21906557.526    21906565.7804
  22818884.961   -14378143.525 8 -10470120.45046  22818884.535    22818892.8494
  20897404.776    -1947879.485 9  -1403746.64448  20897404.458    20897410.0424
  20844341.956     -385003.800 9   -297076.44347  20844341.263    20844348.5994
  23303991.544    -7666055.475 8  -5951138.33846  23303991.193    23304001.6834
  20958507.978   -16972887.659 9 -13215396.45648  20958507.577    20958514.7214
 01  7 12 19 19  0.0000000  0 10 14 23 09 03 17 31 18 15 29 21
  22445527.328   -11304280.237 8  -8795083.89646  22445527.035    22445534.7164
  22282193.547     7557034.430 8   5888694.21947  22282193.068    22282200.5574
  24126618.686    -1830885.812 8  -1419617.06145  24126618.750    24126628.7614
  21213010.484   -19008901.495 9 -14799209.93147  21213010.209    21213017.3674
  21919395.851     6629359.662 8   5164303.03146  21919395.448    21919403.6324
  22806065.568   -14445510.323 8 -10522614.03046  22806065.109    22806073.2924
  20906745.407    -1898794.180 9  -1365498.38448  20906745.102    20906750.7194
  20853266.013     -338107.166 9   -260533.63447  20853265.375    20853272.7364
  23283942.025    -7771415.914 8  -6033237.27546  23283941.683    23283952.1204
  20954437.898   -16994276.083 9 -13232062.75548  20954437.475    20954444.6294
 01  7 12 19 19 30.0000000  0 10 14 23 09 03 17 31 18 15 29 21
  22426518.996   -11404169.203 8  -8872919.33146  22426518.704    22426526.3744
  22294734.112     7622935.178 8   5940045.40547  22294733.607    22294740.9924
  24117050.639    -1881166.171 7  -1458796.53945  24117050.613    24117060.6874
  21212313.069   -19012566.558 9 -14802065.83447  21212312.801    21212319.9144
  21932288.871     6697112.077 8   5217097.05246  21932288.412    21932296.4784
  22793334.245   -14512414.134 8 -10574746.83546  22793333.724    22793341.8954
  20916137.568    -1849438.254 9  -1327039.26048  20916137.249    20916142.9014
  20862255.679     -290866.495 9   -223722.75247  20862255.021    20862262.3244
  23263924.444    -7876607.880 8  -6115204.92046  23263924.221    23263934.6854
  20950418.585   -17015397.380 9 -13248520.90948  20950418.217    20950425.3344
 01  7 12 19 20  0.0000000  0 10 14 23 09 03 17 31 18 15 29 21
  22407565.069   -11503772.330 8  -8950532.02646  22407564.726    22407572.4124
  22307297.144     7688953.814 8   5991488.45347  22307296.600    22307303.9634
  24107561.027    -1931034.518 7  -1497654.95045  24107560.883    24107571.1004
  21211727.686   -19015642.843 9 -14804462.94447  21211727.387    21211734.5504
  21945236.937     6765154.127 8   5270116.77246  21945236.499    21945244.4794
  22780691.382   -14578852.031 8 -10626516.57746  22780690.926    22780699.1604
  20925581.056    -1799812.638 9  -1288369.98748  20925580.722    20925586.3764
  20871310.784     -243281.376 9   -186643.46447  20871310.173    20871317.5374
  23243939.337    -7981628.706 8  -6197039.23045  23243939.356    23243949.7394
  20946450.252   -17036251.324 9 -13264770.72948  20946449.845    20946456.9634
 01  7 12 19 20 30.0000000  0 10 14 23 09 03 17 31 18 15 29 21
  22388666.019   -11603087.115 8  -9027920.05746  22388665.680    22388673.3834
  22319882.201     7755089.099 8   6043022.40047  22319881.678    22319889.1254
  24098150.217    -1980488.096 7  -1536190.16945  24098150.138    24098160.2574
  21211254.313   -19018130.280 9 -14806401.21647  21211254.034    21211261.1844
  21958240.092     6833485.480 8   5323361.91046  21958239.627    21958247.5334
  22768137.720   -14644821.878 8 -10677921.61246  22768137.257    22768145.4014
  20935075.544    -1749918.860 9  -1249491.75748  20935075.199    20935080.8344
  20880431.555     -195351.791 9   -149295.76147  20880430.918    20880438.2564
  23223987.456    -8086475.997 8  -6278738.28745  23223987.398    23223997.8304
  20942532.645   -17056838.534 9 -13280812.70648  20942532.257    20942539.3134
 01  7 12 19 21  0.0000000  0 10 14 23 09 03 17 31 18 15 29 21
  22369822.282   -11702111.203 8  -9105081.57046  22369821.925    22369829.6294
  22332489.137     7821339.401 8   6094645.96247  22332488.680    22332496.1874
  24088818.877    -2029524.816 7  -1574400.53245  24088818.658    24088828.8204
  21210893.023   -19020029.174 9 -14807880.88347  21210892.715    21210899.8394
  21971298.066     6902105.406 8   5376831.91846  21971297.617    21971305.5144
  22755673.425   -14710321.946 8 -10728960.58546  22755672.936    22755681.0624
  20944620.761    -1699758.596 9  -1210405.87348  20944620.431    20944626.0154
  20889617.677     -147078.320 9   -111680.10247  20889617.079    20889624.3984
  23204069.215    -8191147.624 8  -6360300.47045  23204068.987    23204079.3394
  20938665.550   -17077160.172 9 -13296647.74748  20938665.164    20938672.2434
 01  7 12 19 21 30.0000000  0 10 14 23 09 03 17 31 18 15 29 21
  22351034.299   -11800841.996 8  -9182014.53846  22351033.991    22351041.6734
  22345117.911     7887703.624 8   6146358.29447  22345117.397    22345124.9564
  24079567.341    -2078141.769 7  -1612283.85045  24079567.182    24079577.4194
  21210643.685   -19021339.254 9 -14808901.74247  21210643.407    21210650.5224
  21984410.978     6971013.569 8   5430526.51546  21984410.459    21984418.3764
  22743299.016   -14775350.068 8 -10779631.81146  22743298.512    22743306.6824
  20954216.409    -1649333.238 9  -1171113.42048  20954216.088    20954221.6714
  20898869.293      -98461.183 9    -73796.65547  20898868.674    20898875.9684
  23184184.782    -8295641.488 8  -6441724.16245  23184184.453    23184194.5654
  20934849.022   -17097216.424 9 -13312275.99748  20934848.626    20934855.6614
 01  7 12 19 22  0.0000000  0 10 14 23 09 03 17 31 18 15 29 21
  22332302.823   -11899276.697 8  -9258716.78546  22332302.439    22332310.0864
  22357768.155     7954180.843 8   6198158.67147  22357767.669    22357775.2164
  24070395.985    -2126336.055 7  -1649837.81245  24070395.981    24070406.4304
  21210506.403   -19022060.532 9 -14809463.79147  21210506.162    21210513.2864
  21997578.669     7040209.810 8   5484445.58946  21997578.093    21997586.0854
  22731014.882   -14839903.986 8 -10829933.54146  22731014.326    22731022.4314
  20963862.213    -1598644.235 9  -1131615.52148  20963861.890    20963867.5114
  20908186.241      -49500.091 9    -35645.18147  20908185.664    20908193.0134
  23164334.474    -8399954.900 8  -6523007.19645  23164334.285    23164344.3394
  20931082.918   -17117007.396 9 -13327697.53048  20931082.513    20931089.5444
 01  7 12 19 22 30.0000000  0 10 14 23 09 03 17 31 18 15 29 21
  22313628.037   -11997412.959 8  -9335186.48646  22313627.638    22313635.2634
  22370439.611     8020769.744 8   6250046.07847  22370439.107    22370446.6534
  24061305.953    -2174105.712 8  -1687060.86745  24061305.874    24061315.9484
  21210481.273   -19022192.951 9 -14809566.99547  21210481.019    21210488.0514
  22010801.000     7109693.755 8   5538588.83246  22010800.460    22010808.4754
  22718821.345   -14903981.527 8 -10879864.06546  22718820.798    22718828.8264
  20973557.878    -1547693.203 9  -1091913.45148  20973557.578    20973563.2724
  20917568.666        -195.387 9      2774.03447  20917568.089    20917575.4394
  23144519.083    -8504085.534 8  -6604147.82045  23144518.853    23144528.8284
  20927367.184   -17136534.069 9 -13342913.12348  20927366.735    20927373.7534
 01  7 12 19 23  0.0000000  0 10 14 23 09 03 17 31 18 15 29 21
  22295010.486   -12095248.216 8  -9411421.63946  22295010.106    22295017.6854
  22383132.132     8087469.502 8   6302019.87147  22383131.670    22383139.2174
  24052297.475    -2221447.654 7  -1723950.65345  24052297.031    24052307.0304
  21210568.231   -19021736.063 9 -14809210.99047  21210567.949    21210574.9944
  22024078.039     7179465.294 8   5592956.17946  22024077.538    22024085.7194
  22706718.837   -14967580.339 8 -10929421.56446  22706718.296    22706726.2014
  20983303.259    -1496481.224 9  -1052008.04148  20983302.962    20983308.6854
  20927016.467       49452.976 9     41461.03747  20927015.908    20927023.2594
  23124738.813    -8608030.839 8  -6685144.02645  23124738.677    23124748.4714
  20923701.637   -17155796.455 9 -13357922.77148  20923701.183    20923708.2354
 01  7 12 19 23 30.0000000  0 10 14 23 09 03 17 31 18 15 29 21
  22276450.744   -12192779.529 8  -9487419.94846  22276450.434    22276458.0194
  22395845.640     8154279.466 8   6354079.54047  22395845.219    22395852.7644
  24043370.107    -2268359.130 7  -1760504.99445  24043369.842    24043380.0004
  21210767.313   -19020689.970 9 -14808395.87547  21210767.032    21210774.0884
  22037409.794     7249524.229 8   5647547.46946  22037409.339    22037417.6034
  22694707.988   -15030698.170 8 -10978604.25046  22694707.331    22694715.1784
  20993097.991    -1445009.698 9  -1011900.39048  20993097.701    20993103.3964
  20936529.754       99445.243 9     80416.02247  20936529.162    20936536.5074
  23104994.220    -8711788.183 8  -6765993.76246  23104994.156    23105003.9854
  20920086.381   -17174794.655 9 -13372726.56448  20920085.966    20920093.0014
 01  7 12 19 24  0.0000000  0 10 14 23 09 03 17 31 18 15 29 21
  22257949.536   -12290004.400 8  -9563179.48846  22257949.073    22257956.6634
  22408580.086     8221198.478 8   6406224.17547  22408579.573    22408587.0974
  24034525.446    -2314837.433 7  -1796721.77245  24034525.304    24034535.6044
  21211078.562   -19019054.443 9 -14807121.45747  21211078.316    21211085.3584
  22050796.173     7319870.516 8   5702362.66446  22050795.732    22050804.1564
  22682788.826   -15093332.769 8 -11027410.39646  22682788.302    22682796.2284
  21002941.885    -1393279.866 9   -971591.46148  21002941.556    21002947.2464
  20946108.417      149781.358 9    119638.93347  20946107.801    20946115.1624
  23085285.978    -8815355.286 8  -6846695.28546  23085285.959    23085295.6074
  20916521.352   -17193528.878 9 -13387324.66348  20916520.924    20916527.9474
 01  7 12 19 24 30.0000000  0 10 14 23 09 03 17 31 18 15 29 21
  22239506.840   -12386920.287 8  -9638698.24746  22239506.430    22239514.0964
  22421334.923     8288225.117 8   6458452.67247  22421334.383    22421341.9214
  24025764.071    -2360880.041 7  -1832599.07445  24025763.680    24025774.0054
  21211501.860   -19016829.866 9 -14805388.04147  21211501.643    21211508.6614
  22064237.203     7390503.368 8   5757401.17746  22064236.757    22064245.2434
  22670962.005   -15155482.348 8 -11075838.60046  22670961.560    22670969.4634
  21012834.561    -1341293.322 9   -931082.48947  21012834.258    21012839.9724
  20955752.478      200461.157 9    159129.64947  20955751.845    20955759.2554
  23065614.307    -8918729.997 8  -6927246.86346  23065614.278    23065623.8944
  20913006.426   -17211999.882 9 -13401717.65648  20913006.027    20913013.0294
 01  7 12 19 25  0.0000000  0 10 14 23 09 03 17 31 18 15 29 21
  22221123.595   -12483524.948 8  -9713974.50346  22221123.137    22221130.7404
  22434109.950     8355358.397 8   6510764.27147  22434109.429    22434116.9914
  24017085.747    -2406484.584 7  -1868135.00845  24017085.348    24017095.6814
  21212037.264   -19014016.359 9 -14803195.71847  21212037.062    21212044.1074
  22077732.809     7461422.480 8   5812662.74846  22077732.334    22077740.8344
  22659228.088   -15217144.761 8 -11123887.20546  22659227.583    22659235.5014
  21022775.878    -1289051.593 9   -890374.67447  21022775.585    21022781.2894
  20965461.827      251484.263 9    198887.88147  20965461.233    20965468.6524
  23045979.756    -9021909.893 8  -7007646.65946  23045979.680    23045989.2974
  20909541.581   -17230207.797 9 -13415905.64348  20909541.156    20909548.1654
 01  7 12 19 25 30.0000000  0 10 14 23 09 03 17 31 18 15 29 21
  22202800.066   -12579815.497 8  -9789005.98746  22202799.532    22202807.1534
  22446905.086     8422597.369 8   6563158.23147  22446904.582    22446912.1794
  24008491.115    -2451648.221 7  -1903327.36345  24008490.918    24008501.2354
  21212684.780   -19010613.716 9 -14800544.32647  21212684.564    21212691.6384
  22091282.953     7532627.720 8   5868147.26546  22091282.393    22091290.8854
  22647587.295   -15278317.452 8 -11171554.21246  22647586.782    22647594.7464
  21032765.563    -1236555.808 9   -849468.89247  21032765.250    21032770.9334
  20975236.442      302850.361 9    238913.37847  20975235.886    20975243.3014
  23026382.613    -9124892.542 8  -7087892.74946  23026382.647    23026392.1574
  20906126.678   -17248153.231 9 -13429889.10048  20906126.250    20906133.2894
 01  7 12 19 26  0.0000000  0 10 14 23 09 03 17 31 18 15 29 21
  22184536.692   -12675789.566 8  -9863790.88747  22184536.235    22184543.7554
  22459720.232     8489940.832 8   6615633.59847  22459719.670    22459727.3584
  23999981.109    -2496368.883 7  -1938174.56845  23999980.849    23999991.1134
  21213444.314   -19006622.177 9 -14797434.04547  21213444.088    21213451.2134
  22104887.282     7604118.486 8   5923854.28346  22104886.725    22104895.2414
  22636040.080   -15338998.666 8 -11218838.24746  22636039.586    22636047.5544
  21042803.287    -1183807.734 9   -808366.52247  21042802.941    21042808.6224
  20985076.399      354559.497 9    279206.17547  20985075.814    20985083.2524
  23006823.412    -9227675.382 8  -7167983.12946  23006823.528    23006833.0054
  20902761.509   -17265837.284 9 -13443668.88548  20902761.110    20902768.1404
 01  7 12 19 26 30.0000000  0 10 14 23 09 03 17 31 18 15 29 21
  22166333.934   -12771444.939 8  -9938327.45247  22166333.577    22166341.0444
  22472554.902     8557387.348 8   6668189.27247  22472554.355    22472562.1034
  23991555.818    -2540644.064 7  -1972674.61045  23991555.512    23991565.5924
  21214315.898   -19002042.249 9 -14793865.28847  21214315.635    21214322.7424
  22118545.723     7675894.238 8   5979783.35946  22118545.210    22118553.8174
  22624586.631   -15399186.773 8 -11265738.03646  22624586.115    22624594.0654
  21052888.600    -1130809.008 9   -767068.83647  21052888.249    21052893.9834
  20994981.512      406611.018 9    319765.76747  20994980.897    20994988.3524
  22987302.787    -9330256.803 8  -7247916.56246  22987302.852    22987312.3354
  20899445.880   -17283261.028 9 -13457245.82848  20899445.455    20899452.5214
 01  7 12 19 27  0.0000000  0 10 14 23 09 03 17 31 18 15 29 21
  22148192.526   -12866778.688 8 -10012613.40447  22148192.106    22148199.5594
  22485409.009     8624936.027 8   6720824.56147  22485408.466    22485416.2624
  23983215.871    -2584471.120 7  -2006825.46845  23983215.496    23983225.5784
  21215299.407   -18996873.938 9 -14789838.05247  21215299.154    21215306.2964
  22132258.381     7747954.758 8   6035934.33546  22132257.947    22132266.5054
  22613227.499   -15458879.491 8 -11312251.82046  22613226.988    22613234.9334
  21063021.324    -1077560.806 9   -725576.76447  21063021.014    21063026.8064
  21004951.686      459004.948 9    360592.17847  21004951.135    21004958.6244
  22967820.824    -9432634.128 8  -7327690.98746  22967820.999    22967830.3764
  20896179.829   -17300424.250 9 -13470619.77248  20896179.406    20896186.4744
 01  7 12 19 27 30.0000000  0 10 14 23 09 03 17 31 18 15 29 21
  22130112.618   -12961788.943 8 -10086647.28647  22130112.172    22130119.5924
  22498282.306     8692585.705 8   6773538.54747  22498281.804    22498289.6294
  23974961.284    -2627847.851 7  -2040625.40445  23974961.050    23974971.2074
  21216394.797   -18991117.790 9 -14785352.76347  21216394.526    21216401.7044
  22146025.325     7820299.432 8   6092306.70846  22146024.806    22146033.2634
  22601962.997   -15518074.932 8 -11358378.10246  22601962.487    22601970.4144
  21073201.331    -1024064.732 9   -683891.54147  21073201.006    21073206.8074
  21014987.104      511740.936 9    401685.11747  21014986.477    21014993.9914
  22948378.358    -9534805.138 8  -7407304.62846  22948378.428    22948387.7454
  20892963.323   -17317327.189 9 -13483790.89848  20892962.893    20892969.9714
 01  7 12 19 28  0.0000000  0 10 14 23 09 03 17 31 18 15 29 21
  22112094.838   -13056472.808 8 -10160426.83647  22112094.386    22112101.7854
  22511174.786     8760335.705 8   6826330.70047  22511174.238    22511182.0044
  23966793.058    -2670771.541 8  -2074072.34645  23966792.944    23966802.9494
  21217602.019   -18984773.637 9 -14780409.29347  21217601.810    21217608.9874
  22159846.132     7892928.073 8   6148900.36246  22159845.658    22159854.0804
  22590793.490   -15576770.808 8 -11404115.12646  22590793.010    22590800.9084
  21083428.312     -970321.939 9   -642014.05947  21083427.976    21083433.7314
  21025087.570      564819.213 9    443044.78347  21025086.945    21025094.5044
  22928975.499    -9636767.386 8  -7486755.59646  22928975.511    22928984.9444
  20889796.278   -17333970.251 9 -13496759.52648  20889795.835    20889802.8994
 01  7 12 19 28 30.0000000  0 10 14 23 09 03 17 31 18 15 29 21
  22094139.563   -13150827.870 8 -10233950.17847  22094139.186    22094146.5354
  22524086.089     8828184.910 8   6879200.16047  22524085.530    22524093.2674
  23958711.851    -2713239.853 8  -2107164.44145  23958711.519    23958721.3514
  21218921.141   -18977841.846 9 -14775007.91347  21218920.907    21218928.0604
  22173720.884     7965840.373 8   6205715.06446  22173720.453    22173728.8584
  22579719.374   -15634965.352 8 -11449461.50046  22579718.926    22579726.7844
  21093701.971     -916333.890 9   -599945.47147  21093701.624    21093707.3604
  21035253.113      618239.346 9    484670.82647  21035252.508    21035260.0454
  22909612.910    -9738518.485 8  -7566042.03946  22909612.835    22909622.2764
  20886678.572   -17350353.983 9 -13509526.07348  20886678.114    20886685.1474
 01  7 12 19 29  0.0000000  0 10 14 23 09 03 17 31 18 15 29 21
  22076247.307   -13244851.726 8 -10307215.44847  22076246.982    22076254.3174
  22537016.004     8896131.979 8   6932145.87646  22537015.429    22537023.2214
  23950717.311    -2755250.709 7  -2139900.09745  23950716.984    23950726.9014
  21220351.974   -18970322.795 9 -14769148.93847  21220351.736    21220358.8944
  22187649.569     8039035.480 8   6262750.11446  22187649.130    22187657.4574
  22568741.087   -15692656.796 8 -11494415.85246  22568740.596    22568748.4464
  21104021.873     -862102.323 9   -557687.13247  21104021.540    21104027.3084
  21045483.668      672000.985 9    526562.98247  21045483.045    21045490.6204
  22890290.936    -9840056.570 8  -7645162.48646  22890290.661    22890300.1114
  20883609.991   -17366479.425 9 -13522091.36448  20883609.548    20883616.5864
 01  7 12 19 29 30.0000000  0 10 14 23 09 03 17 31 18 15 29 21
  22058418.695   -13338541.600 8 -10380220.46147  22058418.315    22058425.6634
  22549964.393     8964176.439 8   6985167.47946  22549963.825    22549971.7324
  23942810.281    -2796801.141 7  -2172276.98445  23942810.187    23942820.0834
  21221894.623   -18962216.321 9 -14762832.22547  21221894.378    21221901.5404
  22201632.151     8112513.564 8   6320005.65746  22201631.620    22201639.9104
  22557859.051   -15749842.411 8 -11538976.03946  22557858.539    22557866.3964
  21114387.938     -807628.118 9   -515239.72447  21114387.644    21114393.4094
  21055779.250      726104.301 9    568721.37547  21055778.608    21055786.1284
  22871009.807    -9941378.612 8  -7724114.60446  22871009.600    22871019.0214
  20880590.599   -17382346.408 9 -13534455.25348  20880590.158    20880597.2344
 01  7 12 19 30  0.0000000  0 10 14 23 09 03 17 31 18 15 29 21
  22040653.915   -13431895.311 8 -10452963.53747  22040653.563    22040660.8804
  22562931.162     9032317.081 8   7038264.03146  22562930.628    22562938.5264
  23934991.648    -2837888.844 8  -2204293.30245  23934991.421    23935001.2434
  21223548.921   -18953522.948 9 -14756058.19047  21223548.693    21223555.8714
  22215668.280     8186273.940 8   6377481.20846  22215667.784    22215676.0004
  22547073.476   -15806520.663 8 -11583140.87546  22547072.986    22547080.8524
  21124799.966     -752912.706 9   -472604.36347  21124799.635    21124805.3904
  21066139.867      780548.903 9    611145.70847  21066139.175    21066146.6124
  22851770.331   -10042482.588 8  -7802896.79846  22851770.099    22851779.4654
  20877620.291   -17397955.549 9 -13546618.22848  20877619.874    20877626.9264
 01  7 12 19 30 30.0000000  0 10 14 23 09 03 17 31 18 15 29 21
  22022953.824   -13524910.253 8 -10525442.63847  22022953.397    22022960.6454
  22575916.153     9100552.865 8   7091434.72147  22575915.588    22575923.4114
  23927261.601    -2878511.482 8  -2235947.21745  23927261.192    23927270.8964
  21225314.829   -18944243.271 9 -14748827.29147  21225314.580    21225321.7574
  22229758.138     8260316.186 8   6435176.36446  22229757.669    22229765.9124
  22536384.804   -15862689.849 8 -11626909.04946  22536384.326    22536392.1454
  21135257.547     -697957.593 9   -429782.22647  21135257.236    21135263.0314
  21076565.268      835334.625 9    653835.85147  21076564.568    21076572.0024
  22832572.525   -10143366.149 8  -7881507.21946  22832572.459    22832581.8964
  20874698.950   -17413307.506 9 -13558580.79748  20874698.507    20874705.5674
 01  7 12 19 31  0.0000000  0 10 14 23 09 03 17 31 18 15 29 21
  22005318.419   -13617584.265 8 -10597656.06747  22005317.995    22005325.2304
  22588918.947     9168882.659 8   7144678.65447  22588918.447    22588926.2484
  23919619.998    -2918666.706 8  -2267236.93045  23919619.752    23919629.3484
  21227192.243   -18934377.595 9 -14741139.77347  21227191.991    21227199.1594
  22243901.630     8334639.856 8   6493090.82846  22243901.068    22243909.3574
  22525793.404   -15918348.235 8 -11670279.19346  22525792.898    22525800.7234
  21145760.476     -642764.498 9   -386774.64247  21145760.185    21145765.9684
  21087055.525      890461.081 9    696791.50047  21087054.846    21087062.2304
  22813417.339   -10244026.975 8  -7959944.10046  22813417.290    22813426.6364
  20871826.407   -17428402.711 9 -13570343.30648  20871825.986    20871833.0144
 01  7 12 19 31 30.0000000  0 10 14 23 09 03 17 31 18 15 29 21
  21987748.582   -13709914.227 8 -10669601.41647  21987748.209    21987755.2894
  22601939.446     9237305.808 8   7197995.34847  22601938.983    22601946.7474
  23912068.010    -2958351.988 7  -2298160.47545  23912067.850    23912077.6334
  21229181.177   -18923925.756 9 -14732995.50747  21229180.934    21229188.0744
  22258098.564     8409244.788 8   6551224.46846  22258098.010    22258106.3814
  22515299.539   -15973493.261 8 -11713249.31546  22515299.122    22515306.9854
  21156308.584     -587334.310 9   -343582.30947  21156308.252    21156314.0514
  21097610.660      945928.461 9    740012.80447  21097609.968    21097617.3414
  22794304.936   -10344462.533 8  -8038205.43846  22794304.921    22794314.2554
  20869002.762   -17443241.175 9 -13581905.75048  20869002.320    20869009.3944
 01  7 12 19 32  0.0000000  0 10 14 23 09 03 17 31 18 15 29 21
  21970244.495   -13801898.265 8 -10741277.20847  21970244.117    21970251.2584
  22614977.466     9305820.889 8   7251383.66147  22614977.037    22614984.7924
  23904606.031    -2997565.428 8  -2328716.37445  23904605.725    23904615.3694
  21231281.438   -18912888.948 9 -14724395.42147  21231281.190    21231288.3594
  22272348.739     8484130.260 8   6609576.69046  22272348.264    22272356.7924
  22504903.692   -16028123.500 8 -11755818.31546  22504903.260    22504911.1464
  21166901.375     -531668.668 9   -300206.50847  21166901.069    21166906.9114
  21108230.459     1001736.125 9    783499.26547  21108229.797    21108237.2044
  22775235.937   -10444670.938 8  -8116289.79646  22775235.902    22775245.0774
  20866227.763   -17457823.830 9 -13593268.86548  20866227.371    20866234.4124
 01  7 12 19 32 30.0000000  0 10 14 23 09 03 17 31 18 15 29 21
  21952806.615   -13893534.141 8 -10812681.68647  21952806.309    21952813.4354
  22628032.965     9374426.779 8   7304842.73647  22628032.419    22628040.1644
  23897234.132    -3036304.764 8  -2358902.80945  23897233.810    23897243.3594
  21233492.940   -18901267.528 9 -14715339.79147  21233492.709    21233499.8634
  22286652.298     8559295.486 8   6668146.91246  22286651.801    22286660.3904
  22494606.143   -16082237.192 8 -11797984.79846  22494605.719    22494613.6804
  21177538.708     -475769.193 9   -256648.49947  21177538.355    21177544.2064
  21118914.987     1057883.564 9    827250.48147  21118914.300    21118921.7244
  22756210.473   -10544650.165 8  -8194195.52946  22756210.384    22756219.6134
  20863501.431   -17472151.025 9 -13604432.91448  20863500.999    20863508.0194
 01  7 12 19 33  0.0000000  0 10 14 23 09 03 17 31 18 15 29 21
  21935435.710   -13984818.786 8 -10883812.50447  21935435.354    21935442.4324
  22641105.483     9443123.381 8   7358372.49347  22641104.959    22641112.7674
  23889952.726    -3074567.279 8  -2388717.71745  23889952.660    23889962.1914
  21235815.765   -18889061.236 9 -14705828.42047  21235815.521    21235822.6914
  22301009.047     8634740.828 8   6726935.40946  22301008.573    22301017.2654
  22484407.420   -16135831.946 8 -11839746.91346  22484406.949    22484414.9004
  21188220.389     -419636.615 9   -212908.85547  21188220.070    21188225.8834
  21129664.201     1114371.244 9    871266.82647  21129663.538    21129671.0154
  22737229.109   -10644397.038 8  -8271920.24046  22737229.084    22737238.2024
  20860823.697   -17486222.413 9 -13615397.63548  20860823.283    20860830.3274
 01  7 12 19 33 30.0000000  0 10 14 23 09 03 17 31 18 15 29 21
  21918131.986   -14075750.083 8 -10954667.97847  21918131.604    21918138.6834
  22654194.999     9511909.643 8   7411972.10547  22654194.497    22654202.4414
  23882762.789    -3112350.662 8  -2418159.24945  23882762.718    23882772.0834
  21238249.684   -18876270.751 9 -14695861.83447  21238249.446    21238256.6574
  22315419.072     8710465.543 8   6785941.57946  22315418.617    22315427.3104
  22474307.802   -16188905.797 8 -11881103.12846  22474307.321    22474315.1944
  21198946.131     -363272.324 9   -168988.64647  21198945.845    21198951.6754
  21140478.078     1171198.659 9    915547.89547  21140477.442    21140484.9894
  22718292.495   -10743909.582 8  -8349462.36446  22718292.473    22718301.4754
  20858194.435   -17500039.326 9 -13626164.06648  20858194.013    20858201.0484
 01  7 12 19 34  0.0000000  0 10 14 23 09 03 17 31 18 15 29 21
  21900895.758   -14166326.354 8 -11025246.81847  21900895.426    21900902.4994
  22667301.288     9580783.660 8   7465640.10346  22667300.824    22667308.7824
  23875664.329    -3149653.502 8  -2447226.36245  23875664.271    23875673.5544
  21240794.574   -18862897.330 9 -14685441.01147  21240794.334    21240801.5494
  22329882.101     8786468.349 8   6845164.45546  22329881.615    22329890.3394
  22464307.558   -16241457.667 8 -11922052.59846  22464307.024    22464314.8744
  21209715.636     -306678.521 9   -124889.60847  21209715.330    21209721.1444
  21151356.499     1228364.802 9    960092.90547  21151355.831    21151363.3864
  22699400.829   -10843186.203 8  -8426820.61646  22699400.712    22699409.6204
  20855613.293   -17513603.212 9 -13636733.32748  20855612.900    20855619.9424
 01  7 12 19 34 30.0000000  0 10 14 23 09 03 17 31 18 15 29 21
  21883727.636   -14256544.971 8 -11095546.96547  21883727.311    21883734.3984
  22680424.218     9649744.819 8   7519375.99346  22680423.749    22680431.7314
  23868657.827    -3186473.156 8  -2475916.99045  23868657.682    23868666.9844
  21243450.294   -18848941.387 9 -14674566.27347  21243450.066    21243457.2794
  22344397.776     8862749.057 8   6904603.87246  22344397.365    22344406.1634
  22454406.905   -16293485.792 8 -11962593.96246  22454406.358    22454414.1804
  21220528.576     -249856.290 9    -80612.57347  21220528.234    21220534.0574
  21162299.378     1285869.559 9   1004901.77547  21162298.685    21162306.2214
  22680554.372   -10942224.510 8  -8503993.21246  22680554.349    22680563.1044
  20853080.427   -17526913.540 9 -13647105.01048  20853080.023    20853087.0994
 01  7 12 19 35  0.0000000  0 10 14 23 09 03 17 31 18 15 29 21
  21866628.078   -14346403.386 8 -11165566.43447  21866627.759    21866634.8624
  22693563.548     9718792.284 8   7573179.14746  22693563.073    22693571.0484
  23861743.707    -3222807.333 8  -2504229.28645  23861743.459    23861752.8074
  21246216.876   -18834403.345 9 -14663237.95447  21246216.630    21246223.7814
  22358966.392     8939307.495 8   6964259.69546  22358965.990    22358974.8504
  22444606.304   -16344988.171 8 -12002725.65846  22444605.793    22444613.6104
  21231384.655     -192806.796 9    -36158.45547  21231384.388    21231390.2714
  21173306.749     1343713.041 9   1049974.57747  21173306.025    21173313.4924
  22661753.884   -11041021.899 8  -8580978.06546  22661753.764    22661762.4084
  20850595.699   -17539970.753 9 -13657279.46348  20850595.283    20850602.3644
 01  7 12 19 35 30.0000000  0 10 14 23 09 03 17 31 18 15 29 21
  21849597.687   -14435898.553 8 -11235302.86347  21849597.339    21849604.4094
  22706719.216     9787925.757 8   7627049.33046  22706718.795    22706726.7624
  23854922.401    -3258653.312 8  -2532161.19045  23854922.181    23854931.6774
  21249094.181   -18819283.398 9 -14651456.20247  21249093.908    21249101.0594
  22373587.823     9016143.569 8   7024131.86946  22373587.447    22373596.3454
  22434906.057   -16395962.497 8 -12042445.89746  22434905.648    22434913.4684
  21242283.962     -135530.932 9      8472.05947  21242283.673    21242289.5784
  21184378.514     1401895.231 9   1095311.31047  21184377.760    21184385.2304
  22642999.718   -11139575.637 8  -8657773.06446  22642999.538    22643008.1314
  20848159.193   -17552774.835 9 -13667256.66948  20848158.780    20848165.8574
 01  7 12 19 36  0.0000000  0 10 14 23 09 03 17 31 18 15 29 21
  21832636.690   -14525028.863 8 -11304754.98147  21832636.370    21832643.4184
  22719891.032     9857143.520 8   7680985.19646  22719890.567    22719898.5204
  23848194.236    -3294009.597 8  -2559711.49945  23848194.019    23848203.4984
  21252081.918   -18803582.639 9 -14639221.87247  21252081.650    21252088.7814
  22388262.029     9093256.190 8   7084219.51846  22388261.629    22388270.4654
  22425306.655   -16446407.632 8 -12081753.76346  22425306.223    22425314.0374
  21253225.942      -78030.712 9     53277.39547  21253225.618    21253231.5524
  21195514.515     1460415.190 9   1140911.24247  21195513.801    21195521.2564
  22624292.031   -11237884.073 8  -8734376.90946  22624291.939    22624300.4744
  20845770.661   -17565326.597 9 -13677037.26048  20845770.264    20845777.3484
 01  7 12 19 36 30.0000000  0 10 14 23 09 03 17 31 18 15 29 21
  21815745.659   -14613791.637 8 -11373920.70847  21815745.334    21815752.3734
  22733078.823     9926444.834 8   7734986.17646  22733078.267    22733086.1384
  23841559.842    -3328874.019 8  -2586878.54645  23841559.562    23841568.9894
  21255180.132   -18787301.484 9 -14626535.28747  21255179.875    21255187.0094
  22402988.638     9170644.950 8   7144522.35046  22402988.234    22402997.1054
  22415808.439   -16496321.504 8 -12120647.66346  22415807.919    22415815.7414
  21264210.372      -20307.082 9     98256.81947  21264210.084    21264215.9934
  21206714.837     1519273.016 9   1186774.44547  21206714.107    21206721.5354
  22605631.763   -11335944.681 8  -8810787.65746  22605631.627    22605640.0594
  20843430.131   -17577626.499 9 -13686621.59648  20843429.694    20843436.7714
 01  7 12 19 37  0.0000000  0 10 14 23 09 03 17 31 18 15 29 21
  21798924.979   -14702184.637 8 -11442798.30047  21798924.649    21798931.6424
  22746282.273     9995829.114 8   7789051.81246  22746281.727    22746289.5584
  23835019.336    -3363244.124 8  -2613660.44545  23835019.099    23835028.5844
  21258388.706   -18770440.545 9 -14613396.91447  21258388.414    21258395.5544
  22417767.669     9248309.492 8   7205040.07146  22417767.322    22417776.2584
  22406411.467   -16545702.417 8 -12159126.27846  22406411.005    22406418.8244
  21275237.154       37638.677 9    143409.32147  21275236.820    21275242.7294
  21217979.323     1578468.451 9   1232900.71947  21217978.659    21217986.0644
  22587018.908   -11433755.286 8  -8887003.59446  22587018.802    22587027.2684
  20841137.357   -17589675.118 9 -13696010.13048  20841136.911    20841144.0114
 01  7 12 19 37 30.0000000  0 10 14 23 09 03 17 31 18 15 29 21
  21782175.172   -14790205.288 8 -11511385.75847  21782174.814    21782181.8204
  22759501.365    10065295.475 8   7843181.40146  22759500.805    22759508.6004
  23828573.350    -3397117.814 8  -2640055.49945  23828573.153    23828582.6354
  21261707.479   -18753000.510 9 -14599807.30347  21261707.166    21261714.2994
  22432599.335     9326249.315 8   7265772.30146  22432598.895    22432607.8514
  22397116.336   -16594548.647 8 -12197188.26346  22397115.879    22397123.6954
  21286305.903       95805.255 9    188733.89247  21286305.567    21286311.5274
  21229308.010     1638000.918 9   1279289.61447  21229307.326    21229314.7624
  22568454.003   -11531313.756 8  -8963023.06846  22568453.935    22568462.3924
  20838892.365   -17601472.769 9 -13705203.10548  20838891.915    20838898.9794
 01  7 12 19 38  0.0000000  0 10 14 23 09 03 17 31 18 15 29 21
  21765496.582   -14877851.901 8 -11579681.75247  21765496.211    21765503.2624
  22772735.706    10134842.697 8   7897373.99046  22772735.194    22772743.1024
  23822222.249    -3430493.188 8  -2666062.25945  23822222.029    23822231.4694
  21265136.249   -18734982.174 9 -14585767.06747  21265135.963    21265143.1094
  22447483.161     9404463.520 8   7326718.34846  22447482.720    22447491.6014
  22387923.212   -16642858.759 8 -12234832.48846  22387922.793    22387930.5864
  21297416.301      154190.787 9    234229.07947  21297415.976    21297421.9624
  21240700.708     1697870.042 9   1325940.83947  21240700.099    21240707.5084
  22549937.621   -11628617.799 8  -9038844.28446  22549937.493    22549945.9824
  20836694.945   -17613020.163 9 -13714201.07048  20836694.497    20836701.5664
 01  7 12 19 38 30.0000000  0 10 14 23 09 03 17 31 18 15 29 21
  21748889.554   -14965121.896 8 -11647684.27447  21748889.247    21748896.3084
  22785985.169    10204470.089 8   7951629.04846  22785984.821    22785992.8464
  23815966.347    -3463367.919 8  -2691678.90045  23815966.210    23815975.6314
  21268674.971   -18716386.103 9 -14571276.64747  21268674.673    21268681.8674
  22462419.158     9482951.939 8   7387878.05646  22462418.661    22462427.5444
  22378832.487   -16690631.094 8 -12272057.67146  22378832.037    22378839.7844
  21308568.380      212794.475 9    279894.25747  21308567.975    21308573.9224
  21252157.518     1758075.572 9   1372854.19947  21252156.888    21252164.3224
  22531470.021   -11725665.132 8  -9114465.47146  22531469.938    22531478.4124
  20834545.152   -17624317.457 9 -13723004.15648  20834544.715    20834551.8004
 01  7 12 19 39  0.0000000  0 10 14 23 09 03 17 31 18 15 29 21
  21732354.802   -15052012.783 8 -11715391.39847  21732354.424    21732361.4484
  22799249.914    10274176.806 8   8005945.90546  22799249.538    22799257.6664
  23809806.101    -3495739.945 8  -2716903.81245  23809805.905    23809815.3644
  21272323.483   -18697212.915 9 -14556336.53047  21272323.217    21272330.4454
  22477407.199     9561713.944 8   7449250.93746  22477406.745    22477415.5624
  22369844.489   -16737863.723 8 -12308862.29946  22369843.929    22369851.6674
  21319761.546      271615.047 9    325728.44147  21319761.186    21319767.1124
  21263678.270     1818617.206 9   1420029.45947  21263677.622    21263685.0884
  22513051.757   -11822453.362 8  -9189884.75246  22513051.679    22513060.1544
  20832442.857   -17635365.203 9 -13731612.78448  20832442.390    20832449.4804
 01  7 12 19 39 30.0000000  0 10 14 23 09 03 17 31 18 15 29 21
  21715892.407   -15138522.539 9 -11782801.53647  21715892.091    21715899.1714
  22812529.605    10343961.584 8   8060323.57546  22812529.155    22812537.3424
  23803741.774    -3527607.803 8  -2741735.85245  23803741.643    23803751.0894
  21276081.531   -18677464.126 9 -14540947.89247  21276081.275    21276088.5474
  22492447.165     9640748.636 8   7510836.32746  22492446.674    22492455.4974
  22360959.322   -16784555.566 8 -12345245.54546  22360958.780    22360966.4174
  21330995.686      330650.695 9    371730.20947  21330995.309    21331001.2514
  21275262.833     1879494.427 9   1467466.20647  21275262.182    21275269.7014
  22494683.076   -11918980.747 8  -9265100.77646  22494682.995    22494691.5404
  20830387.795   -17646164.582 9 -13740027.88248  20830387.343    20830394.4224
 01  7 12 19 40  0.0000000  0 10 14 23 09 03 17 31 18 15 29 21
  21699503.154   -15224648.887 9 -11849912.91447  21699502.797    21699509.8144
  22825824.045    10413823.776 8   8114761.58646  22825823.541    22825831.7124
  23797773.901    -3558969.118 8  -2766173.18945  23797773.714    23797783.1674
  21279949.003   -18657140.379 9 -14525111.23947  21279948.788    21279956.0464
  22507538.821     9720055.728 8   7572633.93846  22507538.425    22507547.1954
  22352177.435   -16830704.535 8 -12381205.75546  22352176.920    22352184.5794
  21342270.546      389900.220 9    417898.63047  21342270.144    21342276.1274
  21286911.152     1940706.877 9   1515164.17647  21286910.508    21286918.0844
  22476364.556   -12015244.873 8  -9340111.67946  22476364.467    22476372.9584
  20828379.983   -17656715.701 9 -13748249.53148  20828379.533    20828386.6374
 01  7 12 19 40 30.0000000  0 10 14 23 09 03 17 31 18 15 29 21
  21683187.206   -15310389.602 9 -11916723.79847  21683186.822    21683193.8184
  22839132.926    10483762.372 8   8169259.13346  22839132.448    22839140.6144
  23791902.746    -3589822.222 8  -2790214.52245  23791902.609    23791911.9134
  21283925.786   -18636242.348 9 -14508827.08847  21283925.555    21283932.8474
  22522682.272     9799634.382 8   7634643.16646  22522681.821    22522690.6434
  22343499.118   -16876309.190 8 -12416741.83946  22343498.578    22343506.2864
  21353585.768      449362.173 9    464232.58147  21353585.380    21353591.4384
  21298623.163     2002253.930 9   1563122.88347  21298622.550    21298630.0914
  22458096.399   -12111243.743 8  -9414915.88346  22458096.334    22458104.8184
  20826419.361   -17667018.725 9 -13756277.85948  20826418.940    20826426.0114
 01  7 12 19 41  0.0000000  0 10 14 23 09 03 17 31 18 15 29 21
  21666945.161   -15395742.110 9 -11983232.18147  21666944.746    21666951.7394
  22852456.193    10553776.923 8   8223815.87246  22852455.814    22852463.9934
  23786128.762    -3620164.581 8  -2813857.88345  23786128.576    23786137.9254
  21288011.749   -18614770.765 9 -14492096.01247  21288011.506    21288018.7974
  22537877.299     9879484.419 8   7696863.87046  22537876.892    22537885.7084
  22334924.750   -16921367.905 8 -12451852.50246  22334924.204    22334931.9504
  21364941.256      509035.927 9    510731.57447  21364940.899    21364946.9734
  21310398.937     2064135.780 9   1611342.45747  21310398.328    21310405.8894
  22439879.262   -12206974.755 8  -9489511.36346  22439879.216    22439887.7694
  20824505.990   -17677073.739 9 -13764112.92548  20824505.545    20824512.6114
 01  7 12 19 41 30.0000000  0 10 14 23 09 03 17 31 18 15 29 21
  21650777.408   -15480704.198 9 -12049436.34847  21650776.979    21650783.9784
  22865793.960    10623866.607 8   8278431.15446  22865793.500    22865801.6574
  23780452.257    -3649994.373 8  -2837101.86845  23780452.166    23780461.5264
  21292206.640   -18592726.310 9 -14474918.54547  21292206.412    21292213.7204
  22553123.919     9959605.329 8   7759295.63246  22553123.438    22553132.2864
  22326454.478   -16965879.093 8 -12486536.53446  22326453.997    22326461.7814
  21376336.949      568920.156 9    557394.57147  21376336.540    21376342.6154
  21322238.211     2126351.837 9   1659822.46047  21322237.592    21322245.2384
  22421713.659   -12302435.739 8  -9563896.43246  22421713.451    22421722.0134
  20822639.554   -17686881.819 9 -13771755.58248  20822639.107    20822646.2184
 01  7 12 19 42  0.0000000  0 10 14 23 09 03 17 31 18 15 29 21
  21634684.168   -15565274.207 9 -12115334.99047  21634683.750    21634690.7644
  22879145.695    10694029.980 8   8333103.86246  22879145.217    22879153.3584
  23774873.748    -3679309.998 8  -2859945.21745  23774873.607    23774882.8984
  21296510.327   -18570110.460 9 -14457295.84047  21296510.093    21296517.3784
  22568421.605    10039995.876 8   7821937.49346  22568421.217    22568430.2094
  22318088.606   -17009841.854 8 -12520793.19646  22318088.129    22318095.9464
  21387772.148      629012.917 9    604220.06447  21387771.784    21387777.9134
  21334140.972     2188901.374 9   1708562.31747  21334140.372    21334147.9784
  22403599.597   -12397625.056 8  -9638069.81946  22403599.451    22403608.0384
  20820819.979   -17696443.729 9 -13779206.41848  20820819.557    20820826.6274
 01  7 12 19 42 30.0000000  0 10 14 23 09 03 17 31 18 15 29 21
  21618666.082   -15649449.349 9 -12180925.95447  21618665.739    21618672.6294
  22892511.512    10764266.862 8   8387833.86046  22892510.964    22892519.0204
  23769393.388    -3708109.126 8  -2882386.04545  23769393.252    23769402.5184
  21300922.697   -18546923.736 9 -14439228.28847  21300922.408    21300929.6964
  22583770.762    10120655.978 8   7884789.39346  22583770.441    22583779.5034
  22309827.460   -17053253.992 8 -12554620.81546  22309827.038    22309834.8864
  21399246.904      689313.380 9    651207.40947  21399246.570    21399252.7224
  21346107.178     2251784.345 9   1757561.99147  21346106.608    21346114.2724
  22385537.799   -12492539.902 8  -9712029.33646  22385537.605    22385546.3034
  20819047.302   -17705759.284 9 -13786465.28448  20819046.884    20819053.9284
 01  7 12 19 43  0.0000000  0 10 14 23 09 03 17 31 18 15 29 21
  21602723.639   -15733227.583 9 -12246207.63347  21602723.216    21602730.1434
  22905890.915    10834576.424 8   8442620.47546  22905890.442    22905898.5144
  23764011.792    -3736389.731 8  -2904422.88145  23764011.557    23764021.0054
  21305443.389   -18523167.446 9 -14420716.93047  21305443.118    21305450.4204
  22599171.165    10201584.959 8   7947850.81046  22599170.759    22599179.8534
  22301671.483   -17096114.089 8 -12588018.26946  22301671.034    22301678.8734
  21410761.131      749820.162 9    698355.51547  21410760.709    21410766.7914
  21358136.780     2315000.428 9   1806821.22747  21358136.240    21358143.9004
  22367528.583   -12587178.396 8  -9785773.52246  22367528.383    22367537.1124
  20817321.323   -17714829.286 9 -13793532.81448  20817320.889    20817327.9714
 01  7 12 19 43 30.0000000  0 10 14 23 09 03 17 31 18 15 29 21
  21586856.981   -15816606.693 9 -12311178.31547  21586856.610    21586863.5634
  22919284.019    10904957.701 8   8497462.97346  22919283.600    22919291.6514
  23758728.969    -3764150.422 8  -2926054.57345  23758728.774    23758738.2674
  21310072.422   -18498842.110 9 -14401762.15547  21310072.124    21310079.4494
  22614622.558    10282782.116 8   8011121.20446  22614622.193    22614631.2594
  22293620.755   -17138420.862 8 -12620984.55946  22293620.378    22293628.1584
  21422314.230      810531.907 9    745663.33647  21422313.811    21422319.8374
  21370229.780     2378548.925 9   1856339.48647  21370229.148    21370236.8124
  22349572.445   -12681538.180 8  -9859300.52346  22349572.254    22349580.8854
  20815642.056   -17723653.962 9 -13800409.17548  20815641.611    20815648.6754
 01  7 12 19 44  0.0000000  0 10 14 23 09 03 17 31 18 15 29 21
  21571066.743   -15899585.062 9 -12375836.72447  21571066.332    21571073.2624
  22932690.664    10975409.262 8   8552360.22446  22932690.099    22932698.2684
  23753545.574    -3791389.742 8  -2947279.99045  23753545.383    23753554.7654
  21314809.361   -18473949.334 9 -14382365.22347  21314809.075    21314816.4454
  22630124.765    10364246.381 8   8074599.75146  22630124.421    22630133.5174
  22285675.599   -17180173.229 8 -12653518.83946  22285675.148    22285682.9144
  21433905.883      871446.979 9    793129.59847  21433905.576    21433911.6224
  21382385.782     2442429.044 9   1906116.16047  21382385.163    21382392.8254
  22331669.612   -12775617.797 8  -9932609.21746  22331669.337    22331677.9904
  20814009.312   -17732234.027 9 -13807094.93048  20814008.882    20814015.9174
 01  7 12 19 44 30.0000000  0 10 14 23 09 03 17 31 18 15 29 21
  21555353.289   -15982159.703 9 -12440180.54447  21555352.830    21555359.7774
  22946110.567    11045931.054 8   8607312.20446  22946109.909    22946118.1914
  23748461.842    -3818105.093 8  -2968097.14045  23748461.592    23748471.0464
  21319654.194   -18448489.543 9 -14362526.45847  21319653.951    21319661.3134
  22645677.950    10445977.865 8   8138286.50446  22645677.593    22645686.5834
  22277836.195   -17221369.221 8 -12685619.59046  22277835.765    22277843.5134
  21445536.353      932564.819 9    840753.84647  21445535.994    21445542.0644
  21394604.982     2506641.125 9   1956151.49147  21394604.363    21394612.0444
  22313820.594   -12869414.360 8 -10005697.34546  22313820.284    22313828.9744
  20812423.166   -17740569.477 9 -13813590.07748  20812422.700    20812429.7214
 01  7 12 19 45  0.0000000  0 10 14 23 09 03 17 31 18 15 29 21
  21539717.000   -16064328.601 9 -12504208.20247  21539716.574    21539723.4814
  22959543.606    11116522.384 8   8662318.38046  22959542.959    22959551.3244
  23743478.118    -3844294.557 8  -2988504.51245  23743477.902    23743487.3634
  21324606.715   -18422463.905 9 -14342246.77147  21324606.492    21324613.8884
  22661281.693    10527975.850 8   8202180.95146  22661281.371    22661290.3224
  22270103.042   -17262007.284 8 -12717285.59246  22270102.589    22270110.2884
  21457205.067      993884.214 9    888535.15847  21457204.686    21457210.8224
  21406887.233     2571184.769 9   2006445.19747  21406886.631    21406894.3364
  22296025.914   -12962925.636 8 -10078563.17046  22296025.633    22296034.2864
  20810883.407   -17748660.837 9 -13819895.02148  20810882.946    20810889.9684
 01  7 12 19 45 30.0000000  0 10 14 23 09 03 17 31 18 15 29 21
  21524158.317   -16146089.918 9 -12567918.26247  21524157.866    21524164.7514
  22972989.594    11187182.050 8   8717377.80046  22972989.091    22972997.5754
  23738594.732    -3869956.797 8  -3008501.07845  23738594.524    23738603.8554
  21329666.660   -18395873.582 9 -14321527.06747  21329666.449    21329673.8554
  22676936.020    10610239.275 8   8266282.22046  22676935.694    22676944.6344
  22262476.276   -17302086.416 8 -12748516.05746  22262475.759    22262483.4754
  21468911.686     1055403.475 9    936472.21547  21468911.402    21468917.5934
  21419232.454     2636059.039 9   2056996.51947  21419231.874    21419239.5704
  22278285.853   -13056149.828 8 -10151205.31646  22278285.634    22278294.2314
  20809389.815   -17756509.567 9 -13826010.90348  20809389.360    20809396.4084
 01  7 12 19 46  0.0000000  0 10 14 23 09 03 17 31 18 15 29 21
  21508677.514   -16227441.502 9 -12631309.06147  21508677.123    21508683.9734
  22986448.450    11257909.183 8   8772489.79346  22986448.073    22986456.5804
  23733812.066    -3895090.358 8  -3028085.69045  23733811.874    23733821.0734
  21334833.764   -18368720.032 9 -14300368.48847  21334833.602    21334841.0444
  22692640.664    10692767.587 8   8330589.87346  22692640.372    22692649.2804
  22254956.149   -17341605.351 8 -12779310.01146  22254955.565    22254963.2574
  21480656.314     1117121.330 9    984564.00747  21480655.971    21480662.1664
  21431640.468     2701263.281 9   2107804.98047  21431639.894    21431647.5774
  22260600.862   -13149085.053 8 -10223622.27646  22260600.557    22260609.1424
  20807942.386   -17764115.702 9 -13831937.76148  20807941.942    20807948.9844
 01  7 12 19 46 30.0000000  0 10 14 23 09 03 17 31 18 15 29 21
  21493275.201   -16308381.226 9 -12694378.93147  21493274.766    21493281.5724
  22999920.168    11328703.108 8   8827653.82446  22999919.807    22999928.2394
  23729130.122    -3919693.340 8  -3047256.84545  23729129.956    23729139.2754
  21340107.909   -18341004.104 9 -14278771.68647  21340107.741    21340115.2024
  22708395.692    10775560.075 8   8395103.40246  22708395.285    22708404.2134
  22247542.710   -17380562.957 8 -12809666.56147  22247542.147    22247549.8664
  21492438.438     1179036.346 9   1032809.43947  21492438.045    21492444.2664
  21444111.259     2766797.302 9   2158870.39947  21444110.651    21444118.3434
  22242971.263   -13241729.059 8 -10295812.32646  22242970.942    22242979.4734
  20806541.149   -17771479.341 9 -13837675.64948  20806540.692    20806547.7174
 01  7 12 19 47  0.0000000  0 10 14 23 09 03 17 31 18 15 29 21
  21477951.644   -16388906.726 9 -12757126.02547  21477951.234    21477958.0144
  23013404.591    11399563.441 8   8882869.59646  23013404.181    23013412.5894
  23724549.581    -3943763.466 8  -3066012.76945  23724549.546    23724558.8744
  21345488.920   -18312726.436 9 -14256737.17647  21345488.806    21345496.2834
  22724200.815    10858616.494 8   8459822.57746  22724200.384    22724209.4804
  22240236.525   -17418957.133 8 -12839584.09647  22240235.975    22240243.6444
  21504257.774     1241147.886 9   1081208.01347  21504257.442    21504263.7064
  21456644.737     2832660.966 9   2210192.68147  21456644.134    21456651.8254
  22225397.478   -13334079.307 8 -10367773.46646  22225397.238    22225405.7324
  20805186.073   -17778600.225 9 -13843224.38348  20805185.620    20805192.6454
 01  7 12 19 47 30.0000000  0 10 14 23 09 03 17 31 18 15 29 21
  21462707.349   -16469016.008 9 -12819548.79647  21462706.917    21462713.6414
  23026901.547    11470489.058 8   8938136.25746  23026900.948    23026909.3344
  23720070.970    -3967299.246 8  -3084352.38645  23720070.856    23720080.1144
  21350976.666   -18283888.604 9 -14234266.17347  21350976.487    21350983.9614
  22740056.009    10941935.827 8   8524746.61446  22740055.527    22740064.7054
  22233037.752   -17456787.118 8 -12869061.99147  22233037.139    22233044.7874
  21516114.414     1303454.540 9   1129758.61847  21516114.034    21516120.2524
  21469240.756     2898853.465 9   2261771.20047  21469240.184    21469247.8674
  22207879.970   -13426134.044 8 -10439504.34446  22207879.815    22207888.2264
  20803877.020   -17785479.577 9 -13848584.91248  20803876.546    20803883.5664
 01  7 12 19 48  0.0000000  0 10 14 23 09 03 17 31 18 15 29 21
  21447542.617   -16548706.997 9 -12881645.63347  21447542.195    21447548.8684
  23040410.558    11541479.579 8   8993453.48646  23040409.996    23040418.3854
  23715694.312    -3990299.098 8  -3102274.37645  23715694.167    23715703.4134
  21356570.793   -18254491.507 9 -14211359.37647  21356570.564    21356578.0064
  22755961.081    11025517.556 8   8589875.11546  22755960.696    22755969.9204
  22225946.536   -17494051.370 8 -12898099.05747  22225946.028    22225953.6324
  21528007.917     1365955.275 9   1178460.46047  21528007.561    21528013.7324
  21481899.400     2965374.510 9   2313605.72647  21481898.821    21481906.4904
  22190419.148   -13517890.978 8 -10511003.17146  22190419.042    22190427.4204
  20802613.771   -17792117.743 9 -13853757.51148  20802613.320    20802620.3434
 01  7 12 19 48 30.0000000  0 10 14 23 09 03 17 31 18 15 29 21
  21432457.807   -16627977.585 9 -12943414.87747  21432457.439    21432464.1124
  23053931.720    11612533.989 8   9048820.49546  23053931.225    23053939.6924
  23711419.773    -4012761.514 8  -3119777.57845  23711419.686    23711428.9374
  21362271.015   -18224536.783 9 -14188018.06647  21362270.798    21362278.2374
  22771916.151    11109360.986 8   8655207.52246  22771915.631    22771924.9794
  22218963.194   -17530748.773 8 -12926694.42847  22218962.712    22218970.3094
  21539938.117     1428648.691 9   1227312.44047  21539937.771    21539943.9454
  21494620.318     3032223.371 9   2365695.69847  21494619.764    21494627.4924
  22173015.359   -13609348.261 8 -10582268.50046  22173015.261    22173023.5924
  20801396.356   -17798515.273 9 -13858742.58948  20801395.903    20801402.9054
 01  7 12 19 49  0.0000000  0 10 14 23 09 03 17 31 18 15 29 21
  21417453.584   -16706825.302 9 -13004854.61647  21417453.196    21417459.8494
  23067465.047    11683651.921 8   9104237.01146  23067464.477    23067472.9664
  23707248.052    -4034684.364 7  -3136860.30645  23707247.914    23707257.1484
  21368077.204   -18194025.332 9 -14164242.94147  21368076.988    21368084.3874
  22787920.697    11193465.513 8   8720743.39746  22787920.241    22787929.6644
  22212088.091   -17566877.766 8 -12954846.86847  22212087.592    22212095.2084
  21551904.855     1491533.796 9   1276313.78247  21551904.467    21551910.6124
  21507403.760     3099400.035 9   2418041.10347  21507403.135    21507410.8684
  22155669.075   -13700503.279 8 -10653298.29647  22155669.039    22155677.3104
  20800224.752   -17804672.267 9 -13863540.24348  20800224.284    20800231.2604
 01  7 12 19 49 30.0000000  0 10 14 23 09 03 17 31 18 15 29 21
  21402530.027   -16785248.683 9 -13065963.70747  21402529.657    21402536.3144
  23081010.219    11754832.273 8   9159702.15746  23081009.700    23081018.1764
  23703179.092    -4056066.331 8  -3153521.58145  23703179.000    23703188.2844
  21373989.068   -18162958.514 9 -14140035.06447  21373988.855    21373996.2304
  22803974.865    11277830.331 8   8786482.06646  22803974.486    22803983.9264
  22205321.207   -17602437.509 8 -12982555.74947  22205320.727    22205328.3124
  21563907.704     1554609.055 9   1325463.30247  21563907.347    21563913.4374
  21520249.224     3166903.262 9   2470640.96947  21520248.582    21520256.3964
  22138380.696   -13791354.555 8 -10724091.41247  22138380.588    22138388.8114
  20799098.626   -17810589.914 9 -13868151.39848  20799098.154    20799105.1604
 01  7 12 19 50  0.0000000  0 10 14 23 09 03 17 31 18 15 29 21
  21387687.533   -16863246.068 9 -13126740.85247  21387687.202    21387693.8344
  23094567.128    11826074.035 8   9215215.15846  23094566.584    23094575.1184
  23699213.389    -4076906.308 8  -3169760.51845  23699213.316    23699222.6784
  21380006.299   -18131338.051 9 -14115395.77647  21380006.080    21380013.4424
  22820078.517    11362454.149 8   8852422.58046  22820078.078    22820087.4684
  22198662.875   -17637427.103 8 -13009820.35647  22198662.416    22198670.0164
  21575946.482     1617872.884 9   1374759.75847  21575946.123    21575952.1694
  21533156.605     3234732.212 9   2523494.64647  21533155.986    21533163.8344
  22121150.296   -13881900.280 8 -10794646.43947  22121150.217    22121158.4484
  20798017.991   -17816268.746 9 -13872576.45648  20798017.512    20798024.5084
 01  7 12 19 50 30.0000000  0 10 14 23 09 03 17 31 18 15 29 21
  21372926.547   -16940815.359 9 -13187184.41447  21372926.241    21372932.8514
  23108135.533    11897376.705 8   9270775.62346  23108135.081    23108143.6044
  23695351.200    -4097202.688 8  -3185575.87145  23695350.980    23695360.4344
  21386128.651   -18099165.131 9 -14090326.00447  21386128.441    21386135.7594
  22836231.137    11447336.424 8   8918564.47346  22836230.736    22836240.1644
  22192113.347   -17671845.218 8 -13036639.64547  22192112.850    22192120.4464
  21588021.029     1681324.461 9   1424202.50547  21588020.594    21588026.6694
  21546125.978     3302886.635 9   2576601.93047  21546125.348    21546133.2444
  22103978.463   -13972138.087 8 -10864961.52747  22103978.494    22103986.6964
  20796982.778   -17821708.812 9 -13876815.46748  20796982.319    20796989.2784
 01  7 12 19 51  0.0000000  0 10 14 23 09 03 17 31 18 15 29 21
  21358247.519   -17017954.120 9 -13247292.49847  21358247.193    21358253.7974
  23121715.630    11968739.480 8   9326382.92546  23121715.080    23121723.5394
  23691592.703    -4116953.709 8  -3200966.28345  23691592.472    23691602.0434
  21392355.949   -18066441.006 9 -14064826.72747  21392355.710    21392363.0214
  22852432.859    11532476.612 8   8984907.36346  22852432.480    22852441.8924
  22185672.774   -17705690.455 8 -13063012.54347  22185672.289    22185679.9084
  21600131.055     1744962.711 9   1473790.71847  21600130.591    21600136.7204
  21559157.186     3371366.155 9   2629962.53047  21559156.566    21559164.4804
  22086865.675   -14062065.960 8 -10935035.10747  22086865.701    22086873.8954
  20795993.000   -17826910.242 9 -13880868.52448  20795992.534    20795999.4724
 01  7 12 19 51 30.0000000  0 10 14 23 09 03 17 31 18 15 29 21
  21343650.770   -17094660.479 9 -13307063.64647  21343650.438    21343657.0184
  23135306.790    12040161.558 8   9382036.43546  23135306.241    23135314.8294
  23687938.255    -4136158.129 8  -3215930.73245  23687938.041    23687947.6084
  21398687.789   -18033167.218 9 -14038899.13947  21398687.527    21398694.8324
  22868683.573    11617873.945 8   9051450.61446  22868683.140    22868692.6294
  22179341.473   -17738961.990 8 -13088938.40047  22179340.932    22179348.5484
  21612276.235     1808786.066 9   1523523.15747  21612275.763    21612281.9594
  21572250.218     3440170.189 8   2683576.00547  21572249.582    21572257.4644
  22069812.278   -14151682.023 8 -11004865.72647  22069812.227    22069820.4254
  20795048.403   -17831874.020 9 -13884736.40148  20795047.938    20795054.8894
 01  7 12 19 52  0.0000000  0 10 14 23 09 03 17 31 18 15 29 21
  21329136.697   -17170932.701 9 -13366496.50447  21329136.316    21329142.8974
  23148909.097    12111642.630 8   9437735.92446  23148908.634    23148917.3864
  23684388.206    -4154814.085 8  -3230467.80945  23684387.929    23684397.5394
  21405123.995   -17999344.606 9 -14012543.89547  21405123.761    21405131.1084
  22884983.033    11703527.731 8   9118193.70746  22884982.626    22884992.1684
  22173119.492   -17771658.394 8 -13114416.11547  22173118.989    22173126.6024
  21624456.465     1872793.608 9   1573399.12347  21624456.001    21624462.2274
  21585404.848     3509298.240 9   2737441.96347  21585404.216    21585412.1164
  22052818.646   -14240983.854 8 -11074451.48547  22052818.561    22052826.7664
  20794149.099   -17836600.032 9 -13888419.00748  20794148.650    20794155.5724
 01  7 12 19 52 30.0000000  0 10 14 23 09 03 17 31 18 15 29 21
  21314705.703   -17246768.070 9 -13425588.94747  21314705.297    21314711.8544
  23162522.775    12183182.312 8   9493481.08046  23162522.309    23162530.9424
  23680942.825    -4172919.942 8  -3244576.22146  23680942.554    23680952.1634
  21411664.514   -17964974.058 9 -13985761.68447  21411664.263    21411671.6624
  22901331.221    11789437.764 8   9185136.46346  22901330.888    22901340.3784
  22167007.196   -17803778.425 8 -13139444.69447  22167006.731    22167014.3564
  21636671.559     1936984.661 9   1623418.08147  21636671.154    21636677.4174
  21598621.183     3578750.214 9   2791560.32247  21598620.575    21598628.4334
  22035885.107   -14329969.305 8 -11143790.71647  22035885.054    22035893.2844
  20793294.908   -17841088.896 9 -13891916.82448  20793294.422    20793301.3564
 01  7 12 19 53  0.0000000  0 10 14 23 09 03 17 31 18 15 29 21
  21300358.053   -17322165.328 9 -13484340.00847  21300357.689    21300364.2064
  23176147.322    12254779.227 8   9549270.83346  23176146.877    23176155.4324
  23677602.335    -4190474.889 8  -3258255.35746  23677602.048    23677611.5784
  21418308.785   -17930058.095 9 -13958554.47547  21418308.554    21418315.9954
  22917727.913    11875602.370 8   9252277.60946  22917727.607    22917737.0384
  22161004.786   -17835321.522 8 -13164023.71847  22161004.266    22161011.9314
  21648921.292     2001357.242 9   1673578.48747  21648920.854    21648927.1764
  21611898.921     3648524.745 9   2845930.02947  21611898.294    21611906.1094
  22019012.089   -14418637.027 8 -11212882.37847  22019012.025    22019020.2304
  20792485.629   -17845341.446 9 -13895230.49948  20792485.172    20792492.1194
 01  7 12 19 53 30.0000000  0 10 14 23 09 03 17 31 18 15 29 21
  21286094.292   -17397122.321 9 -13542748.01147  21286093.864    21286100.3844
  23189782.723    12326433.243 8   9605105.07546  23189782.257    23189790.8054
  23674366.805    -4207477.019 8  -3271503.75145  23674366.657    23674376.1124
  21425056.655   -17894597.892 9 -13930923.18547  21425056.432    21425063.9364
  22934172.968    11962021.349 8   9319616.95246  22934172.683    22934182.0704
  22155112.315   -17866286.470 8 -13188152.23747  22155111.815    22155119.4894
  21661205.386     2065910.649 9   1723879.80347  21661205.010    21661211.2964
  21625237.959     3718621.766 8   2900551.02947  21625237.370    21625245.1754
  22002199.940   -14506984.364 8 -11281724.38147  22002199.964    22002208.2294
  20791721.312   -17849358.014 9 -13898360.29348  20791720.851    20791727.8034
 01  7 12 19 54  0.0000000  0 10 14 23 09 03 17 31 18 15 29 21
  21271914.456   -17471637.668 9 -13600811.86547  21271913.991    21271920.5094
  23203428.712    12398143.035 8   9660982.76446  23203428.201    23203436.7864
  23671236.816    -4223925.457 8  -3284320.65145  23671236.654    23671245.9454
  21431907.738   -17858595.115 9 -13902869.10947  21431907.519    21431915.0934
  22950666.143    12048693.306 8   9387153.42445  22950665.904    22950675.3214
  22149330.019   -17896672.672 8 -13211829.77447  22149329.548    22149337.2354
  21673523.669     2130643.222 9   1774320.72747  21673523.282    21673529.5104
  21638638.202     3789040.320 8   2955422.57047  21638637.593    21638645.3734
  21985449.223   -14595010.051 8 -11350315.76047  21985449.140    21985457.4004
  20791001.833   -17853138.944 9 -13901306.47048  20791001.369    20791008.2974
 01  7 12 19 54 30.0000000  0 10 14 23 09 03 17 31 18 15 29 21
  21257819.208   -17545708.337 9 -13658529.22447  21257818.768    21257825.2574
  23217085.254    12469908.640 8   9716903.95546  23217084.757    23217093.3734
  23668212.508    -4239817.954 8  -3296704.39445  23668212.377    23668221.6584
  21438862.077   -17822050.209 9 -13874392.58647  21438861.785    21438869.4194
  22967207.490    12135618.440 8   9454887.18745  22967207.303    22967216.6204
  22143658.175   -17926478.177 8 -13235054.82647  22143657.725    22143665.3994
  21685875.972     2195554.654 9   1824901.02647  21685875.551    21685881.8034
  21652099.590     3859780.497 8   3010544.73247  21652099.004    21652106.8034
  21968760.077   -14682711.397 8 -11418654.41147  21968760.014    21968768.2624
  20790327.249   -17856684.062 9 -13904068.89648  20790326.766    20790333.6794
 01  7 12 19 55  0.0000000  0 10 14 23 09 03 17 31 18 15 29 21
  21243808.825   -17619333.256 9 -13715899.25147  21243808.398    21243814.8494
  23230752.168    12541728.870 8   9772867.71246  23230751.685    23230760.3474
  23665294.224    -4255153.860 8  -3308654.39145  23665293.998    23665303.3764
  21445919.067   -17784965.493 9 -13845495.44347  21445918.809    21445926.4714
  22983796.752    12222795.250 8   9522817.02645  22983796.608    22983805.8414
  22138096.982   -17955702.771 8 -13257827.21947  22138096.485    22138104.1644
  21698261.893     2260643.080 9   1875619.24147  21698261.476    21698267.7544
  21665622.005     3930840.863 8   3065916.38347  21665621.402    21665629.2104
  21952133.033   -14770086.810 8 -11486739.08247  21952132.905    21952141.2104
  20789697.281   -17859994.419 9 -13906648.39848  20789696.812    20789703.7644
 01  7 12 19 55 30.0000000  0 10 14 23 09 03 17 31 18 15 29 21
  21229883.567   -17692510.312 9 -13772920.28547  21229883.168    21229889.7154
  23244429.511    12613603.582 8   9828873.92546  23244429.076    23244437.7144
  23662481.896    -4269931.523 8  -3320169.41445  23662481.725    23662491.1524
  21453078.594   -17747342.444 9 -13816178.81247  21453078.273    21453085.9624
  23000433.978    12310223.170 8   9590942.57045  23000433.691    23000442.9094
  22132646.472   -17984345.299 8 -13280146.05347  22132645.998    22132653.6314
  21710681.371     2325907.653 9   1926474.71447  21710680.968    21710687.2164
  21679205.255     4002221.171 8   3121537.34147  21679204.659    21679212.5224
  21935568.419   -14857134.291 8 -11554568.22947  21935568.292    21935576.5404
  20789112.051   -17863069.844 9 -13909044.83548  20789111.598    20789118.5214
 01  7 12 19 56  0.0000000  0 10 14 23 09 03 17 31 18 15 29 21
  21216043.867   -17765238.049 9 -13829591.21347  21216043.459    21216050.0284
  23258117.252    12685531.626 8   9884921.68246  23258116.561    23258125.2904
  23659776.213    -4284150.112 8  -3331248.79746  23659775.958    23659785.4654
  21460340.087   -17709182.856 9 -13786444.10947  21460339.816    21460347.5104
  23017118.747    12397901.053 8   9659262.89545  23017118.350    23017127.5704
  22127306.962   -18012404.973 8 -13302010.71947  22127306.455    22127314.0834
  21723134.066     2391347.035 9   1977466.39647  21723133.677    21723139.8814
  21692849.188     4073920.607 8   3177406.98147  21692848.653    21692856.5024
  21919066.494   -14943852.059 8 -11622140.45047  21919066.366    21919074.5944
  20788571.219   -17865911.792 9 -13911259.34148  20788570.762    20788577.6804
 01  7 12 19 56 30.0000000  0 10 14 23 09 03 17 31 18 15 29 21
  21202290.007   -17837514.514 9 -13885910.49947  21202289.650    21202296.2364
  23271814.707    12757512.398 8   9941010.53246  23271814.078    23271822.8034
  23657177.045    -4297808.429 8  -3341891.59746  23657176.787    23657186.3384
  21467703.515   -17670488.052 9 -13756292.35247  21467703.228    21467710.9034
  23033850.939    12485828.134 8   9727777.37945  23033850.437    23033859.7694
  22122078.428   -18039881.056 8 -13323420.63647  22122077.894    22122085.5114
  21735619.810     2456960.042 9   2028593.37947  21735619.483    21735625.6784
  21706553.860     4145938.617 8   3233524.85547  21706553.256    21706561.1584
  21902627.688   -15030238.183 8 -11689454.25647  21902627.627    21902635.7934
  20788074.772   -17868520.799 9 -13913292.33248  20788074.296    20788081.2194
 01  7 12 19 57  0.0000000  0 10 14 23 09 03 17 31 18 15 29 21
  21188622.514   -17909337.631 9 -13941876.51647  21188622.102    21188628.7584
  23285522.293    12829545.538 8   9997140.20446  23285521.689    23285530.2524
  23654684.843    -4310904.770 8  -3352096.47946  23654684.633    23654694.2184
  21475168.571   -17631259.288 9 -13725724.52047  21475168.270    21475175.9264
  23050630.153    12574003.837 8   9796485.60545  23050629.681    23050639.0874
  22116961.186   -18066772.392 8 -13344374.90847  22116960.617    22116968.2054
  21748138.466     2522745.613 9   2079854.82347  21748138.107    21748144.3074
  21720319.061     4218274.792 8   3289890.64347  21720318.466    21720326.3754
  21886252.467   -15116290.485 8 -11756507.93447  21886252.383    21886260.5174
  20787622.641   -17870896.771 9 -13915143.74848  20787622.169    20787629.0994
 01  7 12 19 57 30.0000000  0 10 14 23 09 03 17 31 18 15 29 21
  21175041.611   -17980705.547 9 -13997487.84047  21175041.234    21175047.8654
  23299239.780    12901630.587 8  10053310.31946  23299239.122    23299247.6094
  23652299.815    -4323437.860 8  -3361862.48946  23652299.663    23652309.1974
  21482734.781   -17591498.459 9 -13694742.10047  21482734.522    21482742.1894
  23067456.707    12662427.417 8   9865386.97345  23067456.192    23067465.7094
  22111955.309   -18093078.111 8 -13364872.85347  22111954.782    22111962.3634
  21760689.759     2588702.908 9   2131250.07047  21760689.368    21760695.6084
  21734144.709     4290928.554 8   3346503.90247  21734144.055    21734152.0404
  21869941.068   -15202006.940 8 -11823299.91247  21869941.035    21869949.1464
  20787214.848   -17873039.709 9 -13916813.57348  20787214.381    20787221.3194
 01  7 12 19 58  0.0000000  0 10 14 23 09 03 17 31 18 15 29 21
  21161547.712   -18051616.484 9 -14052743.07647  21161547.306    21161553.9104
  23312966.916    12973766.781 8  10109520.28546  23312966.239    23312974.7014
  23650022.275    -4335406.759 8  -3371188.82646  23650022.100    23650031.5524
  21490402.019   -17551207.065 9 -13663346.24747  21490401.774    21490409.4014
  23084330.122    12751097.948 8   9934480.77946  23084329.680    23084339.2674
  22107060.953   -18118797.623 8 -13384914.02047  22107060.451    22107068.0684
  21773273.489     2654830.962 9   2182778.37147  21773273.126    21773279.4224
  21748030.599     4363898.895 8   3403363.84547  21748029.942    21748037.9724
  21853694.119   -15287385.748 8 -11889828.79247  21853694.012    21853702.0364
  20786851.323   -17874950.074 9 -13918302.18548  20786850.863    20786857.7834
 01  7 12 19 58 30.0000000  0 10 14 23 09 03 17 31 18 15 29 21
  21148141.109   -18122068.589 9 -14107640.77147  21148140.697    21148147.2964
  23326703.542    13045953.709 8  10165769.80146  23326702.950    23326711.3724
  23647852.272    -4346810.105 8  -3380074.51546  23647852.052    23647861.5134
  21498169.918   -17510386.666 9 -13631538.18547  21498169.687    21498177.2854
  23101250.561    12840014.814 8  10003766.52046  23101250.008    23101259.7504
  22102278.434   -18143929.796 8 -13404497.51647  22102277.921    22102285.5734
  21785889.617     2721128.461 9   2234438.71447  21785889.153    21785895.5024
  21761976.627     4437185.463 8   3460470.20447  21761975.957    21761984.0674
  21837511.758   -15372424.922 8 -11956093.00847  21837511.615    21837519.5734
  20786531.931   -17876628.411 9 -13919609.98748  20786531.464    20786538.3714
 01  7 12 19 59  0.0000000  0 10 14 23 09 03 17 31 18 15 29 21
  21134822.149   -18192060.282 9 -14162179.71147  21134821.767    21134828.3054
  23340449.771    13118190.521 8  10222058.15346  23340449.233    23340457.6884
  23645790.127    -4357646.910 8  -3388518.71445  23645789.840    23645799.3434
  21506038.125   -17469039.063 9 -13599319.31647  21506037.890    21506045.4744
  23118217.627    12929176.829 8  10073243.29746  23118216.992    23118226.8644
  22097607.908   -18168473.881 8 -13423622.77747  22097607.355    22097614.9674
  21798537.637     2787594.260 9   2286230.19447  21798537.227    21798543.5924
  21775982.559     4510787.336 8   3517822.24847  21775981.921    21775990.1414
  21821394.265   -15457122.633 8 -12022091.15547  21821394.183    21821402.0114
  20786256.604   -17878075.240 9 -13920737.39448  20786256.144    20786263.0664
 01  7 12 19 59 30.0000000  0 10 14 23 09 03 17 31 18 15 29 21
  21121591.137   -18261589.711 9 -14216358.44047  21121590.717    21121597.2374
  23354205.482    13190476.520 8  10278384.85146  23354204.900    23354213.3614
  23643835.810    -4367916.065 8  -3396520.58345  23643835.713    23643845.0964
  21514006.357   -17427166.230 9 -13566691.17947  21514006.093    21514013.6304
  23135230.847    13018583.093 8  10142910.38046  23135230.423    23135240.3704
  22093049.296   -18192429.492 8 -13442289.47147  22093048.741    22093056.3694
  21811217.459     2854227.158 9   2338151.89147  21811217.049    21811223.4324
  21790048.466     4584703.768 8   3575419.40447  21790047.804    21790056.0914
  21805342.170   -15541477.090 8 -12087821.82947  21805342.056    21805349.8274
  20786025.267   -17879291.006 9 -13921684.75348  20786024.834    20786031.7694
 01  7 12 20  0  0.0000000  0 10 14 23 09 03 17 31 18 15 29 21
  21108448.441   -18330654.853 9 -14270175.39347  21108448.036    21108454.5214
  23367970.514    13262811.558 8  10334749.77146  23367969.841    23367978.3774
  23641989.921    -4377616.270 8  -3404079.12645  23641989.832    23641999.1644
  21522074.297   -17384769.155 9 -13533654.53647  21522074.018    21522081.5484
  23152290.797    13108233.110 8  10212767.40746  23152290.283    23152300.3964
  22088602.902   -18215795.429 8 -13460496.69347  22088602.369    22088609.9594
  21823928.920     2921026.204 9   2390203.04447  21823928.529    21823934.9074
  21804174.060     4658934.487 8   3633261.45647  21804173.435    21804181.7604
  21789355.736   -15625486.293 8 -12153283.48247  21789355.643    21789363.3644
  20785837.943   -17880275.536 9 -13922451.93248  20785837.474    20785844.4354
 01  7 12 20  0 30.0000000  0 10 14 23 09 03 17 31 18 15 29 21
  21095394.420   -18399254.349 9 -14323629.50147  21095394.013    21095400.4274
  23381744.514    13335194.820 8  10391152.23346  23381743.955    23381752.4934
  23640252.419    -4386746.553 8  -3411193.59045  23640252.304    23640261.6344
  21530241.525   -17341849.966 9 -13500211.05247  21530241.294    21530248.8324
  23169396.975    13198125.853 8  10282813.52945  23169396.420    23169406.5284
  22084268.791   -18238571.146 8 -13478243.98947  22084268.289    22084275.9084
  21836671.825     2987990.315 9   2442382.82247  21836671.417    21836677.8034
  21818359.319     4733478.261 8   3691347.45447  21818358.704    21818367.0854
  21773435.398   -15709148.322 8 -12218474.60647  21773435.274    21773442.9134
  20785694.360   -17881029.855 9 -13923039.72448  20785693.914    20785700.8624
 01  7 12 20  1  0.0000000  0 10 14 23 09 03 17 31 18 15 29 21
  21082429.161   -18467387.052 9 -14376719.86647  21082428.719    21082435.1374
  23395527.639    13407625.113 8  10447591.34446  23395526.993    23395535.6004
  23638623.579    -4395306.668 8  -3417863.76645  23638623.291    23638632.6114
  21538507.689   -17298411.095 9 -13466362.62647  21538507.432    21538514.9934
  23186548.901    13288259.700 8  10353047.56945  23186548.446    23186558.5664
  22080047.085   -18260756.475 8 -13495531.24747  22080046.572    22080054.1834
  21849445.777     3055117.753 9   2494689.88647  21849445.374    21849451.7704
  21832603.976     4808334.151 8   3749676.66147  21832603.363    21832611.6804
  21757581.327   -15792461.923 8 -12283394.22347  21757581.180    21757588.7634
  20785594.437   -17881554.885 9 -13923448.84648  20785594.023    20785600.9414
 01  7 12 20  1 30.0000000  0 10 14 23 09 03 17 31 18 15 29 21
  21069553.216   -18535050.370 9 -14429444.47747  21069552.802    21069559.1574
  23409319.598    13480102.701 8  10504067.29446  23409318.985    23409327.6464
  23637103.377    -4403294.677 8  -3424088.13345  23637103.164    23637112.4604
  21546872.580   -17254453.374 9 -13432109.89347  21546872.321    21546879.9654
  23203746.840    13378634.806 8  10423469.59445  23203746.401    23203756.5744
  22075937.917   -18282349.920 8 -13512357.31047  22075937.466    22075945.0124
  21862250.824     3122408.428 9   2547124.13247  21862250.399    21862256.7804
  21846908.061     4883502.432 8   3808249.28347  21846907.451    21846915.7524
  21741794.045   -15875424.503 8 -12348040.31047  21741793.899    21741801.4944
  20785538.320   -17881850.069 9 -13923678.87248  20785537.862    20785544.7624
 01  7 12 20  2  0.0000000  0 10 14 23 09 03 17 31 18 15 29 21
  21056766.895   -18602242.755 9 -14481802.12947  21056766.494    21056772.8044
  23423120.493    13552626.764 8  10560579.48846  23423119.882    23423128.5844
  23635692.436    -4410709.696 8  -3429866.04945  23635692.131    23635701.2924
  21555335.798   -17209978.846 9 -13397454.46347  21555335.532    21555343.2414
  23220990.232    13469249.945 7  10494078.63145  23220989.873    23221000.2964
  22071941.520   -18303351.077 8 -13528721.84447  22071941.083    22071948.6504
  21875086.589     3189860.718 9   2599684.32047  21875086.153    21875092.5544
  21861271.381     4958982.004 8   3867064.47247  21861270.777    21861279.1024
  21726073.948   -15958034.382 8 -12412411.58347  21726073.802    21726081.3054
  20785525.746   -17881916.150 9 -13923730.37548  20785525.280    20785532.2444
 01  7 12 20  2 30.0000000  0 10 14 23 09 03 17 31 18 15 29 21
  21044070.460   -18668962.693 9 -14533791.63547  21044070.064    21044076.3824
  23436929.984    13625196.881 8  10617127.54446  23436929.512    23436938.3174
  23634390.551    -4417550.797 8  -3435196.76145  23634390.232    23634399.4364
  21563897.115   -17164989.166 9 -13362397.61847  21563896.835    21563904.5684
  23238279.371    13560104.343 7  10564874.10545  23238278.994    23238289.4184
  22068057.977   -18323759.395 8 -13544624.42747  22068057.521    22068065.0594
  21887952.942     3257473.996 9   2652369.94947  21887952.566    21887958.9704
  21875693.777     5034772.281 8   3926121.76247  21875693.203    21875701.5524
  21710421.142   -16040289.906 8 -12476506.72447  21710421.038    21710428.4944
  20785556.671   -17881753.549 9 -13923603.68648  20785556.229    20785563.1984
 01  7 12 20  3  0.0000000  0 10 14 23 09 03 17 31 18 15 29 21
  21031464.154   -18735208.910 9 -14585412.00947  21031463.801    21031470.0554
  23450748.288    13697811.874 8  10673710.61546  23450747.785    23450756.5474
  23633197.966    -4423817.543 8  -3440079.90945  23633197.667    23633206.8854
  21572556.023   -17119486.473 9 -13326941.02247  21572555.750    21572563.5064
  23255613.797    13651196.479 7  10635854.84645  23255613.314    23255623.7314
  22064287.273   -18343574.932 8 -13560065.10147  22064286.752    22064294.2894
  21900849.825     3325247.011 9   2705180.03847  21900849.378    21900855.8114
  21890175.149     5110871.968 8   3985420.15747  21890174.547    21890182.8774
  21694836.171   -16122189.579 9 -12540324.57547  21694836.067    21694843.4634
  20785631.020   -17881362.924 9 -13923299.31348  20785630.577    20785637.5394
 01  7 12 20  3 30.0000000  0 10 14 23 09 03 17 31 18 15 29 21
  21018948.465   -18800979.392 9 -14636661.68847  21018948.095    21018954.3154
  23464575.218    13770471.885 8  10730328.71846  23464574.643    23464583.3904
  23632115.025    -4429508.544 8  -3444514.44945  23632114.677    23632123.8494
  21581312.260   -17073472.427 9 -13291085.96647  21581311.998    21581319.7284
  23272993.276    13742525.964 7  10707020.50945  23272992.732    23273003.3104
  22060629.484   -18362796.644 8 -13575043.05747  22060628.964    22060636.5074
  21913776.816     3393178.808 9   2758113.85747  21913776.408    21913782.8634
  21904715.334     5187280.720 8   4044959.37047  21904714.712    21904723.0474
  21679319.280   -16203731.316 8 -12603863.51947  21679319.100    21679326.4774
  20785748.781   -17880744.334 9 -13922817.30448  20785748.306    20785755.2594
 01  7 12 20  4  0.0000000  0 10 14 23 09 03 17 31 18 15 29 21
  21006523.421   -18866272.870 9 -14687539.67647  21006523.077    21006529.2964
  23478410.458    13843176.115 8  10786981.32846  23478409.865    23478418.5634
  23631141.742    -4434622.978 8  -3448499.71546  23631141.401    23631150.6374
  21590165.375   -17026949.203 9 -13254834.14347  21590165.110    21590172.8344
  23290417.920    13834091.591 8  10778370.20245  23290417.339    23290427.7994
  22057084.803   -18381424.063 8 -13589557.93147  22057084.248    22057091.7954
  21926733.802     3461267.930 8   2811170.27047  21926733.398    21926739.8454
  21919314.107     5263997.777 8   4104738.81547  21919313.515    21919321.9254
  21663870.788   -16284913.268 8 -12667122.11647  21663870.664    21663877.9834
  20785909.694   -17879898.666 9 -13922158.35248  20785909.244    20785916.2294
 01  7 12 20  4 30.0000000  0 10 14 23 09 03 17 31 18 15 29 21
  20994189.586   -18931087.666 9 -14738044.65847  20994189.205    20994195.4204
  23492253.855    13915923.821 8  10843667.78746  23492253.312    23492262.0704
  23630278.269    -4439160.340 8  -3452035.30146  23630277.939    23630287.2054
  21599115.036   -16979918.613 9 -13218186.97347  21599114.764    21599122.4884
  23307887.258    13925892.326 8  10849903.09345  23307886.566    23307897.0714
  22053653.284   -18399456.841 8 -13603609.44647  22053652.724    22053660.2694
  21939720.482     3529513.446 8   2864348.54947  21939720.148    21939726.5734
  21933971.493     5341022.055 8   4164757.65547  21933970.838    21933979.1904
  21648491.111   -16365733.777 8 -12730099.07547  21648490.982    21648498.3064
  20786113.744   -17878826.230 9 -13921322.69848  20786113.323    20786120.3164
 01  7 12 20  5  0.0000000  0 10 14 23 09 03 17 31 18 15 29 21
  20981947.173   -18995422.054 9 -14788175.30047  20981946.800    20981952.9684
  23506105.452    13988714.795 8  10900387.97346  23506105.012    23506113.7664
  23629524.784    -4443119.543 8  -3455120.38045  23629524.531    23629533.8114
  21608160.951   -16932382.019 9 -13181145.51647  21608160.682    21608168.4294
  23325401.257    14017927.577 8  10921618.73645  23325400.491    23325410.9024
  22050335.013   -18416894.205 8 -13617196.99947  22050334.501    22050342.0894
  21952736.858     3597914.371 9   2917647.92247  21952736.497    21952742.8844
  21948687.255     5418353.251 8   4225015.65147  21948686.580    21948694.9594
  21633180.415   -16446191.189 8 -12792793.08847  21633180.331    21633187.7184
  20786361.039   -17877526.887 9 -13920310.22848  20786360.582    20786367.5704
 01  7 12 20  5 30.0000000  0 10 14 23 09 03 17 31 18 15 29 21
  20969796.488   -19059274.194 9 -14837930.16147  20969796.062    20969802.2424
  23519965.374    14061548.655 8  10957141.57246  23519964.868    23519973.7094
  23628881.575    -4446499.594 8  -3457754.17145  23628881.346    23628890.5154
  21617302.786   -16884341.606 9 -13143711.46847  21617302.523    21617310.2514
  23342959.607    14110196.350 8  10993516.33545  23342958.845    23342969.2664
  22047130.228   -18433735.688 8 -13630320.22847  22047129.680    22047137.2084
  21965782.622     3666469.976 8   2971067.83447  21965782.236    21965788.5854
  21963461.259     5495990.543 8   4285512.17747  21963460.553    21963468.8854
  21617939.289   -16526283.388 8 -12855202.52647  21617939.232    21617946.5964
  20786651.490   -17876000.577 9 -13919120.90148  20786651.061    20786658.0384
 01  7 12 20  6  0.0000000  0 10 14 23 09 03 17 31 18 15 29 21
  20957737.872   -19122642.499 9 -14887308.01447  20957737.450    20957743.6364
  23533833.319    14134425.012 8  11013928.28746  23533832.886    23533841.7174
  23628348.785    -4449299.513 8  -3459935.90945  23628348.585    23628357.6024
  21626540.104   -16835799.389 9 -13105886.40947  21626539.818    21626547.5824
  23360562.167    14202698.026 8  11065595.41245  23360561.430    23360571.8674
  22044038.822   -18449980.782 8 -13642978.74247  22044038.340    22044045.9044
  21978857.711     3735179.473 8   3024607.64747  21978857.284    21978863.6214
  21978293.393     5573933.394 8   4346246.78547  21978292.674    21978300.9964
  21602768.071   -16606008.516 9 -12917325.94547  21602767.995    21602775.3254
  20786985.021   -17874248.074 9 -13917755.32548  20786984.570    20786991.5464
 01  7 12 20  6 30.0000000  0 10 14 23 09 03 17 31 18 15 29 21
  20945771.620   -19185525.508 9 -14936307.71148  20945771.175    20945777.3384
  23547709.412    14207343.571 8  11070747.87046  23547708.870    23547717.6524
  23627926.490    -4451518.686 8  -3461665.09845  23627926.318    23627935.3024
  21635872.607   -16786756.935 9 -13067671.55047  21635872.327    21635880.1214
  23378208.626    14295431.556 8  11137855.16145  23378208.123    23378218.7174
  22041061.128   -18465628.970 8 -13655172.13447  22041060.631    22041068.1444
  21991961.775     3804041.749 9   3078266.51547  21991961.372    21991967.7614
  21993183.500     5652180.960 8   4407218.83847  21993182.736    21993191.0624
  21587666.927   -16685364.848 8 -12979161.96747  21587666.869    21587674.2494
  20787361.479   -17872269.712 9 -13916213.74848  20787361.019    20787368.0174
